[[{"header":{"parameterUnit":"m.s-1","parameterCategory":1,"la1":30.6,"la2":29.2853,"lo1":-89.7004,"lo2":-87.6739,"dy":0.0162,"dx":0.0183,"nx":112,"ny":82,"refTime":"2023-06-03T12:00:00:Z","depth":0,"parameterNumber":2,"parameterNumberName":"U-component_of_WINDS"},"data":[0.0,0.0,0.0,0.0,0.0,0.0,0.0,0.0,0.0,0.0,0.0,0.0,0.0,0.0,0.0,0.0,0.0,0.0,0.0,0.0,0.0,0.0,0.0,0.0,0.0,0.0,0.0,0.0,0.0,0.0,0.0,0.0,0.0,0.0,0.0,0.0,0.0,0.0,0.0,0.0,0.0,0.0,0.0,0.0,0.0,0.0,0.0,0.0,0.0,0.0,0.0,0.0,0.0,0.0,0.0,0.0,0.0,0.0,0.0,0.0,0.0,0.0,0.0,0.0,0.0,0.0,0.0,0.0,0.0,0.0,0.0,0.0,0.0,0.0,0.0,0.0,0.0,0.0,0.0,0.0,0.0,0.0,0.0,0.0,0.0,0.0,0.0,0.0,0.0,0.0,0.0,-0.9216,-0.9573,-0.9805,-0.9921,-0.9529,-0.9285,-0.9404,0.0,0.0,0.0,0.0,0.0,0.0,0.0,0.0,0.0,0.0,0.0,0.0,0.0,0.0,0.0,0.0,0.0,0.0,0.0,0.0,0.0,0.0,0.0,0.0,0.0,0.0,0.0,0.0,0.0,0.0,0.0,0.0,0.0,0.0,0.0,0.0,0.0,0.0,0.0,0.0,0.0,0.0,0.0,0.0,0.0,0.0,0.0,0.0,0.0,0.0,0.0,0.0,0.0,0.0,0.0,0.0,0.0,0.0,0.0,0.0,0.0,0.0,0.0,0.0,0.0,0.0,0.0,0.0,0.0,0.0,0.0,0.0,0.0,0.0,0.0,0.0,0.0,0.0,0.0,0.0,0.0,0.0,0.0,0.0,0.0,0.0,0.0,0.0,0.0,0.0,0.0,0.0,0.0,0.0,0.0,0.0,0.0,0.0,0.0,0.0,0.0,0.0,0.0,0.0,-0.9018,-0.9559,-0.988,-1.034,-1.1027,-1.0175,-0.984,-1.0275,0.0,0.0,0.0,0.0,0.0,0.0,0.0,0.0,0.0,0.0,0.0,0.0,0.0,0.0,0.0,0.0,0.0,0.0,0.0,0.0,0.0,0.0,0.0,0.0,0.0,0.0,0.0,0.0,0.0,0.0,0.0,0.0,0.0,0.0,0.0,0.0,0.0,0.0,0.0,0.0,0.0,0.0,0.0,0.0,0.0,0.0,0.0,0.0,0.0,0.0,0.0,0.0,0.0,0.0,0.0,0.0,0.0,0.0,0.0,0.0,0.0,0.0,0.0,0.0,0.0,0.0,0.0,0.0,0.0,0.0,0.0,0.0,0.0,0.0,0.0,0.0,0.0,0.0,0.0,0.0,0.0,0.0,0.0,0.0,0.0,0.0,0.0,0.0,0.0,0.0,0.0,0.0,0.0,0.0,0.0,0.0,0.0,0.0,0.0,0.0,0.0,0.0,0.0,-0.9419,-0.9619,-0.9886,-1.018,-1.054,-1.089,-1.0322,-1.003,-1.0286,-0.9658,0.0,0.0,0.0,0.0,0.0,0.0,0.0,0.0,0.0,0.0,0.0,0.0,0.0,0.0,0.0,0.0,0.0,0.0,0.0,0.0,0.0,0.0,0.0,0.0,0.0,0.0,0.0,0.0,0.0,0.0,0.0,0.0,0.0,0.0,0.0,0.0,0.0,0.0,0.0,0.0,0.0,0.0,0.0,0.0,0.0,0.0,0.0,0.0,0.0,0.0,0.0,0.0,0.0,0.0,0.0,0.0,0.0,0.0,0.0,0.0,0.0,0.0,0.0,0.0,0.0,0.0,0.0,0.0,0.0,0.0,0.0,0.0,0.0,0.0,0.0,0.0,0.0,0.0,0.0,0.0,0.0,0.0,0.0,0.0,0.0,0.0,0.0,0.0,0.0,0.0,0.0,0.0,0.0,0.0,0.0,0.0,0.0,0.0,0.0,0.0,0.0,0.0,-0.9933,-1.0114,-1.0114,-1.056,-1.0989,-1.1178,-1.0887,-1.071,-1.071,-1.0244,0.0,0.0,0.0,0.0,0.0,0.0,0.0,0.0,0.0,0.0,0.0,0.0,0.0,0.0,0.0,0.0,0.0,0.0,0.0,0.0,0.0,0.0,0.0,0.0,0.0,0.0,0.0,0.0,0.0,0.0,0.0,0.0,0.0,0.0,0.0,0.0,0.0,0.0,0.0,0.0,0.0,0.0,0.0,0.0,0.0,0.0,0.0,0.0,0.0,0.0,0.0,0.0,0.0,0.0,0.0,0.0,0.0,0.0,0.0,0.0,0.0,0.0,0.0,0.0,0.0,0.0,0.0,0.0,0.0,0.0,0.0,0.0,0.0,0.0,0.0,0.0,0.0,0.0,0.0,0.0,0.0,0.0,0.0,0.0,0.0,0.0,0.0,0.0,0.0,0.0,0.0,0.0,0.0,0.0,0.0,0.0,0.0,0.0,0.0,0.0,0.0,0.0,-0.9933,-1.0114,-1.0114,-1.1102,-1.202,-1.2765,-1.256,-1.2414,-1.2414,-1.1433,0.0,0.0,0.0,0.0,0.0,0.0,0.0,0.0,0.0,0.0,0.0,0.0,0.0,0.0,0.0,0.0,0.0,0.0,0.0,0.0,0.0,0.0,0.0,0.0,0.0,0.0,0.0,0.0,0.0,0.0,0.0,0.0,0.0,0.0,0.0,0.0,0.0,0.0,0.0,0.0,0.0,0.0,0.0,0.0,0.0,0.0,0.0,0.0,0.0,0.0,0.0,0.0,0.0,0.0,0.0,0.0,0.0,0.0,0.0,0.0,0.0,0.0,0.0,0.0,0.0,0.0,0.0,0.0,0.0,0.0,0.0,0.0,0.0,0.0,0.0,0.0,0.0,0.0,0.0,0.0,0.0,0.0,0.0,0.0,0.0,0.0,0.0,0.0,0.0,0.0,0.0,0.0,0.0,0.0,0.0,0.0,0.0,0.0,0.0,0.0,0.0,0.0,-1.0327,-1.0394,0.0,-1.0795,-1.1351,-1.2205,-1.2149,-1.2071,-1.2071,0.0,0.0,0.0,0.0,0.0,0.0,0.0,0.0,0.0,0.0,0.0,0.0,0.0,0.0,0.0,0.0,0.0,0.0,0.0,0.0,0.0,0.0,0.0,0.0,0.0,0.0,0.0,0.0,0.0,0.0,0.0,0.0,0.0,0.0,0.0,0.0,0.0,0.0,0.0,0.0,0.0,0.0,0.0,0.0,0.0,0.0,0.0,0.0,0.0,0.0,0.0,0.0,0.0,0.0,0.0,0.0,0.0,0.0,0.0,0.0,0.0,0.0,0.0,0.0,0.0,0.0,0.0,0.0,0.0,0.0,0.0,0.0,0.0,0.0,0.0,0.0,0.0,0.0,0.0,0.0,0.0,0.0,0.0,0.0,0.0,0.0,0.0,0.0,0.0,0.0,0.0,0.0,0.0,0.0,0.0,0.0,0.0,0.0,0.0,0.0,0.0,0.0,-1.0899,-1.0989,-1.115,0.0,-1.1659,-1.2003,-1.2717,-1.2867,-1.2862,-1.2565,0.0,0.0,0.0,0.0,0.0,0.0,0.0,0.0,0.0,0.0,0.0,0.0,0.0,0.0,0.0,0.0,0.0,0.0,0.0,0.0,0.0,0.0,0.0,0.0,0.0,0.0,0.0,0.0,0.0,0.0,0.0,0.0,0.0,0.0,0.0,0.0,0.0,0.0,0.0,0.0,0.0,0.0,0.0,0.0,0.0,0.0,0.0,0.0,0.0,0.0,0.0,0.0,0.0,0.0,0.0,0.0,0.0,0.0,0.0,0.0,0.0,0.0,0.0,0.0,0.0,0.0,0.0,0.0,0.0,0.0,0.0,0.0,0.0,0.0,0.0,0.0,0.0,0.0,0.0,0.0,0.0,0.0,0.0,0.0,0.0,0.0,0.0,0.0,0.0,0.0,0.0,0.0,0.0,0.0,0.0,0.0,0.0,0.0,0.0,0.0,0.0,0.0,-1.171,-1.1834,-1.2274,-1.3496,-1.3961,-1.4385,-1.4834,-1.5179,-1.5059,0.0,0.0,0.0,0.0,0.0,0.0,0.0,0.0,0.0,0.0,0.0,0.0,0.0,0.0,0.0,0.0,0.0,0.0,0.0,0.0,0.0,0.0,0.0,0.0,0.0,0.0,0.0,0.0,0.0,0.0,0.0,0.0,0.0,0.0,0.0,0.0,0.0,0.0,0.0,0.0,0.0,0.0,0.0,0.0,0.0,0.0,0.0,0.0,0.0,0.0,0.0,0.0,0.0,0.0,0.0,0.0,0.0,0.0,0.0,0.0,0.0,0.0,0.0,0.0,0.0,0.0,0.0,0.0,0.0,0.0,0.0,0.0,0.0,0.0,0.0,0.0,0.0,0.0,0.0,0.0,0.0,0.0,0.0,0.0,0.0,0.0,0.0,0.0,0.0,0.0,0.0,0.0,0.0,0.0,0.0,0.0,0.0,0.0,0.0,0.0,0.0,0.0,0.0,-1.1772,-1.2531,-1.3233,-1.3592,-1.3988,-1.4475,-1.4879,-1.5007,-1.4823,-1.4231,0.0,0.0,0.0,0.0,0.0,0.0,0.0,0.0,0.0,0.0,0.0,0.0,0.0,0.0,0.0,0.0,0.0,0.0,0.0,0.0,0.0,0.0,0.0,0.0,0.0,0.0,0.0,0.0,0.0,0.0,0.0,0.0,0.0,0.0,0.0,0.0,0.0,0.0,0.0,0.0,0.0,0.0,0.0,0.0,0.0,0.0,0.0,0.0,0.0,0.0,0.0,0.0,0.0,0.0,0.0,0.0,0.0,0.0,0.0,0.0,0.0,0.0,0.0,0.0,0.0,0.0,0.0,0.0,0.0,0.0,0.0,0.0,0.0,0.0,0.0,0.0,0.0,0.0,0.0,0.0,0.0,0.0,0.0,0.0,0.0,0.0,0.0,0.0,0.0,0.0,0.0,0.0,0.0,0.0,0.0,0.0,0.0,0.0,0.0,0.0,0.0,0.0,-1.2656,-1.3683,-1.458,-1.5067,-1.5221,-1.5441,-1.5879,-1.5729,-1.5523,-1.5209,0.0,0.0,0.0,0.0,0.0,0.0,0.0,0.0,0.0,0.0,0.0,0.0,0.0,0.0,0.0,0.0,0.0,0.0,0.0,0.0,0.0,0.0,0.0,0.0,0.0,0.0,0.0,0.0,0.0,0.0,0.0,0.0,0.0,0.0,0.0,0.0,0.0,0.0,0.0,0.0,0.0,0.0,0.0,0.0,0.0,0.0,0.0,0.0,0.0,0.0,0.0,0.0,0.0,0.0,0.0,0.0,0.0,0.0,0.0,0.0,0.0,0.0,0.0,0.0,0.0,0.0,0.0,0.0,0.0,0.0,0.0,0.0,0.0,0.0,0.0,0.0,0.0,0.0,0.0,0.0,0.0,0.0,0.0,0.0,0.0,0.0,0.0,0.0,0.0,0.0,0.0,0.0,0.0,0.0,0.0,0.0,0.0,0.0,0.0,0.0,0.0,0.0,-1.3975,-1.5033,-1.6123,-1.7268,-1.7061,-1.6992,-1.7344,-1.6947,-1.6704,-1.6665,0.0,0.0,0.0,0.0,0.0,0.0,0.0,0.0,0.0,0.0,0.0,0.0,0.0,0.0,0.0,0.0,0.0,0.0,0.0,0.0,0.0,0.0,0.0,0.0,0.0,0.0,0.0,0.0,0.0,0.0,0.0,0.0,0.0,0.0,0.0,0.0,0.0,0.0,0.0,0.0,0.0,0.0,0.0,0.0,0.0,0.0,0.0,0.0,0.0,0.0,0.0,0.0,0.0,0.0,0.0,0.0,0.0,0.0,0.0,0.0,-0.9833,0.0,0.0,0.0,0.0,0.0,0.0,0.0,0.0,0.0,0.0,0.0,0.0,0.0,0.0,0.0,0.0,0.0,0.0,0.0,0.0,0.0,0.0,0.0,0.0,0.0,0.0,0.0,0.0,0.0,0.0,0.0,0.0,0.0,0.0,0.0,0.0,0.0,0.0,0.0,0.0,0.0,-1.4073,-1.5814,-1.7069,-1.7373,-1.7598,-1.756,-1.7222,-1.7041,-1.6931,-1.6685,-1.6665,0.0,0.0,0.0,0.0,0.0,0.0,0.0,0.0,0.0,0.0,0.0,0.0,0.0,0.0,0.0,0.0,0.0,0.0,0.0,0.0,0.0,0.0,0.0,0.0,0.0,0.0,0.0,0.0,0.0,0.0,0.0,0.0,0.0,0.0,0.0,0.0,0.0,0.0,0.0,0.0,0.0,0.0,0.0,0.0,0.0,0.0,0.0,0.0,0.0,0.0,0.0,0.0,0.0,0.0,0.0,0.0,0.0,0.0,0.0,0.0,-1.0931,0.0,0.0,0.0,0.0,0.0,0.0,0.0,0.0,0.0,0.0,0.0,0.0,0.0,0.0,0.0,0.0,0.0,0.0,0.0,0.0,0.0,0.0,0.0,0.0,0.0,0.0,0.0,0.0,0.0,0.0,0.0,0.0,0.0,0.0,0.0,0.0,0.0,0.0,0.0,0.0,-1.4653,-1.6431,-1.7686,-1.7686,-1.7881,-1.7842,-1.7532,-1.7513,-1.7492,-1.7353,-1.7344,0.0,0.0,0.0,0.0,0.0,0.0,0.0,0.0,0.0,0.0,0.0,0.0,0.0,0.0,0.0,0.0,0.0,0.0,0.0,0.0,0.0,0.0,0.0,0.0,0.0,0.0,0.0,0.0,0.0,0.0,0.0,0.0,0.0,0.0,0.0,0.0,0.0,0.0,0.0,0.0,0.0,0.0,0.0,0.0,0.0,0.0,0.0,0.0,0.0,0.0,0.0,0.0,0.0,-1.1751,-1.2365,-1.2672,-1.3568,-1.4312,-1.4775,-1.3641,-1.2866,-1.2513,0.0,0.0,0.0,0.0,0.0,0.0,0.0,0.0,0.0,0.0,0.0,0.0,0.0,0.0,0.0,0.0,0.0,0.0,0.0,0.0,0.0,0.0,0.0,0.0,0.0,-1.3797,-1.3807,0.0,0.0,0.0,0.0,0.0,0.0,0.0,0.0,0.0,0.0,0.0,0.0,-1.5545,-1.6941,-1.8008,-1.8008,-1.8008,-1.8008,-1.8008,-1.8008,-1.8008,-1.8008,-1.8008,-1.8008,0.0,0.0,0.0,0.0,0.0,0.0,0.0,0.0,0.0,0.0,0.0,0.0,0.0,0.0,0.0,0.0,0.0,0.0,0.0,0.0,0.0,0.0,0.0,0.0,0.0,0.0,0.0,0.0,0.0,0.0,0.0,0.0,-0.6204,-0.5597,0.0,0.0,0.0,0.0,0.0,0.0,0.0,0.0,0.0,0.0,0.0,0.0,0.0,-1.0253,-1.0316,-1.0599,-1.139,-1.2719,-1.3112,-1.396,-1.5152,-1.6005,-1.6424,-1.6492,-1.7006,0.0,-1.4119,-1.4119,0.0,0.0,0.0,0.0,0.0,0.0,0.0,0.0,0.0,0.0,0.0,0.0,0.0,0.0,0.0,0.0,0.0,0.0,0.0,0.0,0.0,0.0,-1.5032,-1.5168,-1.5742,-1.6034,0.0,-1.4517,-1.4088,-1.3868,-1.3942,0.0,0.0,0.0,0.0,0.0,0.0,0.0,-1.6419,-1.7364,-1.8008,-1.8008,-1.8008,-1.8008,-1.8008,-1.8008,-1.8008,-1.8008,-1.8008,-1.8008,-1.8008,-1.7969,0.0,0.0,0.0,0.0,0.0,0.0,0.0,0.0,0.0,0.0,0.0,0.0,0.0,0.0,0.0,0.0,0.0,0.0,0.0,0.0,0.0,0.0,0.0,0.0,0.0,0.0,0.0,0.0,0.0,-0.6188,-0.643,-0.693,-0.6756,-0.6892,0.0,0.0,0.0,0.0,0.0,0.0,0.0,0.0,0.0,-1.0848,-1.1896,-1.2485,-1.2485,-1.2733,-1.3241,-1.381,-1.4909,-1.5765,-1.6371,-1.8109,-1.8917,-1.8972,-1.9035,-1.8501,-1.7445,-1.6446,-1.5605,-1.4833,0.0,0.0,0.0,0.0,-1.3009,-1.3325,-1.3325,-1.3325,0.0,-1.3517,0.0,0.0,0.0,0.0,0.0,0.0,0.0,0.0,0.0,0.0,-1.5982,-1.6468,-1.7177,-1.7658,-1.7301,-1.6952,-1.626,0.0,-1.4915,-1.5035,-1.4447,0.0,0.0,0.0,0.0,0.0,-1.6444,-1.7278,-1.8004,-1.8004,-1.8018,-1.7986,-1.8014,-1.8004,-1.7996,-1.8027,-1.8008,-1.8008,-1.8008,-1.8008,-1.8008,0.0,0.0,0.0,0.0,0.0,0.0,0.0,0.0,0.0,0.0,0.0,0.0,0.0,0.0,0.0,0.0,0.0,0.0,0.0,0.0,0.0,0.0,0.0,0.0,0.0,0.0,0.0,0.0,-0.6889,-0.7297,-0.8293,-0.8117,-0.8192,0.0,0.0,0.0,0.0,0.0,0.0,-1.0989,-1.149,-1.1797,-1.1884,-1.3462,-1.438,-1.4388,-1.4942,-1.5418,-1.5811,-1.7033,-1.782,-1.825,-2.0093,-2.0898,-2.0889,-2.0557,-2.042,-2.0283,-1.8574,-1.7504,-1.6875,-1.62,-1.5779,-1.5361,-1.5074,-1.5097,-1.523,-1.523,-1.523,-1.523,-1.523,0.0,-1.4898,-1.4698,0.0,0.0,0.0,0.0,-1.5392,-1.6266,-1.6698,-1.7058,-1.7716,-1.835,-1.8799,-1.8799,-1.8799,-1.8142,0.0,-1.6129,-1.6224,-1.5677,0.0,0.0,0.0,0.0,-1.7643,-1.6729,-1.7426,-1.7977,-1.7977,-1.8423,-1.8672,-1.8657,-1.8437,-1.8254,-1.8017,-1.7997,-1.8027,-1.8018,-1.8008,-1.8008,-1.8008,0.0,0.0,0.0,0.0,0.0,0.0,0.0,0.0,0.0,0.0,0.0,0.0,0.0,0.0,0.0,0.0,0.0,0.0,0.0,0.0,0.0,0.0,0.0,0.0,0.0,0.0,0.0,0.0,0.0,-0.8992,-0.8967,0.0,0.0,0.0,0.0,-1.1268,-1.1623,-1.1911,-1.2198,-1.2512,-1.2819,-1.3113,-1.4576,-1.5526,-1.5837,-1.6912,-1.8236,-1.9498,-1.9625,-2.0354,-2.1613,-2.1807,-2.1816,-2.1816,-2.1797,-2.1787,-2.165,-1.9912,-1.9189,-1.8996,-1.7756,-1.7741,-1.8276,-1.7102,-1.717,-1.7804,-1.7804,-1.7804,-1.7804,-1.7804,-1.7316,-1.654,-1.5747,-1.5694,0.0,0.0,-1.7442,-1.7963,-1.886,-1.9097,-1.9189,-1.9189,-1.9228,-1.9248,-1.9248,-1.9248,-1.9121,0.0,-1.8104,-1.7619,-1.6706,0.0,-1.7527,-1.626,-1.7133,-1.801,-1.7942,-1.7989,-1.8007,-1.8007,-1.9472,-2.0461,-2.0451,-1.973,-1.8879,-1.8075,-1.7976,-1.7983,-1.8027,-1.8008,-1.8008,-1.8008,-1.8008,0.0,0.0,0.0,0.0,0.0,0.0,0.0,0.0,0.0,0.0,0.0,0.0,0.0,0.0,0.0,0.0,0.0,0.0,0.0,0.0,0.0,0.0,0.0,0.0,0.0,0.0,0.0,0.0,-1.0251,-1.0605,0.0,-1.1396,-1.1447,-1.1664,-1.2251,-1.2559,-1.323,-1.4285,-1.4801,-1.5465,-1.6406,-1.7804,-1.8545,-1.8682,-1.9108,-1.9603,-2.008,-2.0343,-2.0808,-2.1315,-2.2207,-2.2695,-2.2676,-2.2402,-2.2295,-2.2217,-2.1328,-2.0801,-2.0411,-1.9735,-1.9647,-1.9853,-1.9399,-1.9425,-1.9648,-1.9648,-1.9648,-1.9609,-1.9326,-1.8827,-1.839,-1.8084,-1.8033,-1.8227,-1.8528,-1.8715,-1.8912,-1.9214,-1.9482,-1.9697,-1.9697,-1.9902,-2.0117,-2.0117,-1.9893,-1.9648,-1.9492,-1.9121,-1.8757,-1.8381,-1.8495,-1.8442,-1.7933,-1.7977,-1.7977,-1.8016,-1.8944,-1.9687,-1.9687,-2.0236,-2.0601,-2.0616,-1.9979,-1.9409,-1.9092,-1.8951,-1.8812,-1.8838,-1.8838,-1.8838,-1.8838,-1.8555,-1.8545,0.0,0.0,0.0,0.0,0.0,0.0,0.0,0.0,0.0,0.0,0.0,0.0,0.0,0.0,0.0,0.0,0.0,0.0,0.0,0.0,0.0,0.0,0.0,0.0,0.0,0.0,-1.0562,-1.1328,-1.1957,-1.2358,-1.2458,-1.2732,-1.3175,-1.3936,-1.377,-1.4494,-1.6421,-1.653,-1.7079,-1.8498,-1.9759,-2.0467,-2.0594,-2.0955,-2.122,-2.122,-2.15,-2.1631,-2.164,-2.264,-2.3135,-2.3125,-2.2842,-2.2725,-2.2705,-2.2422,-2.2139,-2.1816,-2.124,-2.1016,-2.1016,-2.1016,-2.1016,-2.1016,-2.1016,-2.1016,-2.0967,-2.0674,-2.0391,-2.0166,-2.0166,-2.0166,-2.0166,-2.0166,-2.0166,-2.0166,-2.0166,-2.0371,-2.0576,-2.0576,-2.0801,-2.1016,-2.1016,-2.0781,-2.0576,-2.0469,-1.9788,-1.9277,-1.9185,-1.9,-1.8845,-1.8609,-1.8248,-1.8193,-1.8807,-1.9866,-2.0635,-2.0635,-2.0594,-2.0633,-2.0569,-2.0232,-1.9951,-1.9811,-1.9595,-1.9434,-1.9297,-1.9287,-1.9287,-1.9287,-1.9004,-1.8994,-1.9287,0.0,0.0,0.0,0.0,0.0,0.0,0.0,0.0,0.0,0.0,0.0,0.0,0.0,0.0,0.0,0.0,0.0,0.0,0.0,0.0,0.0,0.0,0.0,-1.1116,-1.1543,-1.2017,-1.2311,-1.2879,-1.336,-1.3559,-1.3941,-1.4718,-1.6167,-1.5203,-1.5778,-1.8501,-1.7573,-1.7642,-1.9146,-2.0385,-2.1089,-2.1382,-2.2492,-2.3135,-2.3135,-2.3135,-2.3135,-2.3135,-2.3135,-2.3135,-2.3135,-2.3135,-2.3135,-2.3135,-2.3135,-2.3135,-2.3057,-2.2246,-2.1924,-2.1924,-2.1924,-2.1924,-2.1924,-2.1924,-2.1914,-2.1904,-2.1904,-2.1894,-2.1885,-2.1885,-2.1885,-2.1885,-2.1885,-2.1885,-2.1885,-2.1885,-2.1885,-2.1885,-2.1885,-2.1885,-2.1885,-2.1885,-2.1885,-2.1783,-2.1447,-2.0314,-1.9263,-1.8966,-1.8956,-1.8711,-1.8199,-1.8076,0.0,-2.0391,-2.0566,-2.0566,-2.0566,-2.0566,-2.0566,-2.0566,-2.0566,-2.0391,-1.9961,-1.9932,-1.9746,-1.9346,-1.9326,-1.9316,-1.9307,-1.9316,-1.9316,-1.9307,0.0,0.0,0.0,0.0,0.0,0.0,0.0,0.0,0.0,0.0,0.0,0.0,0.0,0.0,0.0,0.0,0.0,0.0,0.0,0.0,0.0,0.0,-1.2131,-1.1964,-1.2465,-1.2946,-1.324,-1.3801,-1.4195,-1.4275,-1.4549,-1.5265,-1.6533,-1.65,-1.7551,-2.0112,-2.0105,-2.0669,-2.197,-2.233,-2.2562,-2.2589,-2.295,-2.3135,-2.3135,-2.3135,-2.3135,-2.3135,-2.3135,-2.3135,-2.3135,-2.3135,-2.3135,-2.3135,-2.3135,-2.3135,-2.3115,-2.2881,-2.2793,-2.2793,-2.2793,-2.2793,-2.2793,-2.2793,-2.2598,-2.2344,-2.2344,-2.2139,-2.1885,-2.1885,-2.1885,-2.1885,-2.1885,-2.1885,-2.1885,-2.1885,-2.1885,-2.1885,-2.1885,-2.1885,-2.1885,-2.1885,-2.1885,-2.1783,-2.1447,-2.1072,-2.0649,-2.0234,-2.0098,-2.011,-1.9899,-1.988,0.0,-2.0537,-2.0566,-2.0566,-2.0566,-2.0566,-2.0566,-2.0566,-2.0566,-2.0508,-2.0391,-2.0391,-2.0332,-2.0215,-2.0215,-2.0059,-1.9746,-2.0049,-2.0059,0.0,0.0,0.0,0.0,0.0,0.0,0.0,0.0,0.0,0.0,0.0,0.0,0.0,0.0,0.0,0.0,0.0,0.0,0.0,0.0,0.0,0.0,-1.2779,-1.3093,-1.3213,-1.3434,-1.3687,-1.3975,-1.4529,-1.489,-1.489,-1.5597,-1.6664,-1.7803,-1.8065,-1.9256,-2.1686,-2.153,-2.1845,-2.3047,-2.3135,-2.3135,-2.3135,-2.3135,-2.3135,-2.3135,-2.3135,-2.3135,-2.3135,-2.3135,-2.3135,-2.3135,-2.3135,-2.3135,-2.3135,-2.3135,-2.3135,0.0,0.0,0.0,0.0,0.0,-2.3135,-2.3135,-2.3135,-2.2978,-2.2773,-2.2773,-2.2607,-2.2412,-2.2412,-2.2412,-2.2412,-2.2412,-2.2412,-2.2412,-2.2412,-2.2412,-2.2412,-2.2412,-2.2412,-2.2412,-2.2412,-2.2412,-2.2308,-2.2175,-2.208,0.0,-2.1734,-2.1087,-2.0876,-2.157,-2.164,-2.1372,-2.0663,-2.083,-2.0869,-2.0586,-2.0566,-2.0566,-2.0566,-2.0566,0.0,0.0,0.0,-2.0566,-2.0566,-2.0566,0.0,0.0,0.0,-2.0439,-2.0185,0.0,0.0,0.0,-1.9453,-1.9287,0.0,0.0,0.0,0.0,0.0,0.0,0.0,0.0,0.0,0.0,0.0,0.0,0.0,0.0,0.0,0.0,-1.3774,-1.4249,-1.4569,-1.4396,-1.4329,-1.4589,-1.511,-1.5537,-1.5629,-1.6879,-1.8234,-1.9579,-1.967,-2.0674,-2.296,0.0,0.0,0.0,0.0,-2.3164,-2.3213,-2.3213,-2.3242,-2.3281,-2.3232,-2.3213,-2.3213,-2.3164,-2.3135,-2.3135,-2.3135,-2.3135,-2.3135,-2.3135,-2.3135,-2.3135,-2.3135,-2.3135,-2.3135,-2.3135,-2.3135,-2.3135,-2.3135,0.0,0.0,-2.3135,-2.3135,-2.3135,-2.3135,-2.3135,-2.3135,-2.3135,-2.3135,-2.3135,-2.3135,-2.3135,-2.3135,-2.3135,-2.3135,-2.3135,-2.3135,-2.3135,-2.3135,-2.3135,-2.3135,-2.3134,-2.3107,-2.1887,-2.1393,-2.2887,-2.301,-2.2501,-2.0947,-2.1199,-2.1271,-2.0762,0.0,0.0,-2.0644,-2.0596,-2.0566,-2.0566,-2.0566,-2.0566,-2.0566,-2.0566,-2.0566,-2.0566,-2.0566,-2.0566,-2.0566,-2.0566,-2.0566,-2.0547,-1.9785,-1.9434,0.0,0.0,0.0,0.0,0.0,0.0,0.0,0.0,0.0,0.0,0.0,0.0,0.0,0.0,0.0,-1.3821,-1.4208,-1.4623,-1.515,-1.5177,-1.5164,-1.5224,-1.5531,-1.6115,-1.713,-1.7561,-1.8596,-2.0755,-2.0935,-2.1578,-2.3047,-2.2862,-2.2862,-2.3047,-2.3135,-2.331,-2.3662,-2.3662,-2.3838,-2.417,0.0,0.0,-2.3652,-2.3301,-2.3135,-2.3135,-2.3135,-2.3135,-2.3135,-2.3135,-2.3135,-2.3135,-2.3135,-2.3135,-2.3135,-2.3135,-2.3135,-2.3135,-2.3135,-2.3135,-2.3135,-2.3135,-2.3135,-2.3135,-2.3135,-2.3135,0.0,-2.3135,-2.3135,-2.3135,-2.3135,-2.3135,-2.3135,-2.3135,-2.3135,-2.3135,-2.3135,-2.3135,-2.3135,-2.3135,-2.3135,-2.3115,-2.3057,-2.2801,-2.273,-2.3051,-2.2764,-2.2304,-2.2001,-2.1869,-2.1738,-2.1641,-2.1318,-2.1103,-2.1103,-2.0771,-2.0566,-2.0566,-2.0566,-2.0566,-2.0566,-2.0566,-2.0566,-2.0566,-2.0566,-2.0566,-2.0566,-2.0566,-2.0566,-2.0634,-2.04,-2.0312,0.0,0.0,0.0,0.0,0.0,0.0,0.0,0.0,0.0,0.0,0.0,-1.2893,0.0,0.0,-1.4062,-1.4649,-1.4863,-1.511,-1.5551,-1.6164,-1.635,-1.5705,-1.6296,-1.7037,-1.7598,-1.8772,-2.0034,-2.1203,-2.1845,-2.2492,-2.3047,-2.335,-2.3467,-2.3467,-2.3672,-2.3887,-2.4102,-2.4102,-2.4209,-2.4414,-2.4209,-2.4102,-2.4092,-2.3662,-2.3467,-2.3457,-2.3232,-2.3135,-2.3135,-2.3135,-2.3135,-2.3135,-2.3135,-2.3135,-2.3135,-2.3135,-2.3135,-2.3135,-2.3135,-2.3135,-2.3135,-2.3135,-2.3135,-2.3135,-2.3135,-2.3135,-2.3135,-2.3135,-2.3135,-2.3135,-2.3135,-2.3135,-2.3135,-2.3135,-2.3135,-2.3135,-2.3135,-2.3135,-2.3135,-2.3135,-2.3135,-2.3135,-2.3135,-2.3095,-2.311,-2.3113,-2.2863,-2.266,-2.2443,-2.2301,-2.2119,-2.1904,-2.1689,-2.1562,-2.1562,-2.1357,-2.1133,-2.0918,-2.0898,-2.0801,-2.0576,-2.0566,-2.0566,-2.0566,-2.0566,-2.0566,-2.0566,-2.0566,-2.0566,-2.0566,-2.0566,-2.0566,0.0,0.0,0.0,0.0,0.0,0.0,0.0,0.0,-1.2719,-1.3267,-1.3614,-1.3901,-1.4202,-1.4496,-1.4843,-1.5317,-1.5444,-1.5651,-1.6075,-1.685,-1.7131,-1.656,-1.7397,-1.8141,-1.8411,-2.0124,-2.1391,-2.1658,-2.2656,-2.3262,-2.3262,-2.3672,-2.3906,-2.3906,-2.4238,-2.4453,-2.4541,-2.4541,-2.459,-2.4668,-2.458,-2.4541,-2.4531,-2.4102,-2.3906,-2.3887,-2.3447,-2.3213,-2.3135,-2.3135,-2.3135,-2.3135,-2.3135,-2.3135,-2.3135,-2.3135,-2.3135,-2.3135,-2.3135,-2.3135,-2.3135,-2.3135,-2.3135,-2.3135,-2.3135,-2.3135,-2.3135,-2.3135,-2.3135,-2.3135,-2.3135,-2.3135,-2.3135,-2.3135,-2.3135,-2.3135,-2.3135,-2.3135,-2.3135,-2.3135,-2.3135,-2.3135,-2.3135,-2.3135,-2.3135,-2.3135,-2.3135,-2.3018,-2.2676,-2.2637,-2.251,-2.2168,-2.206,-2.1973,-2.1894,-2.1885,-2.1738,-2.1387,-2.1357,-2.1201,-2.084,-2.082,-2.082,-2.082,-2.082,-2.082,-2.082,-2.082,-2.082,-2.082,-2.082,-2.0732,-1.329,-1.3811,-1.397,-1.2242,-1.297,-1.3792,0.0,0.0,-1.3587,-1.3921,-1.4222,-1.4516,-1.481,-1.5104,-1.5317,-1.5384,-1.5611,-1.6163,-1.7311,-1.6669,-1.6749,-1.8856,-1.9222,-1.9761,-2.0755,-2.1114,-2.1747,-2.2862,-2.3407,-2.3721,-2.3721,-2.4121,-2.4346,-2.4346,-2.4394,-2.46,-2.499,-2.5,-2.5195,-2.5586,-2.5185,-2.5,-2.498,-2.4541,-2.4346,-2.4326,-2.3906,-2.3496,-2.3135,-2.3135,-2.3135,-2.3135,-2.3135,-2.3135,-2.3135,-2.3135,-2.3135,-2.3135,-2.3135,-2.3135,-2.3135,-2.3135,-2.3135,-2.3135,-2.3135,-2.3135,-2.3135,-2.3135,-2.3135,-2.3135,-2.3135,-2.3135,-2.3135,-2.3135,-2.3135,-2.3135,-2.3135,-2.3135,-2.3135,-2.3135,-2.3135,-2.3135,-2.3135,-2.3135,-2.3135,-2.3135,-2.3135,-2.3125,-2.3076,-2.3066,-2.3057,-2.2998,-2.2666,-2.2295,-2.1924,-2.1885,-2.1865,-2.1816,-2.1816,-2.1787,-2.1738,-2.1738,-2.1738,-2.1738,-2.1738,-2.1738,-2.1738,-2.1738,-2.1738,-2.1738,-2.1738,-2.1318,-1.2721,-1.2969,-1.3266,0.0,-1.3263,-1.4057,-1.4727,-1.4455,-1.4399,-1.5454,-1.5341,-1.507,-1.5197,-1.5451,-1.5651,0.0,-1.6303,-1.7131,-1.7598,-1.8488,-1.9389,-2.0387,-2.1132,-2.1489,-2.1293,-2.1943,-2.2685,-2.3407,-2.3691,-2.3896,-2.4141,-2.456,-2.4795,-2.4795,-2.5049,-2.5273,-2.5459,-2.5459,-2.5557,-2.5742,-2.5547,-2.5459,-2.5439,-2.5,-2.4521,-2.4043,-2.3867,-2.3545,-2.3135,-2.3135,-2.3135,-2.3135,-2.3135,-2.3135,-2.3135,-2.3135,-2.3135,-2.3135,-2.3135,-2.3135,-2.3135,-2.3135,-2.3135,-2.3135,-2.3135,-2.3135,-2.3135,-2.3135,-2.3135,-2.3135,-2.3135,-2.3135,-2.3135,-2.3135,-2.3135,-2.3135,-2.3135,-2.3135,-2.3135,-2.3135,-2.3135,-2.3135,-2.3135,-2.3135,-2.3135,-2.3135,-2.3135,-2.3135,-2.3135,-2.3135,-2.3135,-2.3135,-2.2978,-2.2812,-2.2627,-2.2617,-2.251,-2.2266,-2.2246,-2.2139,-2.1894,-2.1885,-2.1885,-2.1885,-2.1885,-2.1885,-2.1885,-2.1885,-2.1885,-2.1885,-2.1885,-2.1689,-1.3863,-1.4169,-1.4554,-1.4612,-1.4983,-1.5575,-1.6297,-1.5799,-1.5592,-1.6676,-1.6189,-1.5611,-1.5975,-1.6147,-1.6292,-1.6292,-1.7404,-1.8326,-1.8696,-1.9951,-2.1025,-2.1756,-2.2306,-2.2451,-2.2002,-2.2761,-2.3447,-2.3769,-2.4014,-2.4277,-2.458,-2.501,-2.5254,-2.5254,-2.5566,-2.5742,-2.5742,-2.5742,-2.5742,-2.5742,-2.5742,-2.5742,-2.5723,-2.54,-2.4785,-2.3965,-2.3965,-2.3652,-2.3135,-2.3135,-2.3135,-2.3135,-2.3135,-2.3135,-2.3135,-2.3135,-2.3135,-2.3135,-2.3135,-2.3135,-2.3135,-2.3135,-2.3135,-2.3135,-2.3135,-2.3135,-2.3135,-2.3135,-2.3135,-2.3135,-2.3135,-2.3135,-2.3135,-2.3135,-2.3135,-2.3135,-2.3135,-2.3135,-2.3135,-2.3135,-2.3135,-2.3135,-2.3135,-2.3135,-2.3135,-2.3135,-2.3135,-2.3135,-2.3135,-2.3135,-2.3135,-2.3135,-2.3135,-2.3135,-2.3135,-2.3135,-2.3008,-2.2705,-2.2685,-2.2549,-2.2246,-2.2236,-2.2236,-2.2236,-2.2236,-2.2236,-2.2236,-2.2236,-2.2236,-2.2236,-2.2236,-2.2236,-1.8199,-1.9285,-1.9942,-1.84,-1.9019,-1.9466,-1.7257,-1.6988,-1.7131,-1.7138,-1.6415,-1.619,-1.7397,-1.7684,-1.7591,-1.7591,-1.868,-1.9861,-2.106,-2.0232,-2.0404,-2.2775,-2.2031,-2.2002,0.0,-2.3769,-2.3779,-2.3789,-2.456,-2.5039,-2.5049,-2.5478,-2.5713,-2.5713,-2.5732,-2.5742,-2.5742,-2.5742,-2.5742,-2.5742,-2.5742,-2.5742,-2.5742,-2.5723,-2.5234,-2.4394,-2.4394,-2.3916,-2.3135,-2.3135,-2.3135,-2.3135,-2.3135,-2.3135,-2.3135,-2.3135,-2.3135,-2.3135,-2.3135,-2.3135,-2.3135,-2.3135,-2.3135,-2.3135,-2.3135,-2.3135,-2.3135,-2.3135,-2.3135,-2.3135,-2.3135,-2.3135,-2.3135,-2.3135,-2.3135,-2.3135,-2.3135,-2.3135,-2.3135,-2.3135,-2.3135,-2.3135,-2.3135,-2.3135,-2.3135,-2.3135,-2.3135,-2.3135,-2.3135,-2.3135,-2.3135,-2.3135,-2.3135,-2.3135,-2.3135,-2.3135,-2.3135,-2.3125,-2.3125,-2.3115,-2.3096,-2.3096,-2.3096,-2.3096,-2.3096,-2.3096,-2.3096,-2.3096,-2.3096,-2.3096,-2.3096,-2.3096,-1.7944,-1.8388,-1.9006,-1.8793,-1.9124,-1.9538,-1.9769,-1.9208,-1.8937,-1.974,-1.9034,-1.8403,-1.8864,-1.8864,-1.8864,-1.8864,-1.9943,-2.0845,-2.1212,-2.1676,-2.2227,-2.296,-2.2765,0.0,0.0,0.0,0.0,-2.46,-2.4902,-2.5195,-2.5498,-2.5654,-2.5742,-2.5742,-2.5742,-2.5742,-2.5742,-2.5742,-2.5742,-2.5742,-2.5742,-2.5742,-2.5742,-2.5742,-2.5254,-2.4414,-2.4414,-2.3926,-2.3135,-2.3135,-2.3135,-2.3135,-2.3135,-2.3135,-2.3135,-2.3135,-2.3135,-2.3135,-2.3135,-2.3135,-2.3135,-2.3135,-2.3135,-2.3135,-2.3135,-2.3135,-2.3135,-2.3135,-2.3135,-2.3135,-2.3135,-2.3135,-2.3135,-2.3135,-2.3135,-2.3135,-2.3135,-2.3135,-2.3135,-2.3135,-2.3135,-2.3135,-2.3135,-2.3135,-2.3135,-2.3135,-2.3135,-2.3135,-2.3135,-2.3135,-2.3135,-2.3135,-2.3135,-2.3135,-2.3135,-2.3135,-2.3135,-2.3135,-2.3135,-2.3135,-2.3135,-2.3135,-2.3135,-2.3135,-2.3135,-2.3135,-2.3135,-2.3135,-2.3135,-2.3135,-2.3135,-2.3135,-1.9245,-1.9529,-1.9876,-2.043,-2.0492,-2.0642,-2.115,-2.0666,-2.0395,-2.1114,-2.0305,-1.967,-2.0034,-2.0124,-2.0124,-2.0124,-2.1123,-2.1933,-2.1933,-2.2589,-2.3135,-2.3135,-2.3271,0.0,0.0,0.0,0.0,-2.5029,-2.5215,-2.543,-2.5723,-2.5742,-2.5742,-2.5742,-2.5742,-2.5742,-2.5742,-2.5742,-2.5742,-2.5742,-2.5742,-2.5742,-2.5742,-2.5742,-2.5254,-2.4414,-2.4414,-2.3926,-2.3135,-2.3135,-2.3135,-2.3135,-2.3135,-2.3135,-2.3135,-2.3135,-2.3135,-2.3135,-2.3135,-2.3135,-2.3135,-2.3135,-2.3135,-2.3135,-2.3135,-2.3135,-2.3135,-2.3135,-2.3135,-2.3135,-2.3135,-2.3135,-2.3135,-2.3135,-2.3135,-2.3135,-2.3135,-2.3135,-2.3135,-2.3135,-2.3135,-2.3135,-2.3135,-2.3135,-2.3135,-2.3135,-2.3135,-2.3135,-2.3135,-2.3135,-2.3135,-2.3135,-2.3135,-2.3135,-2.3135,-2.3135,-2.3135,-2.3135,-2.3135,-2.3135,-2.3135,-2.3135,-2.3135,-2.3135,-2.3135,-2.3135,-2.3135,-2.3135,-2.3135,-2.3135,-2.3135,-2.3135,-2.2168,-2.2529,-2.2637,-2.3037,-2.3135,-2.2775,-2.1658,-2.1382,-2.1382,-2.1364,-2.0459,-2.0008,-2.1176,0.0,-2.1364,-2.1382,-2.2306,-2.3135,-2.3135,-2.3135,-2.3135,0.0,0.0,0.0,0.0,0.0,0.0,-2.5098,0.0,-2.5742,-2.5742,-2.5742,-2.5742,-2.5742,-2.5742,-2.5742,-2.5742,-2.5742,-2.5742,-2.5742,-2.5742,-2.5742,-2.5742,-2.5742,-2.5264,-2.4443,-2.4424,-2.3945,-2.3164,-2.3154,-2.3135,-2.3135,-2.3135,-2.3135,-2.3135,-2.3135,-2.3135,-2.3135,-2.3135,-2.3135,-2.3135,-2.3135,-2.3135,-2.3135,-2.3135,-2.3135,-2.3135,-2.3135,-2.3135,-2.3222,-2.3222,-2.3222,-2.3222,-2.3222,-2.3135,-2.3135,-2.3135,-2.3135,-2.3135,-2.3135,-2.3135,-2.3135,-2.3135,-2.3135,-2.3135,-2.3135,-2.3135,-2.3135,-2.3135,-2.3135,-2.3135,-2.3135,-2.3135,-2.3135,-2.3135,-2.3135,-2.3135,-2.3135,-2.3135,-2.3135,-2.3135,-2.3135,-2.3135,-2.3135,-2.3135,-2.3135,-2.3135,-2.3135,-2.3135,-2.3135,-2.3135,-2.3135,-2.2334,-2.2744,-2.2998,-2.3105,-2.3135,-2.3047,-2.2677,-2.2677,-2.2591,-2.2284,-2.1958,-2.1863,-2.2131,0.0,0.0,-2.262,-2.2862,0.0,-2.3135,-2.3135,0.0,0.0,0.0,-2.3955,-2.4375,-2.4814,0.0,0.0,-2.5674,-2.5742,-2.5742,-2.5742,-2.5742,-2.5742,-2.5742,-2.5742,-2.5742,-2.5742,-2.5742,-2.5742,-2.5742,-2.5742,-2.5742,-2.5742,-2.543,-2.4883,-2.456,-2.4111,-2.3603,-2.3271,-2.3135,-2.3135,-2.3135,-2.3135,-2.3135,-2.3135,-2.3135,-2.3135,-2.3135,-2.3135,-2.3135,-2.3135,-2.3135,-2.3135,-2.3135,-2.3135,-2.3135,-2.3135,-2.3714,-2.4382,-2.4382,-2.4382,-2.4382,-2.4382,-2.3714,-2.3135,-2.3135,-2.3135,-2.3135,-2.3135,-2.3135,-2.3135,-2.3135,-2.3135,-2.3135,-2.3135,-2.3135,-2.3135,-2.3135,-2.3135,-2.3135,-2.3135,-2.3135,-2.3135,-2.3135,-2.3135,-2.3135,-2.3135,-2.3135,-2.3135,-2.3135,-2.3135,-2.3135,-2.3135,-2.3135,-2.3135,-2.3135,-2.3135,-2.3135,-2.3135,-2.3135,-2.3135,-2.2676,-2.2959,-2.3135,-2.3135,-2.3135,-2.3135,-2.3135,-2.2998,-2.2793,-2.2568,-2.2363,0.0,-2.2236,0.0,0.0,0.0,0.0,0.0,-2.3135,-2.3135,-2.3213,0.0,-2.3799,0.0,-2.4658,-2.5107,-2.5469,0.0,-2.5742,-2.5742,-2.5742,-2.5742,-2.5742,-2.5742,-2.5742,-2.5742,-2.5742,-2.5742,-2.5742,-2.5742,-2.5742,-2.5742,-2.5742,-2.5742,-2.5488,-2.5039,0.0,-2.418,-2.375,-2.332,-2.3135,-2.3135,-2.3135,-2.3135,-2.3135,-2.3135,-2.3387,-2.3887,-2.3887,-2.4135,-2.4392,-2.3387,-2.3474,-2.3887,-2.3887,-2.4221,-2.4553,-2.4553,-2.5052,-2.5546,-2.5546,-2.5546,-2.5378,-2.4957,-2.3927,-2.3122,-2.3105,-2.3135,-2.3135,-2.3135,-2.3135,-2.3135,-2.3135,-2.3135,-2.3135,-2.3135,-2.3135,-2.3135,-2.3135,-2.3135,-2.3135,-2.3135,-2.3135,-2.3135,-2.3135,-2.3135,-2.3135,-2.3135,-2.3135,-2.3135,-2.3135,-2.3135,-2.3135,-2.3135,-2.3135,-2.3135,-2.3135,-2.3135,-2.3387,-2.379,-2.3299,-2.3387,-2.3027,-2.3135,-2.3135,-2.3135,-2.3135,-2.3125,-2.3066,-2.2773,-2.248,-2.2363,0.0,-2.1797,-2.1797,-2.21,-2.2383,-2.249,0.0,-2.3076,-2.3135,-2.3135,-2.3281,-2.3662,-2.4121,-2.456,-2.4941,-2.5439,-2.5742,-2.5742,-2.5742,-2.5742,-2.5742,-2.5742,-2.5742,-2.5742,-2.5742,-2.5742,-2.5742,-2.5742,-2.5742,-2.5742,-2.5742,-2.583,-2.5917,-2.5732,-2.5584,-2.5322,-2.4692,0.0,-2.375,-2.332,-2.3135,-2.3135,-2.3299,-2.3299,-2.3299,-2.3474,-2.4221,-2.5041,-2.5041,-2.563,-2.6141,-2.4221,-2.4211,-2.5041,-2.5041,-2.5724,-2.6483,-2.6483,-2.6637,-2.6719,-2.6719,-2.6719,-2.6461,-2.5452,-2.4398,-2.3428,-2.3191,-2.3105,-2.3135,-2.3135,-2.3096,-2.3183,-2.3523,-2.3474,-2.3434,-2.3551,-2.3551,-2.3474,-2.3387,-2.3222,-2.3135,-2.3135,-2.3135,-2.3135,-2.3135,-2.3135,-2.3135,-2.3135,-2.3135,-2.3135,-2.3135,-2.3222,-2.3299,-2.3299,-2.3464,-2.3551,-2.3551,-2.3551,-2.4049,-2.5041,-2.4049,-2.4049,-2.3027,-2.3135,-2.3135,-2.3135,-2.3135,-2.3047,-2.2705,-2.2568,0.0,0.0,-2.1396,-2.1348,-2.1348,-2.1406,0.0,-2.2393,0.0,0.0,0.0,0.0,-2.3164,0.0,0.0,0.0,0.0,0.0,0.0,0.0,0.0,-2.5742,-2.5742,-2.5742,-2.5742,-2.5742,-2.5742,-2.5742,-2.5742,-2.5742,-2.5742,-2.5742,-2.5742,-2.6294,-2.722,-2.6197,-2.6044,-2.6496,-2.5053,0.0,-2.375,-2.332,-2.3135,-2.3222,-2.4125,-2.4542,-2.4628,-2.5557,-2.6058,-2.6224,-2.6224,-2.6307,-2.6389,-2.6058,-2.6058,-2.6224,-2.6224,-2.6307,-2.6483,-2.6483,-2.7128,-2.7844,-2.7844,-2.7844,-2.7763,-2.7591,-2.6733,-2.5395,-2.3513,-2.3113,-2.3135,-2.3135,-2.3073,-2.372,-2.5626,-2.5421,-2.5174,-2.5786,-2.5891,-2.5557,-2.4628,-2.3714,-2.3135,-2.3135,-2.3135,-2.3135,-2.3135,-2.3135,-2.3135,-2.3135,-2.3135,-2.3135,-2.3135,-2.3963,-2.4542,-2.4542,-2.5473,-2.5891,-2.5891,-2.5891,-2.5975,-2.6224,-2.5975,-2.6058,-2.3027,-2.3135,-2.3135,-2.3135,-2.2969,-2.2754,-2.2559,0.0,0.0,0.0,-2.1045,-2.0889,-2.0889,0.0,0.0,0.0,0.0,0.0,0.0,0.0,0.0,0.0,0.0,0.0,0.0,0.0,0.0,0.0,0.0,-2.5742,-2.5742,-2.5742,-2.5742,-2.5742,-2.5742,-2.5742,-2.5742,-2.5742,-2.5742,-2.5732,-2.639,-2.703,-2.7579,-2.7327,-2.7455,-2.7746,-2.6388,0.0,-2.4611,-2.4836,-2.4553,-2.4135,-2.5221,-2.5714,-2.5714,-2.6307,-2.6883,-2.7371,-2.7371,-2.7706,-2.8211,-2.8211,-2.7787,-2.7371,-2.7371,-2.7706,-2.8211,-2.8211,-2.8621,-2.8937,-2.8937,-2.8937,-2.8858,-2.8255,-2.7545,-2.655,-2.4713,-2.3676,-2.3128,-2.3128,-2.3082,-2.419,-2.7603,-2.7269,-2.6565,-2.6483,-2.6483,-2.6307,-2.5797,-2.5221,-2.4392,-2.3222,-2.3135,-2.3135,-2.3135,-2.3637,-2.3963,-2.3963,-2.4553,-2.4893,-2.4893,-2.5389,-2.5714,-2.5714,-2.6224,-2.6483,-2.6483,-2.6483,-2.6801,-2.729,-2.6801,-2.6801,-2.292,-2.2998,-2.2998,-2.2998,-2.2685,-2.2353,-2.2256,-2.1719,0.0,0.0,-2.081,-2.0566,-2.0566,0.0,-2.1123,0.0,0.0,0.0,0.0,0.0,0.0,0.0,0.0,0.0,0.0,0.0,0.0,0.0,0.0,0.0,-2.5742,-2.5742,-2.5742,-2.5742,-2.5742,-2.5742,-2.5742,-2.5742,-2.583,-2.611,-2.7125,-2.7808,-2.8239,-2.8497,-2.8644,-2.8573,-2.7536,0.0,0.0,-2.6223,-2.5964,-2.5294,-2.6378,-2.6883,-2.6883,-2.7139,-2.7706,-2.8426,-2.8426,-2.9028,-2.9792,-2.9792,-2.9197,-2.8426,-2.8426,-2.9106,-2.9792,-2.9792,-2.9792,-2.9792,-2.9792,-2.9792,-2.9534,-2.8688,-2.8101,-2.7416,-2.6535,-2.5049,-2.397,-2.4437,-2.4559,-2.5672,-2.9198,-2.8831,-2.7859,-2.7255,-2.7221,-2.7139,-2.6883,-2.6883,-2.6047,-2.4059,-2.3637,-2.3464,-2.3464,-2.4296,-2.4872,-2.5126,-2.5964,-2.6483,-2.6483,-2.6719,-2.6883,-2.6883,-2.7058,-2.7221,-2.7221,-2.7221,-2.7626,-2.8426,-2.7626,-2.7626,-2.2559,-2.2568,-2.2568,-2.2568,-2.2256,-2.1846,-2.1445,0.0,0.0,-2.0713,-2.0596,-2.0566,-2.0566,-2.0596,-2.0762,-2.1172,-2.1631,-2.207,0.0,0.0,0.0,0.0,0.0,0.0,0.0,0.0,0.0,0.0,0.0,0.0,-2.5742,-2.5742,-2.5742,-2.5742,-2.5742,-2.5742,-2.5742,-2.5742,-2.6294,-2.741,-2.7494,-2.8451,-3.0062,-2.9046,-2.8699,-2.8846,-2.7656,0.0,0.0,-2.6494,-2.6472,-2.6472,-2.7522,-2.7924,-2.8096,-2.9118,-2.9546,-2.9624,-2.9624,-2.9702,-2.9792,-2.9792,-2.9714,-2.9624,-2.9624,-2.9702,-2.9792,-2.9792,-2.9792,-2.9792,-2.9792,-2.9792,-2.9792,-2.9702,-2.8791,-2.8295,-2.9205,-2.7708,-2.682,-2.8763,-2.9193,-2.9321,-2.9733,-2.9675,-2.9571,-2.9546,-2.9468,-2.9118,-2.8096,-2.7924,-2.7522,-2.6307,-2.5294,-2.4617,-2.4617,-2.4702,-2.521,-2.6307,-2.6472,-2.6483,-2.6483,-2.7452,-2.7924,-2.7924,-2.8949,-2.9468,-2.9468,-2.9468,-2.9546,-2.9624,-2.9546,-2.9546,-2.1992,-2.2139,-2.2139,-2.2139,-2.1816,-2.1445,-2.1279,0.0,-2.0781,-2.0605,-2.0566,-2.0566,-2.0566,-2.0566,-2.0625,-2.0801,-2.1426,-2.1943,0.0,0.0,0.0,0.0,0.0,0.0,0.0,0.0,0.0,0.0,0.0,0.0,-2.6754,-2.6849,-2.6476,-2.5732,-2.6476,-2.6849,-2.6849,-2.6849,-2.7264,-2.8254,-2.8959,-2.95,-2.9962,-2.9846,-2.9818,-2.9893,-2.9068,0.0,0.0,-2.8211,-2.8039,-2.7602,-2.87,-2.9106,-2.9197,-2.9624,-2.9792,-2.9792,-2.9792,-2.9792,-2.9792,-2.9792,-2.9792,-2.9792,-2.9792,-2.9792,-2.9792,-2.9792,-2.9792,-2.9792,-2.9792,-2.9792,-2.9792,-2.9792,-2.9443,-2.9246,-2.9733,-2.9071,-2.873,-2.9628,-2.9804,-2.977,-2.977,-2.9814,-2.9792,-2.9792,-2.9792,-2.9624,-2.9197,-2.9106,-2.8688,-2.7614,-2.6461,-2.5797,-2.5797,-2.6449,-2.7023,-2.7441,-2.8119,-2.8462,-2.8462,-2.887,-2.9106,-2.9106,-2.9534,-2.9792,-2.9792,-2.9792,-2.9792,-2.9792,-2.9792,-2.9792,-2.1133,-2.1396,-2.1465,-2.1338,-2.1074,-2.081,0.0,0.0,-2.0371,-2.0371,-2.0478,-2.0566,-2.0566,-2.0566,-2.0566,-2.0566,-2.1201,-2.1738,-2.1865,0.0,0.0,0.0,0.0,0.0,0.0,0.0,0.0,0.0,0.0,0.0,0.0,-2.8319,-2.8132,-2.6839,-2.7673,-2.8068,-2.7929,-2.7929,-2.8233,-2.8896,-2.9769,-3.0036,-2.9939,-3.0357,-3.052,-3.0357,-2.9967,0.0,0.0,-2.9456,-2.9365,-2.8676,-2.9456,-2.9792,-2.9792,-2.9792,-2.9792,-2.9792,-2.9792,-2.9792,-2.9792,-2.9792,-2.9792,-2.9792,-2.9792,-2.9792,-2.9792,-2.9792,-2.9792,-2.9792,-2.9792,-2.9792,-2.9792,-2.9792,-2.9792,-2.9792,-2.9792,-2.9792,-2.9792,-2.9792,-2.9792,-2.9792,-2.9792,-2.9792,-2.9792,-2.9792,-2.9792,-2.9792,-2.9792,-2.9792,-2.9456,-2.8688,-2.7959,-2.7302,-2.6964,-2.7695,-2.8255,-2.8597,-2.9365,-2.9792,-2.9792,-2.9792,-2.9792,-2.9792,-2.9792,-2.9792,-2.9792,-2.9792,-2.9792,-2.9792,-2.9792,-2.9792,-1.9932,-2.0254,-2.0478,-2.0049,-1.9932,-1.9814,0.0,-1.9619,-1.9922,-1.9922,-2.0264,-2.0566,-2.0566,-2.0566,-2.0566,-2.0566,-2.0947,-2.1396,-2.1826,0.0,0.0,0.0,0.0,0.0,0.0,0.0,0.0,0.0,0.0,0.0,0.0,-2.9852,-3.0586,-2.9407,-2.9407,-2.9172,-2.8589,-2.8589,-2.8961,-2.9581,-2.9581,-2.9927,-3.062,-3.062,-3.0319,0.0,0.0,0.0,0.0,-2.9792,-2.9792,-2.9792,-2.9792,-2.9792,-2.9792,-2.9792,-2.9792,-2.9792,-2.9792,-2.9792,-2.9792,-2.9792,-2.9792,-2.9792,-2.9792,-2.9792,-2.9792,-2.9792,-2.9792,-2.9792,-2.9792,-2.9792,-2.9792,-2.9792,-2.9792,-2.9792,-2.9792,-2.9792,-2.9792,-2.9792,-2.9792,-2.9792,-2.9792,-2.9792,-2.9792,-2.9792,-2.9792,-2.9792,-2.9792,-2.9792,-2.9792,-2.9792,-2.9792,-2.9287,-2.8176,-2.8084,-2.8597,-2.9702,-2.9792,-2.9792,-2.9792,-2.9792,-2.9792,-2.9792,-2.9792,-2.9792,-2.9792,-2.9792,-2.9792,-2.9792,-2.9792,-2.9792,-1.9326,-1.959,-1.9658,-1.9521,-1.9482,-1.9453,-1.9316,-1.9609,-1.9912,-1.9912,-2.0264,-2.0566,-2.0566,-2.0566,-2.0566,-2.0566,-2.0947,-2.1387,0.0,0.0,0.0,0.0,0.0,0.0,0.0,0.0,0.0,0.0,0.0,0.0,0.0,-3.0437,-3.0225,-2.9396,-2.9791,-2.9992,-2.9817,-2.9479,-2.9653,-3.0269,-3.0269,-3.0238,-3.0055,-3.0055,-2.9955,0.0,0.0,0.0,0.0,-2.9792,-2.9792,-2.9792,-2.9792,-2.9792,-2.9792,-2.9792,-2.9792,-2.9792,-2.9792,-2.9792,-2.9792,-2.9792,-2.9792,-2.9792,-2.9792,-2.9792,-2.9792,-2.9792,-2.9792,-2.9792,-2.9792,-2.9792,-2.9792,-2.9792,-2.9792,-2.9792,-2.9792,-2.9792,-2.9792,-2.9792,-2.9792,-2.9792,-2.9792,-2.9792,-2.9792,-2.9792,-2.9792,-2.9792,-2.9792,-2.9792,-2.9792,-2.9792,-2.9792,-2.9624,-2.9275,-2.9275,-2.9456,-2.9792,-2.9792,-2.9792,-2.9792,-2.9792,-2.9792,-2.9792,-2.9792,-2.9792,-2.9792,-2.9792,-2.9792,-2.9792,-2.9792,-2.9792,-1.8379,-1.8799,-1.9004,-1.8848,-1.8926,0.0,0.0,-1.9131,-1.9482,-1.9648,-2.0019,-2.0371,-2.0537,-2.0566,-2.0566,-2.0566,-2.0801,-2.1191,0.0,0.0,0.0,0.0,0.0,0.0,0.0,0.0,0.0,0.0,0.0,0.0,0.0,-3.0783,-3.0565,-3.0179,-3.0577,-3.0664,-3.0482,-3.0155,-3.0069,-3.0306,-3.0306,-3.0118,-2.9792,-2.9792,-2.9792,0.0,0.0,0.0,0.0,-2.9792,-2.9792,-2.9792,-2.9792,-2.9792,-2.9792,-2.9792,-2.9792,-2.9792,-2.9792,-2.9792,-2.9792,-2.9792,-2.9792,-2.9792,-2.9792,-2.9792,-2.9792,-2.9792,-2.9792,-2.9792,-2.9792,-2.9792,-2.9792,-2.9792,-2.9792,-2.9792,-2.9792,-2.9792,-2.9792,-2.9792,-2.9792,-2.9792,-2.9792,-2.9792,-2.9792,-2.9792,-2.9792,-2.9792,-2.9792,-2.9792,-2.9792,-2.9792,-2.9792,-2.9792,-2.9792,-2.9792,-2.9792,-2.9792,-2.9792,-2.9792,-2.9792,-2.9792,-2.9792,-2.9792,-2.9792,-2.9792,-2.9792,-2.9792,-2.9792,-2.9792,-2.9792,-2.9792,0.0,-1.7949,-1.8496,0.0,0.0,0.0,-1.8105,-1.833,0.0,-1.9199,-1.9619,-2.0049,-2.0478,-2.0566,-2.0566,-2.0566,-2.0596,0.0,0.0,0.0,0.0,0.0,0.0,0.0,0.0,0.0,0.0,0.0,0.0,0.0,0.0,-3.1021,-3.1336,-3.1336,-3.1298,-3.1072,-3.062,-3.057,-3.0306,-2.9792,-2.9792,-2.9792,-2.9792,-2.9792,-2.9792,0.0,0.0,0.0,0.0,-2.9792,-2.9792,-2.9792,-2.9792,-2.9792,-2.9792,-2.9792,-2.9792,-2.9792,-2.9792,-2.9792,-2.9792,-2.9792,-2.9792,-2.9792,-2.9792,-2.9792,-2.9792,-2.9792,-2.9792,-2.9792,-2.9792,-2.9792,-2.9792,-2.9792,-2.9792,-2.9792,-2.9792,-2.9792,-2.9792,-2.9792,-2.9792,-2.9792,-2.9792,-2.9792,-2.9792,-2.9792,-2.9792,-2.9792,-2.9792,-2.9792,-2.9792,-2.9792,-2.9792,-2.9792,-2.9792,-2.9792,-2.9792,-2.9792,-2.9792,-2.9792,-2.9792,-2.9792,-2.9792,-2.9792,-2.9792,-2.9792,-2.9792,-2.9792,-2.9792,-2.9792,-2.9792,-2.9792,-1.6758,0.0,-1.8135,-1.8037,-1.8086,-1.8135,0.0,-1.833,-1.876,-1.9199,-1.9619,-2.0049,-2.0478,-2.0566,-2.0566,-2.0566,-2.0859,0.0,0.0,0.0,0.0,0.0,0.0,0.0,0.0,0.0,0.0,0.0,0.0,0.0,0.0,-3.091,-3.0796,-3.0796,-3.0382,-3.0306,-3.062,-3.0193,-2.9917,-2.9792,-2.9792,-2.9792,-2.9792,-2.9792,-2.9792,0.0,0.0,0.0,-2.9792,-2.9792,-2.9792,-2.9792,-2.9792,-2.9792,-2.9792,-2.9792,-2.9792,-2.9792,-2.9792,-2.9792,-2.9792,-2.9792,-2.9792,-2.9792,-2.9792,-2.9792,-2.9792,-2.9792,-2.9792,-2.9792,-2.9792,-2.9792,-2.9792,-2.9792,-2.9792,-2.9792,-2.9792,-2.9792,-2.9792,-2.9792,-2.9792,-2.9792,-2.9792,-2.9792,-2.9792,-2.9792,-2.9792,-2.9792,-2.9792,-2.9792,-2.9792,-2.9792,-2.9792,-2.9792,-2.9792,-2.9792,-2.9792,-2.9792,-2.9792,-2.9792,-2.9792,-2.9792,-2.9792,-2.9792,-2.9792,-2.9792,-2.9792,-2.9792,-2.9792,-2.9792,-2.9792,-2.9792,-1.6611,-1.7217,-1.7773,-1.7959,-1.8008,-1.8008,-1.8008,-1.8184,-1.8525,-1.916,0.0,0.0,0.0,0.0,0.0,0.0,0.0,0.0,0.0,0.0,0.0,0.0,0.0,0.0,0.0,0.0,0.0,0.0,0.0,0.0,0.0,-3.0532,-3.0231,-3.0231,-2.9942,-2.993,-3.0231,-2.9942,-2.9792,-2.9792,-2.9792,-2.9792,-2.9792,-2.9792,-2.9792,0.0,0.0,0.0,-2.9792,-2.9792,-2.9792,-2.9792,-2.9792,-2.9792,-2.9792,-2.9792,-2.9792,-2.9792,-2.9792,-2.9792,-2.9792,-2.9792,-2.9792,-2.9792,-2.9792,-2.9792,-2.9792,-2.9792,-2.9792,-2.9792,-2.9792,-2.9792,-2.9792,-2.9792,-2.9792,-2.9792,-2.9792,-2.9792,-2.9792,-2.9792,-2.9792,-2.9792,-2.9792,-2.9792,-2.9792,-2.9792,-2.9792,-2.9792,-2.9792,-2.9792,-2.9792,-2.9792,-2.9792,-2.9792,-2.9792,-2.9792,-2.9792,-2.9792,-2.9792,-2.9792,-2.9792,-2.9792,-2.9792,-2.9792,-2.9792,-2.9792,-2.9792,-2.9792,-2.9792,-2.9792,-2.9792,-2.9792,-1.6592,-1.7002,-1.7402,-1.7891,-1.8008,-1.8008,-1.8008,0.0,0.0,0.0,0.0,0.0,0.0,0.0,0.0,0.0,0.0,0.0,0.0,0.0,0.0,0.0,0.0,0.0,0.0,0.0,0.0,0.0,0.0,0.0,0.0,-3.0043,-2.9792,-2.9792,-2.9792,-2.9792,-2.9792,-2.9792,-2.9792,-2.9792,-2.9792,-2.9792,-2.9792,-2.9792,-2.9792,-2.9792,0.0,0.0,-2.9792,-2.9792,-2.9792,-2.9792,-2.9792,-2.9792,-2.9792,-2.9792,-2.9792,-2.9792,-2.9792,-2.9792,-2.9792,-2.9792,-2.9792,-2.9792,-2.9792,-2.9792,-2.9792,-2.9792,-2.9792,-2.9792,-2.9792,-2.9792,-2.9792,-2.9792,-2.9792,-2.9792,-2.9792,-2.9792,-2.9792,-2.9792,-2.9792,-2.9792,-2.9792,-2.9792,-2.9792,-2.9792,-2.9792,-2.9792,-2.9792,-2.9792,-2.9792,-2.9792,-2.9792,-2.9792,-2.9792,-2.9792,-2.9792,-2.9792,-2.9792,-2.9792,-2.9792,-2.9792,-2.9792,-2.9792,-2.9792,-2.9792,-2.9792,-2.9792,-2.9792,-2.9792,-2.9792,-2.9792,-1.6504,-1.6777,-1.7021,-1.7812,-1.8008,-1.8008,-1.8008,-1.8008,0.0,0.0,0.0,0.0,0.0,0.0,0.0,0.0,0.0,0.0,0.0,0.0,0.0,0.0,0.0,0.0,0.0,0.0,0.0,0.0,0.0,0.0,0.0,-2.9842,-2.9792,-2.9792,-2.9792,-2.9792,-2.9792,-2.9792,-2.9792,-2.9792,-2.9792,-2.9792,-2.9792,-2.9792,-2.9792,-2.9792,0.0,-2.9792,-2.9792,-2.9792,-2.9792,-2.9792,-2.9792,-2.9792,-2.9792,-2.9792,-2.9792,-2.9792,-2.9792,-2.9792,-2.9792,-2.9792,-2.9792,-2.9792,-2.9792,-2.9792,-2.9792,-2.9792,-2.9792,-2.9792,-2.9792,-2.9792,-2.9792,-2.9792,-2.9792,-2.9792,-2.9792,-2.9792,-2.9792,-2.9792,-2.9792,-2.9792,-2.9792,-2.9792,-2.9792,-2.9792,-2.9792,-2.9792,-2.9792,-2.9792,-2.9792,-2.9792,-2.9792,-2.9792,-2.9792,-2.9792,-2.9792,-2.9792,-2.9792,-2.9792,-2.9792,-2.9792,-2.9792,-2.9792,-2.9792,-2.9792,-2.9792,-2.9792,-2.9792,-2.9792,-2.9792,-2.9792,-1.6494,-1.6665,-1.6934,-1.7793,-1.8008,-1.8008,-1.8008,-1.8008,0.0,0.0,0.0,0.0,0.0,0.0,0.0,0.0,0.0,0.0,0.0,0.0,0.0,0.0,0.0,0.0,0.0,0.0,0.0,0.0,0.0,0.0,0.0,-2.9792,-2.9792,-2.9792,-2.9792,-2.9792,-2.9792,-2.9792,-2.9792,-2.9792,-2.9792,-2.9792,-2.9792,-2.9792,-2.9792,-2.9792,0.0,-2.9792,-2.9792,-2.9792,-2.9792,-2.9792,-2.9792,-2.9792,-2.9792,-2.9792,-2.9792,-2.9792,-2.9792,-2.9792,-2.9792,-2.9792,-2.9792,-2.9792,-2.9792,-2.9792,-2.9792,-2.9792,-2.9792,-2.9792,-2.9792,-2.9792,-2.9792,-2.9792,-2.9792,-2.9792,-2.9792,-2.9792,-2.9792,-2.9792,-2.9792,-2.9792,-2.9792,-2.9792,-2.9792,-2.9792,-2.9792,-2.9792,-2.9792,-2.9792,-2.9792,-2.9792,-2.9792,-2.9792,-2.9792,-2.9792,-2.9792,-2.9792,-2.9792,-2.9792,-2.9792,-2.9792,-2.9792,-2.9792,-2.9792,-2.9792,-2.9792,-2.9792,-2.9792,-2.9792,-2.9792,-2.9792,-1.6494,-1.6665,-1.6934,-1.7793,-1.8008,-1.8008,-1.8008,-1.8008,-1.8125,0.0,0.0,0.0,0.0,0.0,0.0,0.0,0.0,0.0,0.0,0.0,0.0,0.0,0.0,0.0,0.0,0.0,0.0,0.0,0.0,0.0,-2.9792,-2.9792,-2.9792,-2.9792,-2.9792,-2.9792,-2.9792,-2.9792,-2.9792,-2.9792,-2.9792,-2.9792,-2.9792,-2.9792,-2.9792,-2.9792,-2.9792,-2.9792,-2.9792,-2.9792,-2.9792,-2.9792,-2.9792,-2.9792,-2.9792,-2.9792,-2.9792,-2.9792,-2.9792,-2.9792,-2.9792,-2.9792,-2.9792,-2.9792,-2.9792,-2.9792,-2.9792,-2.9792,-2.9792,-2.9792,-2.9792,-2.9792,-2.9792,-2.9792,-2.9792,-2.9792,-2.9792,-2.9792,-2.9792,-2.9792,-2.9792,-2.9792,-2.9792,-2.9792,-2.9792,-2.9792,-2.9792,-2.9792,-2.9792,-2.9792,-2.9792,-2.9792,-2.9792,-2.9792,-2.9792,-2.9792,-2.9792,-2.9792,-2.9792,-2.9792,-2.9792,-2.9792,-2.9792,-2.9792,-2.9792,-2.9792,-2.9792,-2.9792,-2.9792,-2.9792,-2.9792,-2.9792,-1.6494,-1.6665,-1.6934,-1.7793,-1.8008,-1.8008,-1.8008,-1.8008,-1.8125,-1.8555,0.0,0.0,0.0,0.0,0.0,0.0,0.0,0.0,0.0,0.0,0.0,0.0,0.0,0.0,0.0,0.0,0.0,0.0,0.0,0.0,-2.9792,-2.9792,-2.9792,-2.9792,-2.9792,-2.9792,-2.9792,-2.9792,-2.9792,-2.9792,-2.9792,-2.9792,-2.9792,-2.9792,-2.9792,-2.9792,-2.9792,-2.9792,-2.9792,-2.9792,-2.9792,-2.9792,-2.9792,-2.9792,-2.9792,-2.9792,-2.9792,-2.9792,-2.9792,-2.9792,-2.9792,-2.9792,-2.9792,-2.9792,-2.9792,-2.9792,-2.9792,-2.9792,-2.9792,-2.9792,-2.9792,-2.9792,-2.9792,-2.9792,-2.9792,-2.9792,-2.9792,-2.9792,-2.9792,-2.9792,-2.9792,-2.9792,-2.9792,-2.9792,-2.9792,-2.9792,-2.9792,-2.9792,-2.9792,-2.9792,-2.9792,-2.9792,-2.9792,-2.9792,-2.9792,-2.9792,-2.9792,-2.9792,-2.9792,-2.9792,-2.9792,-2.9792,-2.9792,-2.9792,-2.9792,-2.9792,-2.9792,-2.9792,-2.9792,-2.9792,-2.9792,-2.9792,-1.6494,-1.6665,-1.6934,-1.7793,-1.8008,-1.8008,-1.8008,-1.8213,-1.8447,-1.8603,-1.9675,0.0,0.0,0.0,0.0,0.0,0.0,0.0,0.0,0.0,0.0,0.0,0.0,0.0,0.0,0.0,0.0,0.0,0.0,0.0,0.0,-2.9792,-2.9792,-2.9792,-2.9792,-2.9792,-2.9792,-2.9792,-2.9792,-2.9792,-2.9792,-2.9792,-2.9792,-2.9792,-2.9792,-2.9792,-2.9792,-2.9792,-2.9792,-2.9792,-2.9792,-2.9792,-2.9792,-2.9792,-2.9792,-2.9792,-2.9792,-2.9792,-2.9792,-2.9792,-2.9792,-2.9792,-2.9792,-2.9792,-2.9792,-2.9792,-2.9792,-2.9792,-2.9792,-2.9792,-2.9792,-2.9792,-2.9792,-2.9792,-2.9792,-2.9792,-2.9792,-2.9792,-2.9792,-2.9792,-2.9792,-2.9792,-2.9792,-2.9792,-2.9792,-2.9792,-2.9792,-2.9792,-2.9792,-2.9792,-2.9792,-2.9792,-2.9792,-2.9792,-2.9792,-2.9792,-2.9792,-2.9792,-2.9792,-2.9792,-2.9792,-2.9792,-2.9792,-2.9792,-2.9792,-2.9792,-2.9792,-2.9792,-2.9792,-2.9792,-2.9792,-2.9792,-1.6494,-1.6665,-1.6934,-1.7793,-1.8202,-1.8434,-1.8632,-1.8903,-1.9254,-1.9808,-2.1102,-2.2542,0.0,0.0,0.0,0.0,0.0,0.0,0.0,0.0,0.0,0.0,0.0,0.0,0.0,0.0,0.0,0.0,0.0,0.0,0.0,-2.9792,-2.9792,-2.9792,-2.9792,-2.9792,-2.9792,-2.9792,-2.9792,-2.9792,-2.9792,-2.9792,-2.9792,-2.9792,-2.9792,-2.9792,-2.9792,-2.9792,-2.9792,-2.9792,-2.9792,-2.9792,-2.9792,-2.9792,-2.9792,-2.9792,-2.9792,-2.9792,-2.9792,-2.9792,-2.9792,-2.9792,-2.9792,-2.9792,-2.9792,-2.9792,-2.9792,-2.9792,-2.9792,-2.9792,-2.9792,-2.9792,-2.9792,-2.9792,-2.9792,-2.9792,-2.9792,-2.9792,-2.9792,-2.9792,-2.9792,-2.9792,-2.9792,-2.9792,-2.9792,-2.9792,-2.9792,-2.9792,-2.9792,-2.9792,-2.9792,-2.9792,-2.9792,-2.9792,-2.9792,-2.9792,-2.9792,-2.9792,-2.9792,-2.9792,-2.9792,-2.9792,-2.9792,-2.9792,-2.9792,-2.9792,-2.9792,-2.9792,-2.9792,-2.9792,-2.9792,-2.9792,-1.6494,-1.6665,-1.6934,-1.7793,0.0,0.0,-2.0022,-2.0128,-2.0668,-2.2536,-2.3262,-2.3514,-2.3514,0.0,0.0,0.0,0.0,0.0,0.0,0.0,0.0,0.0,0.0,0.0,0.0,0.0,0.0,0.0,0.0,0.0,0.0,-2.9792,-2.9792,-2.9792,-2.9792,-2.9792,-2.9792,-2.9792,-2.9792,-2.9792,-2.9792,-2.9792,-2.9792,-2.9792,-2.9792,-2.9792,-2.9792,-2.9792,-2.9792,-2.9792,-2.9792,-2.9792,-2.9792,-2.9792,-2.9792,-2.9792,-2.9792,-2.9792,-2.9792,-2.9792,-2.9792,-2.9792,-2.9792,-2.9792,-2.9792,-2.9792,-2.9792,-2.9792,-2.9792,-2.9792,-2.9792,-2.9792,-2.9792,-2.9792,-2.9792,-2.9792,-2.9792,-2.9792,-2.9792,-2.9792,-2.9792,-2.9792,-2.9792,-2.9792,-2.9792,-2.9792,-2.9792,-2.9792,-2.9792,-2.9792,-2.9792,-2.9792,-2.9792,-2.9792,-2.9792,-2.9792,-2.9792,-2.9792,-2.9792,-2.9792,-2.9792,-2.9792,-2.9792,-2.9792,-2.9792,-2.9792,-2.9792,-2.9792,-2.9792,-2.9792,-2.9792,-2.9792,-1.6494,-1.6665,0.0,-1.7793,0.0,0.0,0.0,-2.1493,0.0,0.0,-2.4459,-2.4779,0.0,0.0,0.0,0.0,0.0,0.0,0.0,0.0,0.0,0.0,0.0,0.0,0.0,0.0,0.0,0.0,0.0,0.0,0.0,-2.9792,-2.9792,-2.9792,-2.9792,-2.9792,-2.9792,-2.9792,-2.9792,-2.9792,-2.9792,-2.9792,-2.9792,-2.9792,-2.9792,-2.9792,-2.9792,-2.9792,-2.9792,-2.9792,-2.9792,-2.9792,-2.9792,-2.9792,-2.9792,-2.9792,-2.9792,-2.9792,-2.9792,-2.9792,-2.9792,-2.9792,-2.9792,-2.9792,-2.9792,-2.9792,-2.9792,-2.9792,-2.9792,-2.9792,-2.9792,-2.9792,-2.9792,-2.9792,-2.9792,-2.9792,-2.9792,-2.9792,-2.9792,-2.9792,-2.9792,-2.9792,-2.9792,-2.9792,-2.9792,-2.9792,-2.9792,-2.9792,-2.9792,-2.9792,-2.9792,-2.9792,-2.9792,-2.9792,-2.9792,-2.9792,-2.9792,-2.9792,-2.9792,-2.9792,-2.9792,-2.9792,-2.9792,-2.9792,-2.9792,-2.9792,-2.9792,-2.9792,-2.9792,-2.9792,-2.9792,-2.9792,-1.6269,-1.6602,0.0,-1.7955,-1.9031,-2.0391,-2.2721,0.0,0.0,0.0,0.0,0.0,0.0,0.0,0.0,0.0,0.0,0.0,0.0,0.0,0.0,0.0,0.0,0.0,0.0,0.0,0.0,0.0,0.0,0.0,0.0,-2.9792,-2.9792,-2.9792,-2.9792,-2.9792,-2.9792,-2.9792,-2.9792,-2.9792,-2.9792,-2.9792,-2.9792,-2.9792,-2.9792,-2.9792,-2.9792,-2.9792,-2.9792,-2.9792,-2.9792,-2.9792,-2.9792,-2.9792,-2.9792,-2.9792,-2.9792,-2.9792,-2.9792,-2.9792,-2.9792,-2.9792,-2.9792,-2.9792,-2.9792,-2.9792,-2.9792,-2.9792,-2.9792,-2.9792,-2.9792,-2.9792,-2.9792,-2.9792,-2.9792,-2.9792,-2.9792,-2.9792,-2.9792,-2.9792,-2.9792,-2.9792,-2.9792,-2.9792,-2.9792,-2.9792,-2.9792,-2.9792,-2.9792,-2.9792,-2.9792,-2.9792,-2.9792,-2.9792,-2.9792,-2.9792,-2.9792,-2.9792,-2.9792,-2.9792,-2.9792,-2.9792,-2.9792,-2.9792,-2.9792,-2.9792,-2.9792,-2.9792,-2.9792,-2.9792,-2.9792,-2.9792,-1.6058,0.0,0.0,-1.8364,-1.9746,0.0,0.0,0.0,0.0,0.0,0.0,0.0,0.0,0.0,0.0,0.0,0.0,0.0,0.0,0.0,0.0,0.0,0.0,0.0,0.0,0.0,0.0,0.0,0.0,0.0,0.0,-2.9792,-2.9792,-2.9792,-2.9792,-2.9792,-2.9792,-2.9792,-2.9792,-2.9792,-2.9792,-2.9792,-2.9792,-2.9792,-2.9792,-2.9792,-2.9792,-2.9792,-2.9792,-2.9792,-2.9792,-2.9792,-2.9792,-2.9792,-2.9792,-2.9792,-2.9792,-2.9792,-2.9792,-2.9792,-2.9792,-2.9792,-2.9792,-2.9792,-2.9792,-2.9792,-2.9792,-2.9792,-2.9856,-2.9934,-2.9934,-2.9934,-2.9934,-2.9934,-2.9856,-2.9792,-2.9792,-2.9792,-2.9792,-2.9792,-2.9792,-2.9792,-2.9792,-2.9792,-2.9792,-2.9792,-2.9792,-2.9792,-2.9792,-2.9792,-2.9792,-2.9792,-2.9792,-2.9792,-2.9792,-2.9792,-2.9792,-2.9792,-2.9792,-2.9792,-2.9792,-2.9792,-2.9792,-2.9792,-2.9792,-2.9792,-2.9792,-2.9792,-2.9792,-2.9792,-2.9792,-2.9792,-1.6704,-1.6808,0.0,0.0,-2.0894,0.0,0.0,0.0,0.0,0.0,0.0,0.0,0.0,0.0,0.0,0.0,0.0,0.0,0.0,0.0,0.0,0.0,0.0,0.0,0.0,0.0,0.0,0.0,0.0,0.0,-2.9792,-2.9792,-2.9792,-2.9792,-2.9792,-2.9792,-2.9792,-2.9792,-2.9792,0.0,-2.9792,-2.9792,-2.9792,-2.9792,-2.9792,-2.9792,-2.9792,-2.9792,-2.9792,-2.9792,-2.9792,-2.9792,-2.9792,-2.9792,-2.9792,-2.9792,-2.9792,-2.9792,-2.9792,-2.9792,-2.9792,-2.9792,-2.9792,-2.9792,-2.9792,-2.9792,-2.9792,-2.9792,-3.0355,-3.0895,-3.0895,-3.0895,-3.0895,-3.0895,-3.0355,-2.9792,-2.9792,-2.9792,-2.9792,-2.9792,-2.9792,-2.9792,-2.9792,-2.9792,-2.9792,-2.9792,-2.9792,-2.9792,-2.9792,-2.9792,-2.9792,-2.9792,-2.9792,-2.9792,-2.9792,-2.9792,-2.9792,-2.9792,-2.9792,-2.9792,-2.9792,-2.9792,-2.9792,-2.9792,-2.9792,-2.9792,-2.9792,-2.9792,-2.9792,-2.9792,-2.9792,-2.9792,-1.667,0.0,0.0,-2.0257,0.0,0.0,0.0,0.0,0.0,0.0,0.0,0.0,0.0,0.0,0.0,0.0,0.0,0.0,0.0,0.0,0.0,0.0,0.0,0.0,0.0,0.0,0.0,0.0,0.0,-2.9792,-2.9792,-2.9792,-2.9792,-2.9792,-2.9792,-2.9792,-2.9792,-2.9792,-2.9792,-2.9792,-2.9792,-2.9792,-2.9792,-2.9792,-2.9792,-2.9792,-2.9792,-2.9792,-2.9792,-2.9792,-2.9792,-2.9792,-2.9792,-2.9792,-2.9792,-2.9792,-3.0075,-3.0419,-2.9934,-3.0062,-3.0419,-2.9934,-2.9792,-2.9856,-3.0355,-3.0482,-3.0558,-3.0983,-3.1476,-3.1888,-3.1888,-3.1888,-3.1888,-3.1888,-3.0846,-2.9792,-2.9792,-2.9792,-2.9792,-2.9792,-2.9792,-2.9792,-2.9792,-2.9792,-2.9792,-2.9792,-2.9792,-2.9792,-2.9792,-2.9792,-2.9792,-2.9792,-2.9792,-2.9792,-2.9792,-2.9792,-2.9792,-2.9792,-2.9792,-2.9792,-2.9792,-2.9792,-2.9792,-2.9792,-2.9792,-2.9792,-2.9792,-2.9792,-2.9792,-2.9792,-2.9792,-2.9792,-1.6652,0.0,-1.9897,-2.1493,-2.2861,0.0,0.0,0.0,0.0,0.0,0.0,0.0,0.0,0.0,0.0,0.0,0.0,0.0,0.0,0.0,0.0,0.0,0.0,0.0,0.0,0.0,0.0,0.0,0.0,-2.9503,-2.9503,-2.9503,-2.9553,-2.9641,-2.9641,-2.9756,-3.0075,-3.0075,-3.0139,-3.0292,-3.0292,-3.0292,-3.0292,-3.0292,-3.0075,-2.9792,-2.9792,-2.9792,-2.9792,-2.9792,-2.9792,-2.9792,-2.9792,-2.9792,-2.9792,-2.9792,-3.0419,-3.1106,-3.0279,-3.0633,-3.1328,-3.057,-3.0292,-3.0419,-3.118,-3.1462,-3.1609,-3.2393,-3.2749,-3.282,-3.282,-3.282,-3.282,-3.282,-3.1549,-3.0216,-3.0075,-3.0075,-2.9998,-2.9869,-2.9792,-2.9792,-2.9792,-2.9792,-2.9792,-2.9792,-2.9792,-2.9792,-2.9792,-2.9792,-2.9792,-2.9792,-2.9792,-2.9792,-2.9792,-2.9792,-2.9792,-2.9792,-2.9792,-2.9792,-2.9792,-2.9792,-2.9792,-2.9792,-2.9792,-2.9792,-2.9792,-2.9792,-2.9792,-2.9792,-2.9792,-2.9792,0.0,0.0,-2.1276,0.0,0.0,0.0,0.0,0.0,0.0,0.0,0.0,0.0,0.0,0.0,0.0,0.0,0.0,0.0,0.0,0.0,0.0,0.0,0.0,0.0,0.0,0.0,0.0,0.0,-2.8285,-2.8335,-2.8335,-2.8335,-2.8549,-2.9038,-2.9038,-2.9693,-3.1031,-3.1044,-3.1389,-3.2249,-3.2249,-3.2249,-3.2249,-3.2249,-3.1341,-2.9792,-2.9792,-2.9792,-2.9792,-2.9792,-2.9792,-2.9792,-2.9792,-2.9792,-2.9792,-2.9792,-3.0419,-3.118,-3.1044,-3.1609,-3.2393,-3.2249,-3.2249,-3.2249,-3.2393,-3.2393,-3.2464,-3.2522,-3.3171,-3.3808,-3.3808,-3.3808,-3.3808,-3.3808,-3.3031,-3.196,-3.118,-3.1044,-3.0758,-2.9934,-2.9792,-2.9792,-2.9792,-2.9792,-2.9792,-2.9792,-2.9792,-2.9792,-2.9792,-2.9792,-2.9792,-2.9792,-2.9792,-2.9792,-2.9792,-2.9792,-2.9792,-2.9792,-2.9792,-2.9792,-2.9792,-2.9792,-2.9792,-2.9792,-2.9792,-2.9792,-2.9792,-2.9792,-2.9792,-2.9792,-2.9792,-2.9792,-1.9274,-2.0637,-2.17,0.0,0.0,0.0,0.0,0.0,0.0,0.0,0.0,0.0,0.0,0.0,0.0,0.0,0.0,0.0,0.0,0.0,0.0,0.0,0.0,0.0,0.0,0.0,0.0,0.0,-2.7934,-2.8109,-2.8109,-2.8109,-2.8222,-2.8461,-2.8461,-2.8992,-3.0217,-3.0217,-3.0619,-3.1461,-3.186,-3.2026,-3.204,-3.2441,-3.2177,-3.1341,-3.0846,-3.0558,-3.0558,-2.9998,-2.9792,-2.9792,-2.9792,-2.9792,-2.9792,-2.9792,-3.0709,-3.1888,-3.1389,-3.2177,-3.331,-3.2749,-3.2593,-3.2678,-3.3241,-3.338,-3.3533,-3.4056,-3.4543,-3.4839,-3.4839,-3.4839,-3.4839,-3.4839,-3.4558,-3.3891,-3.2793,-3.1987,-3.1123,-2.9984,-2.9833,-2.9771,-2.9819,-2.9792,-2.9792,-2.9792,-2.9792,-2.9792,-2.9792,-2.9792,-2.9792,-2.9792,-2.9792,-2.9792,-2.9792,-2.9792,-2.9792,-2.9792,-2.9792,-2.9792,-2.9792,-2.9792,-2.9792,-2.9792,-2.9792,-2.9792,-2.9792,-2.9792,-2.9792,-2.9792,-2.9792,-2.9792,0.0,0.0,-2.1719,0.0,0.0,0.0,0.0,0.0,0.0,0.0,0.0,0.0,0.0,0.0,0.0,0.0,0.0,0.0,0.0,0.0,0.0,0.0,0.0,0.0,0.0,0.0,0.0,0.0,-2.7657,-2.7885,-2.7682,-2.8086,-2.8221,-2.7896,-2.8303,-2.8898,-2.9717,-3.0201,-3.073,-3.1345,-3.1875,-3.2086,-3.21,-3.269,-3.3041,-3.2973,-3.1951,-3.1496,-3.1282,-3.0592,-3.0087,-2.9808,-2.9808,-2.9809,-2.9834,-2.9834,-3.0673,-3.1864,-3.1662,-3.282,-3.4259,-3.3533,-3.3325,-3.3463,-3.4177,-3.4394,-3.4543,-3.5279,-3.5504,-3.5504,-3.5504,-3.5504,-3.5504,-3.5504,-3.5504,-3.5169,-3.3854,-3.2347,-3.0972,-3.0012,-2.9779,-3.0112,-3.1055,-3.0407,-2.9884,-3.0254,-3.0036,-2.9792,-2.9792,-2.9792,-2.9792,-2.9792,-2.9792,-2.9792,-2.9792,-2.9792,-2.9792,-2.9792,-2.9792,-2.9792,-2.9792,-2.9792,-2.9792,-2.9792,-2.9792,-2.9792,-2.9792,-2.9792,-2.9792,-2.9792,-2.9792,-2.9792,0.0,-2.1091,0.0,0.0,0.0,0.0,0.0,0.0,0.0,0.0,0.0,0.0,0.0,0.0,0.0,0.0,0.0,0.0,0.0,0.0,0.0,0.0,0.0,0.0,0.0,0.0,0.0,0.0,-2.7294,-2.7374,-2.6609,-2.8079,-2.8464,-2.7377,-2.8905,-3.0019,-3.073,-3.2411,-3.33,-3.3362,-3.3391,-3.3406,-3.3421,-3.3905,-3.4113,-3.4065,-3.3014,-3.2228,-3.1684,-3.1612,-3.0918,-2.9771,-2.9771,-2.9829,-2.9776,-2.9776,-2.9861,-3.0161,-3.1949,-3.3822,-3.5424,-3.5359,-3.5359,-3.5359,-3.5439,-3.5424,-3.5424,-3.5504,-3.5504,-3.5504,-3.5504,-3.5504,-3.5504,-3.5504,-3.5504,-3.5169,-3.3854,-3.1653,-2.9887,-2.9802,-2.9802,-3.0918,-3.4612,-3.2204,-3.018,-3.1386,-3.0585,-2.9792,-2.9792,-2.9792,-2.9792,-2.9792,-2.9792,-2.9792,-2.9792,-2.9792,-2.9792,-2.9792,-2.9792,-2.9792,-2.9792,-2.9792,-2.9792,-2.9792,-2.9792,-2.9792,-2.9792,-2.9792,-2.9792,-2.9792,-2.9792,-2.9792,0.0,0.0,0.0,0.0,0.0,0.0,0.0,0.0,0.0,0.0,0.0,0.0,0.0,0.0,0.0,0.0,0.0,0.0,0.0,0.0,0.0,0.0,0.0,0.0,0.0,0.0,0.0,0.0,0.0,-2.8182,-2.7284,-2.8363,-2.878,-2.8424,-2.8998,-2.9686,-3.048,-3.1646,-3.2243,-3.2243,-3.2662,-3.2871,-3.2886,-3.3471,-3.3907,-3.4192,-3.377,-3.3833,-3.3927,-3.1496,-3.0922,-3.1741,-3.3,-3.2687,-3.1433,-3.0211,-2.9795,-3.0075,-3.1958,-3.385,-3.5504,-3.5504,-3.5504,-3.5504,-3.5504,-3.5504,-3.5504,-3.5504,-3.5504,-3.5504,-3.5504,-3.5504,-3.5504,-3.5504,-3.5504,-3.5344,-3.4927,-3.4103,-3.3489,-3.3448,-3.3435,-3.39,-3.5281,-3.2983,-3.1167,-3.1601,-3.0598,-2.9792,-2.9792,-2.9792,-2.9792,-2.9792,-2.9792,-2.9792,-2.9792,-2.9792,-2.9792,-2.9792,-2.9792,-2.9792,-2.9792,-2.9792,-2.9792,-2.9792,-2.9792,-2.9792,-2.9792,-2.9792,-2.9792,-2.9792,-2.9792,-2.9792,-2.0157,0.0,0.0,0.0,0.0,0.0,0.0,0.0,0.0,0.0,0.0,0.0,0.0,0.0,0.0,0.0,0.0,0.0,0.0,0.0,0.0,0.0,0.0,0.0,0.0,0.0,0.0,0.0,0.0,0.0,-2.8182,-2.8939,-2.9566,-2.9827,-2.9566,-2.9827,-3.0703,-3.1219,-3.1482,-3.1482,-3.1973,-3.2183,-3.2198,-3.2647,-3.2991,-3.3306,-3.3306,-3.411,-3.5332,-3.2762,-3.2452,-3.3668,-3.499,-3.4715,-3.3424,-3.2151,-3.1723,-3.1776,-3.2424,-3.3854,-3.5504,-3.5504,-3.5504,-3.5504,-3.5504,-3.5504,-3.5504,-3.5504,-3.5504,-3.5504,-3.5504,-3.5504,-3.5504,-3.5504,-3.5504,-3.5504,-3.5504,-3.5504,-3.5529,-3.5511,-3.5503,-3.5472,-3.5507,-3.3407,-3.1796,-3.1963,-3.0773,-2.9792,-2.9792,-2.9792,-2.9792,-2.9792,-2.9792,-2.9792,-2.9792,-2.9792,-2.9792,-2.9792,-2.9792,-2.9792,-2.9792,-2.9792,-2.9792,-2.9792,-2.9792,-2.9792,-2.9792,-2.9792,-2.9792,-2.9792,-2.9792,-2.9792,0.0,0.0,0.0,0.0,0.0,0.0,0.0,0.0,0.0,0.0,0.0,0.0,0.0,0.0,0.0,0.0,0.0,0.0,0.0,0.0,0.0,0.0,0.0,0.0,0.0,0.0,0.0,0.0,-2.8529,-2.9038,-2.9066,-2.9889,-3.0703,-3.1467,-3.0718,-3.0703,-3.1482,-3.1482,-3.1482,-3.1482,-3.1482,-3.1482,-3.1482,-3.1482,-3.1499,-3.1516,-3.1516,-3.2991,-3.5401,-3.5355,-3.5384,-3.5377,-3.5485,-3.5504,-3.5492,-3.5492,-3.5507,-3.5224,-3.33,-3.3935,-3.5504,-3.5504,-3.5504,-3.5504,-3.5504,-3.5504,-3.5504,-3.5504,-3.5504,-3.5504,-3.5504,-3.5504,-3.5504,-3.5504,-3.5504,-3.5504,-3.5504,-3.5504,-3.5504,-3.5504,-3.5504,-3.5504,-3.5504,-3.3428,-3.1979,-3.2552,-3.1057,-2.9869,-2.9869,-2.9792,-2.9792,-2.9792,-2.9792,-2.9792,-2.9792,-2.9792,-2.9792,-2.9792,-2.9792,-2.9792,-2.9792,-2.9792,-2.9792,-2.9792,-2.9792,-2.9792,-2.9792,-2.9792,-2.9792,-2.9792,-2.9792,-2.9792,-1.9798,0.0,0.0,0.0,0.0,0.0,0.0,0.0,0.0,0.0,0.0,0.0,0.0,0.0,0.0,0.0,0.0,0.0,0.0,0.0,0.0,0.0,0.0,0.0,0.0,0.0,0.0,0.0,-2.9311,-3.0016,-2.9936,-3.0718,-3.1278,-3.1482,-3.1278,-3.1278,-3.1482,-3.1482,-3.1482,-3.1482,-3.1482,-3.1482,-3.1482,-3.1482,-3.1511,-3.1528,-3.1528,-3.1928,-3.2615,-3.263,-3.2594,-3.2833,-3.4773,-3.547,-3.5514,-3.5514,-3.5504,-3.5391,-3.4883,-3.5029,-3.5504,-3.5504,-3.5504,-3.5504,-3.5504,-3.5504,-3.5504,-3.5504,-3.5504,-3.5504,-3.5504,-3.5504,-3.5504,-3.5504,-3.5504,-3.5504,-3.5504,-3.5504,-3.5504,-3.5504,-3.5504,-3.5504,-3.5504,-3.4321,-3.3433,-3.3587,-3.2033,-3.0833,-3.0833,-3.0203,-2.9792,-2.9792,-2.9792,-2.9792,-2.9792,-2.9792,-2.9792,-2.9792,-2.9792,-2.9792,-2.9792,-2.9792,-2.9792,-2.9792,-2.9792,-2.9792,-2.9792,-2.9792,-2.9792,-2.9792,-2.9792,-2.9792,0.0,0.0,0.0,0.0,0.0,0.0,-2.2133,-2.256,0.0,0.0,0.0,0.0,0.0,0.0,0.0,0.0,0.0,0.0,0.0,0.0,0.0,0.0,0.0,0.0,0.0,-2.7298,-2.8026,-2.8229,-2.9088,-2.968,-2.9896,-3.0881,-3.1482,-3.1482,-3.1482,-3.1482,-3.1482,-3.1482,-3.1482,-3.1482,-3.1482,-3.1482,-3.1482,-3.1482,-3.1482,-3.1482,-3.1482,-3.1482,-3.1497,-3.1516,-3.1529,-3.1659,-3.3231,-3.3802,-3.3946,-3.5102,-3.5495,-3.5469,-3.5524,-3.5504,-3.5504,-3.5504,-3.5504,-3.5504,-3.5504,-3.5504,-3.5504,-3.5504,-3.5504,-3.5504,-3.5504,-3.5504,-3.5504,-3.5504,-3.5504,-3.5504,-3.5504,-3.5504,-3.5504,-3.5504,-3.5504,-3.5504,-3.5504,-3.4691,-3.4027,-3.4027,-3.2749,-3.1742,-3.1742,-3.1341,-3.0996,-3.0996,-3.0996,-3.0771,-3.0419,-3.0419,-3.0203,-2.9792,-2.9792,-2.9792,-2.9792,-2.9792,-2.9792,-2.9792,-2.9792,-2.9792,-2.9792,-2.9792,-2.9792,-2.9792,-2.9792,-2.9792,0.0,0.0,0.0,0.0,0.0,0.0,-2.1983,-2.2317,-2.2576,0.0,0.0,0.0,0.0,0.0,0.0,0.0,0.0,0.0,0.0,0.0,0.0,0.0,0.0,0.0,-2.5242,-2.6596,-2.7715,-2.8182,-2.8353,-2.8684,-2.932,-3.0629,-3.1362,-3.1362,-3.1437,-3.1482,-3.1482,-3.1482,-3.1482,-3.1482,-3.1482,-3.1482,-3.1482,-3.1482,-3.1482,-3.1482,-3.1482,-3.1482,-3.1482,-3.1482,-3.1499,-3.1471,-3.1471,-3.1514,-3.1757,-3.4175,-3.5165,-3.5332,-3.5454,-3.5524,-3.5524,-3.5489,-3.5504,-3.5504,-3.5504,-3.5504,-3.5504,-3.5504,-3.5504,-3.5504,-3.5504,-3.5504,-3.5504,-3.5504,-3.5504,-3.5504,-3.5504,-3.5504,-3.5504,-3.5504,-3.5504,-3.5504,-3.5504,-3.4758,-3.4177,-3.4177,-3.338,-3.2749,-3.2749,-3.2664,-3.2593,-3.2593,-3.2593,-3.2249,-3.1241,-3.118,-3.0833,-2.9869,-2.9792,-2.9792,-2.9792,-2.9792,-2.9792,-2.9792,-2.9792,-2.9792,-2.9792,-2.9792,-2.9792,-2.9792,-2.9792,-2.9792,0.0,0.0,0.0,0.0,0.0,0.0,-2.1493,-2.2467,-2.3328,0.0,0.0,0.0,0.0,0.0,0.0,0.0,0.0,0.0,0.0,0.0,0.0,0.0,0.0,0.0,-2.6238,-2.7053,-2.7594,-2.7631,-2.8693,-2.9391,-2.9525,-3.0246,-3.0717,-3.0717,-3.124,-3.1482,-3.1482,-3.1482,-3.1482,-3.1482,-3.1482,-3.1482,-3.1482,-3.1482,-3.1482,-3.1482,-3.1482,-3.1482,-3.1482,-3.1482,-3.1511,-3.1498,-3.1498,-3.1486,-3.1574,-3.2109,-3.2959,-3.4042,-3.5163,-3.548,-3.551,-3.5494,-3.5504,-3.5504,-3.5504,-3.5504,-3.5504,-3.5504,-3.5504,-3.5504,-3.5504,-3.5504,-3.5504,-3.5504,-3.5504,-3.5504,-3.5504,-3.5504,-3.5504,-3.5504,-3.5504,-3.5504,-3.5504,-3.5359,-3.5213,-3.5213,-3.4394,-3.3739,-3.3739,-3.3101,-3.2593,-3.2593,-3.2593,-3.2249,-3.1241,-3.118,-3.0833,-2.9869,-2.9792,-2.9792,-2.9792,-2.9792,-2.9792,-2.9792,-2.9792,-2.9792,-2.9792,-2.9792,-2.9792,-2.9792,-2.9792,-2.9792,0.0,0.0,0.0,-2.0295,0.0,0.0,0.0,-2.2762,-2.3649,0.0,0.0,0.0,0.0,0.0,0.0,0.0,0.0,0.0,0.0,0.0,0.0,0.0,0.0,0.0,-2.651,-2.7152,-2.7607,-2.7542,-2.8538,-2.9086,-2.9086,-2.9699,-3.0043,-3.0043,-3.0672,-3.1016,-3.1016,-3.1302,-3.1482,-3.1482,-3.1482,-3.1482,-3.1482,-3.1482,-3.1482,-3.1482,-3.1482,-3.1482,-3.1482,-3.1482,-3.1482,-3.1482,-3.1482,-3.1498,-3.1515,-3.1531,-3.1915,-3.263,-3.3285,-3.4355,-3.5468,-3.5492,-3.5514,-3.5504,-3.5504,-3.5504,-3.5504,-3.5504,-3.5504,-3.5504,-3.5504,-3.5504,-3.5504,-3.5504,-3.5504,-3.5504,-3.5504,-3.5504,-3.5504,-3.5504,-3.5504,-3.5504,-3.5504,-3.5504,-3.5504,-3.5504,-3.5067,-3.4758,-3.4758,-3.4341,-3.4056,-3.4056,-3.3602,-3.289,-3.196,-3.1462,-3.0833,-2.9869,-2.9792,-2.9792,-2.9792,-2.9792,-2.9792,-2.9792,-2.9792,-2.9792,-2.9792,-2.9792,-2.9792,-2.9792,-2.9792,-2.9792,0.0,0.0,0.0,0.0,0.0,-2.2034,0.0,0.0,0.0,-2.4622,0.0,0.0,0.0,0.0,0.0,0.0,0.0,0.0,0.0,0.0,0.0,0.0,0.0,0.0,0.0,-2.7255,-2.7625,-2.7625,-2.8083,-2.8412,-2.8412,-2.9026,-2.94,-2.94,-2.9998,-3.0328,-3.0328,-3.1001,-3.1345,-3.1345,-3.1407,-3.1482,-3.1482,-3.1482,-3.1482,-3.1482,-3.1482,-3.1482,-3.1482,-3.1482,-3.1482,-3.1482,-3.1482,-3.1482,-3.1497,-3.1486,-3.1501,-3.1486,-3.1511,-3.2909,-3.4846,-3.5316,-3.5522,-3.5504,-3.5504,-3.5504,-3.5504,-3.5504,-3.5504,-3.5504,-3.5504,-3.5504,-3.5504,-3.5504,-3.5504,-3.5504,-3.5504,-3.5504,-3.5504,-3.5504,-3.5504,-3.5504,-3.5504,-3.5504,-3.5504,-3.5504,-3.5504,-3.5504,-3.5504,-3.5504,-3.5504,-3.5504,-3.4758,-3.3822,-3.2678,-3.1888,-3.0983,-2.9869,-2.9792,-2.9792,-2.9792,-2.9792,-2.9792,-2.9792,-2.9792,-2.9792,-2.9792,-2.9792,-2.9792,-2.9792,-2.9792,-2.9792,0.0,0.0,0.0,0.0,-2.2076,0.0,0.0,0.0,-2.5515,-2.614,0.0,0.0,0.0,0.0,0.0,0.0,0.0,0.0,0.0,0.0,0.0,0.0,0.0,0.0,0.0,-2.756,-2.7625,-2.7625,-2.7685,-2.7679,-2.7679,-2.8338,-2.8712,-2.8712,-2.934,-2.9684,-2.9684,-3.0313,-3.0612,-3.0627,-3.124,-3.1482,-3.1482,-3.1482,-3.1482,-3.1482,-3.1482,-3.1482,-3.1482,-3.1482,-3.1482,-3.1482,-3.1482,-3.1482,-3.1482,-3.1511,-3.1526,-3.1498,-3.1531,-3.1693,-3.2362,-3.4708,-3.5522,-3.5504,-3.5504,-3.5504,-3.5504,-3.5504,-3.5504,-3.5504,-3.5504,-3.5504,-3.5504,-3.5504,-3.5504,-3.5504,-3.5504,-3.5504,-3.5504,-3.5504,-3.5504,-3.5504,-3.5504,-3.5504,-3.5504,-3.5504,-3.5504,-3.5504,-3.5504,-3.5504,-3.5504,-3.5504,-3.5424,-3.4558,-3.2749,-3.2536,-3.1696,-2.9934,-2.9792,-2.9792,-2.9792,-2.9792,-2.9792,-2.9792,-2.9792,-2.9792,-2.9792,-2.9792,-2.9792,-2.9792,-2.9792,-2.9792,0.0,0.0,0.0,0.0,0.0,0.0,-2.4631,0.0,-2.6241,0.0,0.0,0.0,0.0,0.0,0.0,0.0,-2.7445,0.0,0.0,0.0,0.0,0.0,0.0,0.0,0.0,0.0,0.0,0.0,-2.7625,-2.7625,-2.7625,-2.7844,-2.8008,-2.8008,-2.8667,-2.9011,-2.9011,-2.9654,-2.9968,-2.9983,-3.102,-3.1513,-3.1513,-3.1507,-3.1482,-3.1482,-3.1482,-3.1482,-3.1482,-3.1482,-3.1482,-3.1482,-3.1482,-3.1482,-3.1482,-3.1482,-3.1482,-3.1497,-3.1485,-3.1516,-3.1915,-3.4633,-3.5465,-3.5473,-3.5509,-3.5504,-3.5504,-3.5504,-3.5504,-3.5504,-3.5504,-3.5504,-3.5504,-3.5504,-3.5504,-3.5504,-3.5504,-3.5504,-3.5504,-3.5504,-3.5504,-3.5504,-3.5504,-3.5504,-3.5504,-3.5504,-3.5504,-3.5504,-3.5504,-3.5504,-3.5504,-3.5504,-3.4986,-3.4327,-3.3449,-3.289,-3.2033,-3.0696,-3.0075,-2.9792,-2.9792,-3.0355,-3.0343,-2.9792,-3.0846,-3.0921,-2.9792,-3.0343,-3.0355,-2.9792,-2.9792,-2.9792,-2.4369,0.0,0.0,0.0,0.0,0.0,0.0,0.0,0.0,0.0,0.0,0.0,0.0,0.0,0.0,-2.7385,0.0,-2.7565,0.0,0.0,0.0,0.0,0.0,0.0,0.0,0.0,0.0,0.0,0.0,-2.7625,-2.7625,-2.7625,-2.7625,-2.7625,-2.8053,-2.8323,-2.8323,-2.8981,-2.931,-2.9325,-3.0458,-3.1182,-3.1506,-3.1513,-3.1519,-3.1477,-3.1495,-3.1482,-3.1482,-3.1482,-3.1482,-3.1482,-3.1482,-3.1482,-3.1482,-3.1482,-3.1482,-3.1482,-3.1482,-3.1471,-3.1827,-3.377,-3.4906,-3.5483,-3.5518,-3.5509,-3.5504,-3.5504,-3.5504,-3.5504,-3.5504,-3.5504,-3.5504,-3.5504,-3.5504,-3.5504,-3.5504,-3.5504,-3.5504,-3.5504,-3.5504,-3.5504,-3.5504,-3.5504,-3.5504,-3.5504,-3.5504,-3.5504,-3.5504,-3.5504,-3.5504,-3.5504,-3.4839,-3.4312,-3.4027,-3.338,-3.2593,-3.1683,-3.0908,-3.0419,-3.0216,-3.0833,-3.0758,-2.9792,-3.1132,-3.1132,-2.9792,-3.0482,-3.0495,-2.9792,-2.9792,-2.9792,0.0,0.0,0.0,-2.5553,0.0,0.0,0.0,0.0,-2.7545,0.0,0.0,0.0,0.0,0.0,-2.7415,-2.6722,-2.7156,0.0,0.0,0.0,0.0,0.0,0.0,0.0,0.0,0.0,0.0,0.0,-2.7625,-2.7625,-2.7625,-2.7625,-2.7625,-2.7625,-2.764,-2.7655,-2.7655,-2.8293,-2.8637,-2.8637,-2.931,-3.0286,-3.1505,-3.149,-3.15,-3.1516,-3.1519,-3.1482,-3.1482,-3.1482,-3.1482,-3.1482,-3.1482,-3.1482,-3.1482,-3.1482,-3.1482,-3.1482,-3.1482,-3.1471,-3.153,-3.1589,-3.3395,-3.5516,-3.5516,-3.5473,-3.5504,-3.5504,-3.5504,-3.5504,-3.5504,-3.5504,-3.5504,-3.5504,-3.5504,-3.5504,-3.5504,-3.5504,-3.5504,-3.5504,-3.5504,-3.5504,-3.5504,-3.5504,-3.5504,-3.5504,-3.5504,-3.5504,-3.5504,-3.5504,-3.5504,-3.5504,-3.5439,-3.5067,-3.4095,-3.3959,-3.3518,-3.2593,-3.2536,-3.2105,-3.118,-3.118,-3.0758,-2.9792,-2.9869,-2.9869,-2.9792,-2.9869,-2.9869,-2.9792,-2.9792,-2.9792,0.0,0.0,-2.6901,-2.6901,0.0,0.0,0.0,0.0,0.0,0.0,0.0,0.0,0.0,-2.7625,-2.755,-2.7275,-2.7475,-2.755,0.0,0.0,0.0,0.0,0.0,0.0,0.0,0.0,0.0,0.0,-2.7625,-2.7625,-2.7625,-2.7625,-2.7625,-2.7625,-2.7625,-2.7625,-2.7625,-2.7799,-2.7919,-2.7919,-2.8181,-2.8524,-2.8936,-2.8936,-2.9844,-3.15,-3.1479,-3.1516,-3.1482,-3.1482,-3.1482,-3.1482,-3.1482,-3.1482,-3.1482,-3.1482,-3.1482,-3.1482,-3.1482,-3.1483,-3.1529,-3.1516,-3.2109,-3.3184,-3.4951,-3.5513,-3.5507,-3.5509,-3.5504,-3.5504,-3.5504,-3.5504,-3.5504,-3.5504,-3.5504,-3.5504,-3.5504,-3.5504,-3.5504,-3.5504,-3.5504,-3.5504,-3.5504,-3.5504,-3.5504,-3.5504,-3.5504,-3.5504,-3.5504,-3.5504,-3.5504,-3.5504,-3.5504,-3.5359,-3.4986,-3.4394,-3.3876,-3.3518,-3.2961,-3.2464,-3.2177,-3.2105,-3.196,-3.1696,-3.2263,-3.1974,-3.0696,-3.1328,-3.0983,-2.9792,-2.9792,-2.9792,-2.786,-2.7894,0.0,-2.766,-2.776,0.0,-2.766,0.0,0.0,0.0,0.0,0.0,0.0,0.0,-2.7675,-2.791,-2.776,-2.7625,0.0,-2.7625,0.0,0.0,0.0,0.0,0.0,0.0,0.0,-2.7625,-2.7625,-2.7625,-2.7625,0.0,-2.7625,-2.7625,-2.7625,-2.7625,-2.7625,-2.7625,-2.7625,-2.7625,-2.7616,-2.7602,-2.7617,-2.7568,-2.8532,-3.0123,-3.0609,-3.096,-3.1165,-3.1165,-3.1258,-3.1482,-3.1482,-3.1482,-3.1482,-3.1482,-3.1482,-3.1482,-3.1482,-3.1482,-3.1511,-3.15,-3.1501,-3.1827,-3.3529,-3.471,-3.5503,-3.5522,-3.5484,-3.5499,-3.5474,-3.5504,-3.5504,-3.5504,-3.5504,-3.5504,-3.5504,-3.5504,-3.5504,-3.5504,-3.5504,-3.5504,-3.5504,-3.5504,-3.5504,-3.5504,-3.5504,-3.5504,-3.5504,-3.5504,-3.5504,-3.5504,-3.5504,-3.5504,-3.5504,-3.4905,-3.4543,-3.4543,-3.3973,-3.3463,-3.3101,-3.3101,-3.2961,-3.2593,-3.3171,-3.289,-3.1669,-3.2321,-3.1974,-3.0784,-3.0784,-3.0784]},{"header":{"parameterUnit":"m.s-1","parameterCategory":1,"la1":30.6,"la2":29.2853,"lo1":-89.7004,"lo2":-87.6739,"dy":0.0162,"dx":0.0183,"nx":112,"ny":82,"refTime":"2023-06-03T12:00:00:Z","depth":0,"parameterNumber":3,"parameterNumberName":"V-component_of_WINDS"},"data":[0.0,0.0,0.0,0.0,0.0,0.0,0.0,0.0,0.0,0.0,0.0,0.0,0.0,0.0,0.0,0.0,0.0,0.0,0.0,0.0,0.0,0.0,0.0,0.0,0.0,0.0,0.0,0.0,0.0,0.0,0.0,0.0,0.0,0.0,0.0,0.0,0.0,0.0,0.0,0.0,0.0,0.0,0.0,0.0,0.0,0.0,0.0,0.0,0.0,0.0,0.0,0.0,0.0,0.0,0.0,0.0,0.0,0.0,0.0,0.0,0.0,0.0,0.0,0.0,0.0,0.0,0.0,0.0,0.0,0.0,0.0,0.0,0.0,0.0,0.0,0.0,0.0,0.0,0.0,0.0,0.0,0.0,0.0,0.0,0.0,0.0,0.0,0.0,0.0,0.0,0.0,-2.5495,-2.63,-2.6756,-2.6713,-2.6004,-2.5511,-2.5322,0.0,0.0,0.0,0.0,0.0,0.0,0.0,0.0,0.0,0.0,0.0,0.0,0.0,0.0,0.0,0.0,0.0,0.0,0.0,0.0,0.0,0.0,0.0,0.0,0.0,0.0,0.0,0.0,0.0,0.0,0.0,0.0,0.0,0.0,0.0,0.0,0.0,0.0,0.0,0.0,0.0,0.0,0.0,0.0,0.0,0.0,0.0,0.0,0.0,0.0,0.0,0.0,0.0,0.0,0.0,0.0,0.0,0.0,0.0,0.0,0.0,0.0,0.0,0.0,0.0,0.0,0.0,0.0,0.0,0.0,0.0,0.0,0.0,0.0,0.0,0.0,0.0,0.0,0.0,0.0,0.0,0.0,0.0,0.0,0.0,0.0,0.0,0.0,0.0,0.0,0.0,0.0,0.0,0.0,0.0,0.0,0.0,0.0,0.0,0.0,0.0,0.0,0.0,0.0,-2.4777,-2.6264,-2.7145,-2.7474,-2.7121,-2.668,-2.5972,-2.496,0.0,0.0,0.0,0.0,0.0,0.0,0.0,0.0,0.0,0.0,0.0,0.0,0.0,0.0,0.0,0.0,0.0,0.0,0.0,0.0,0.0,0.0,0.0,0.0,0.0,0.0,0.0,0.0,0.0,0.0,0.0,0.0,0.0,0.0,0.0,0.0,0.0,0.0,0.0,0.0,0.0,0.0,0.0,0.0,0.0,0.0,0.0,0.0,0.0,0.0,0.0,0.0,0.0,0.0,0.0,0.0,0.0,0.0,0.0,0.0,0.0,0.0,0.0,0.0,0.0,0.0,0.0,0.0,0.0,0.0,0.0,0.0,0.0,0.0,0.0,0.0,0.0,0.0,0.0,0.0,0.0,0.0,0.0,0.0,0.0,0.0,0.0,0.0,0.0,0.0,0.0,0.0,0.0,0.0,0.0,0.0,0.0,0.0,0.0,0.0,0.0,0.0,0.0,-2.5878,-2.6429,-2.7163,-2.797,-2.8379,-2.8184,-2.7606,-2.7006,-2.6449,-2.5832,0.0,0.0,0.0,0.0,0.0,0.0,0.0,0.0,0.0,0.0,0.0,0.0,0.0,0.0,0.0,0.0,0.0,0.0,0.0,0.0,0.0,0.0,0.0,0.0,0.0,0.0,0.0,0.0,0.0,0.0,0.0,0.0,0.0,0.0,0.0,0.0,0.0,0.0,0.0,0.0,0.0,0.0,0.0,0.0,0.0,0.0,0.0,0.0,0.0,0.0,0.0,0.0,0.0,0.0,0.0,0.0,0.0,0.0,0.0,0.0,0.0,0.0,0.0,0.0,0.0,0.0,0.0,0.0,0.0,0.0,0.0,0.0,0.0,0.0,0.0,0.0,0.0,0.0,0.0,0.0,0.0,0.0,0.0,0.0,0.0,0.0,0.0,0.0,0.0,0.0,0.0,0.0,0.0,0.0,0.0,0.0,0.0,0.0,0.0,0.0,0.0,0.0,-2.7291,-2.7787,-2.7787,-2.8434,-2.8815,-2.8743,-2.7997,-2.7541,-2.7541,-2.6863,0.0,0.0,0.0,0.0,0.0,0.0,0.0,0.0,0.0,0.0,0.0,0.0,0.0,0.0,0.0,0.0,0.0,0.0,0.0,0.0,0.0,0.0,0.0,0.0,0.0,0.0,0.0,0.0,0.0,0.0,0.0,0.0,0.0,0.0,0.0,0.0,0.0,0.0,0.0,0.0,0.0,0.0,0.0,0.0,0.0,0.0,0.0,0.0,0.0,0.0,0.0,0.0,0.0,0.0,0.0,0.0,0.0,0.0,0.0,0.0,0.0,0.0,0.0,0.0,0.0,0.0,0.0,0.0,0.0,0.0,0.0,0.0,0.0,0.0,0.0,0.0,0.0,0.0,0.0,0.0,0.0,0.0,0.0,0.0,0.0,0.0,0.0,0.0,0.0,0.0,0.0,0.0,0.0,0.0,0.0,0.0,0.0,0.0,0.0,0.0,0.0,0.0,-2.7291,-2.7787,-2.7787,-2.8185,-2.8316,-2.801,-2.7244,-2.6774,-2.6774,-2.6294,0.0,0.0,0.0,0.0,0.0,0.0,0.0,0.0,0.0,0.0,0.0,0.0,0.0,0.0,0.0,0.0,0.0,0.0,0.0,0.0,0.0,0.0,0.0,0.0,0.0,0.0,0.0,0.0,0.0,0.0,0.0,0.0,0.0,0.0,0.0,0.0,0.0,0.0,0.0,0.0,0.0,0.0,0.0,0.0,0.0,0.0,0.0,0.0,0.0,0.0,0.0,0.0,0.0,0.0,0.0,0.0,0.0,0.0,0.0,0.0,0.0,0.0,0.0,0.0,0.0,0.0,0.0,0.0,0.0,0.0,0.0,0.0,0.0,0.0,0.0,0.0,0.0,0.0,0.0,0.0,0.0,0.0,0.0,0.0,0.0,0.0,0.0,0.0,0.0,0.0,0.0,0.0,0.0,0.0,0.0,0.0,0.0,0.0,0.0,0.0,0.0,0.0,-2.8374,-2.8558,0.0,-2.868,-2.8633,-2.8237,-2.7942,-2.7762,-2.7762,0.0,0.0,0.0,0.0,0.0,0.0,0.0,0.0,0.0,0.0,0.0,0.0,0.0,0.0,0.0,0.0,0.0,0.0,0.0,0.0,0.0,0.0,0.0,0.0,0.0,0.0,0.0,0.0,0.0,0.0,0.0,0.0,0.0,0.0,0.0,0.0,0.0,0.0,0.0,0.0,0.0,0.0,0.0,0.0,0.0,0.0,0.0,0.0,0.0,0.0,0.0,0.0,0.0,0.0,0.0,0.0,0.0,0.0,0.0,0.0,0.0,0.0,0.0,0.0,0.0,0.0,0.0,0.0,0.0,0.0,0.0,0.0,0.0,0.0,0.0,0.0,0.0,0.0,0.0,0.0,0.0,0.0,0.0,0.0,0.0,0.0,0.0,0.0,0.0,0.0,0.0,0.0,0.0,0.0,0.0,0.0,0.0,0.0,0.0,0.0,0.0,0.0,-2.8766,-2.8815,-2.8858,0.0,-2.8677,-2.845,-2.8396,-2.8071,-2.7901,-2.8057,0.0,0.0,0.0,0.0,0.0,0.0,0.0,0.0,0.0,0.0,0.0,0.0,0.0,0.0,0.0,0.0,0.0,0.0,0.0,0.0,0.0,0.0,0.0,0.0,0.0,0.0,0.0,0.0,0.0,0.0,0.0,0.0,0.0,0.0,0.0,0.0,0.0,0.0,0.0,0.0,0.0,0.0,0.0,0.0,0.0,0.0,0.0,0.0,0.0,0.0,0.0,0.0,0.0,0.0,0.0,0.0,0.0,0.0,0.0,0.0,0.0,0.0,0.0,0.0,0.0,0.0,0.0,0.0,0.0,0.0,0.0,0.0,0.0,0.0,0.0,0.0,0.0,0.0,0.0,0.0,0.0,0.0,0.0,0.0,0.0,0.0,0.0,0.0,0.0,0.0,0.0,0.0,0.0,0.0,0.0,0.0,0.0,0.0,0.0,0.0,0.0,0.0,-2.8446,-2.8394,-2.8569,-2.8942,-2.8002,-2.7632,-2.8345,-2.7383,-2.6891,0.0,0.0,0.0,0.0,0.0,0.0,0.0,0.0,0.0,0.0,0.0,0.0,0.0,0.0,0.0,0.0,0.0,0.0,0.0,0.0,0.0,0.0,0.0,0.0,0.0,0.0,0.0,0.0,0.0,0.0,0.0,0.0,0.0,0.0,0.0,0.0,0.0,0.0,0.0,0.0,0.0,0.0,0.0,0.0,0.0,0.0,0.0,0.0,0.0,0.0,0.0,0.0,0.0,0.0,0.0,0.0,0.0,0.0,0.0,0.0,0.0,0.0,0.0,0.0,0.0,0.0,0.0,0.0,0.0,0.0,0.0,0.0,0.0,0.0,0.0,0.0,0.0,0.0,0.0,0.0,0.0,0.0,0.0,0.0,0.0,0.0,0.0,0.0,0.0,0.0,0.0,0.0,0.0,0.0,0.0,0.0,0.0,0.0,0.0,0.0,0.0,0.0,0.0,-2.842,-2.8649,-2.887,-2.8983,-2.9162,-2.9033,-2.8432,-2.8077,-2.7732,-2.7338,0.0,0.0,0.0,0.0,0.0,0.0,0.0,0.0,0.0,0.0,0.0,0.0,0.0,0.0,0.0,0.0,0.0,0.0,0.0,0.0,0.0,0.0,0.0,0.0,0.0,0.0,0.0,0.0,0.0,0.0,0.0,0.0,0.0,0.0,0.0,0.0,0.0,0.0,0.0,0.0,0.0,0.0,0.0,0.0,0.0,0.0,0.0,0.0,0.0,0.0,0.0,0.0,0.0,0.0,0.0,0.0,0.0,0.0,0.0,0.0,0.0,0.0,0.0,0.0,0.0,0.0,0.0,0.0,0.0,0.0,0.0,0.0,0.0,0.0,0.0,0.0,0.0,0.0,0.0,0.0,0.0,0.0,0.0,0.0,0.0,0.0,0.0,0.0,0.0,0.0,0.0,0.0,0.0,0.0,0.0,0.0,0.0,0.0,0.0,0.0,0.0,0.0,-2.9106,-2.9177,-2.9243,-2.9412,-2.9553,-2.9504,-2.9093,-2.8819,-2.8442,-2.8012,0.0,0.0,0.0,0.0,0.0,0.0,0.0,0.0,0.0,0.0,0.0,0.0,0.0,0.0,0.0,0.0,0.0,0.0,0.0,0.0,0.0,0.0,0.0,0.0,0.0,0.0,0.0,0.0,0.0,0.0,0.0,0.0,0.0,0.0,0.0,0.0,0.0,0.0,0.0,0.0,0.0,0.0,0.0,0.0,0.0,0.0,0.0,0.0,0.0,0.0,0.0,0.0,0.0,0.0,0.0,0.0,0.0,0.0,0.0,0.0,0.0,0.0,0.0,0.0,0.0,0.0,0.0,0.0,0.0,0.0,0.0,0.0,0.0,0.0,0.0,0.0,0.0,0.0,0.0,0.0,0.0,0.0,0.0,0.0,0.0,0.0,0.0,0.0,0.0,0.0,0.0,0.0,0.0,0.0,0.0,0.0,0.0,0.0,0.0,0.0,0.0,0.0,-3.014,-2.9824,-2.9694,-3.0061,-2.955,-2.9431,-3.004,-2.9502,-2.9079,-2.9011,0.0,0.0,0.0,0.0,0.0,0.0,0.0,0.0,0.0,0.0,0.0,0.0,0.0,0.0,0.0,0.0,0.0,0.0,0.0,0.0,0.0,0.0,0.0,0.0,0.0,0.0,0.0,0.0,0.0,0.0,0.0,0.0,0.0,0.0,0.0,0.0,0.0,0.0,0.0,0.0,0.0,0.0,0.0,0.0,0.0,0.0,0.0,0.0,0.0,0.0,0.0,0.0,0.0,0.0,0.0,0.0,0.0,0.0,0.0,0.0,-2.4339,0.0,0.0,0.0,0.0,0.0,0.0,0.0,0.0,0.0,0.0,0.0,0.0,0.0,0.0,0.0,0.0,0.0,0.0,0.0,0.0,0.0,0.0,0.0,0.0,0.0,0.0,0.0,0.0,0.0,0.0,0.0,0.0,0.0,0.0,0.0,0.0,0.0,0.0,0.0,0.0,0.0,-3.0181,-3.0058,-3.0017,-3.0091,-3.048,-3.0569,-3.0133,-2.9966,-2.9624,-2.9045,-2.9011,0.0,0.0,0.0,0.0,0.0,0.0,0.0,0.0,0.0,0.0,0.0,0.0,0.0,0.0,0.0,0.0,0.0,0.0,0.0,0.0,0.0,0.0,0.0,0.0,0.0,0.0,0.0,0.0,0.0,0.0,0.0,0.0,0.0,0.0,0.0,0.0,0.0,0.0,0.0,0.0,0.0,0.0,0.0,0.0,0.0,0.0,0.0,0.0,0.0,0.0,0.0,0.0,0.0,0.0,0.0,0.0,0.0,0.0,0.0,0.0,-2.4551,0.0,0.0,0.0,0.0,0.0,0.0,0.0,0.0,0.0,0.0,0.0,0.0,0.0,0.0,0.0,0.0,0.0,0.0,0.0,0.0,0.0,0.0,0.0,0.0,0.0,0.0,0.0,0.0,0.0,0.0,0.0,0.0,0.0,0.0,0.0,0.0,0.0,0.0,0.0,0.0,-3.1246,-3.0903,-3.0632,-3.0632,-3.097,-3.106,-3.0675,-3.0641,-3.0451,-3.0057,-3.004,0.0,0.0,0.0,0.0,0.0,0.0,0.0,0.0,0.0,0.0,0.0,0.0,0.0,0.0,0.0,0.0,0.0,0.0,0.0,0.0,0.0,0.0,0.0,0.0,0.0,0.0,0.0,0.0,0.0,0.0,0.0,0.0,0.0,0.0,0.0,0.0,0.0,0.0,0.0,0.0,0.0,0.0,0.0,0.0,0.0,0.0,0.0,0.0,0.0,0.0,0.0,0.0,0.0,-2.8724,-2.8955,-2.8971,-2.8606,-2.8241,-2.7935,-2.6917,-2.6234,-2.5797,0.0,0.0,0.0,0.0,0.0,0.0,0.0,0.0,0.0,0.0,0.0,0.0,0.0,0.0,0.0,0.0,0.0,0.0,0.0,0.0,0.0,0.0,0.0,0.0,0.0,-2.8604,-2.8946,0.0,0.0,0.0,0.0,0.0,0.0,0.0,0.0,0.0,0.0,0.0,0.0,-3.2228,-3.1694,-3.119,-3.119,-3.119,-3.119,-3.119,-3.119,-3.119,-3.119,-3.119,-3.119,0.0,0.0,0.0,0.0,0.0,0.0,0.0,0.0,0.0,0.0,0.0,0.0,0.0,0.0,0.0,0.0,0.0,0.0,0.0,0.0,0.0,0.0,0.0,0.0,0.0,0.0,0.0,0.0,0.0,0.0,0.0,0.0,-2.4883,-2.4986,0.0,0.0,0.0,0.0,0.0,0.0,0.0,0.0,0.0,0.0,0.0,0.0,0.0,-2.8754,-2.8732,-2.9522,-3.0063,-3.0332,-3.1078,-3.1541,-3.1767,-3.1411,-3.1216,-3.1181,-3.068,0.0,-2.6978,-2.6978,0.0,0.0,0.0,0.0,0.0,0.0,0.0,0.0,0.0,0.0,0.0,0.0,0.0,0.0,0.0,0.0,0.0,0.0,0.0,0.0,0.0,0.0,-2.9343,-2.9294,-2.9145,-2.9075,0.0,-2.96,-2.9872,-3.0082,-3.007,0.0,0.0,0.0,0.0,0.0,0.0,0.0,-3.188,-3.1487,-3.119,-3.119,-3.119,-3.119,-3.119,-3.119,-3.119,-3.119,-3.119,-3.119,-3.119,-3.1123,0.0,0.0,0.0,0.0,0.0,0.0,0.0,0.0,0.0,0.0,0.0,0.0,0.0,0.0,0.0,0.0,0.0,0.0,0.0,0.0,0.0,0.0,0.0,0.0,0.0,0.0,0.0,0.0,0.0,-2.5289,-2.5551,-2.542,-2.5891,-2.6178,0.0,0.0,0.0,0.0,0.0,0.0,0.0,0.0,0.0,-2.9806,-3.0789,-3.1293,-3.1293,-3.2119,-3.2567,-3.2733,-3.3684,-3.4197,-3.4323,-3.4059,-3.3953,-3.3877,-3.3303,-3.2371,-3.1151,-2.9517,-2.9042,-2.9269,0.0,0.0,0.0,0.0,-2.822,-2.8094,-2.8094,-2.8094,0.0,-2.85,0.0,0.0,0.0,0.0,0.0,0.0,0.0,0.0,0.0,0.0,-3.0058,-2.9862,-3.036,-3.0896,-3.1052,-3.1222,-3.1236,0.0,-3.058,-3.0826,-3.2072,0.0,0.0,0.0,0.0,0.0,-3.1757,-3.1823,-3.1822,-3.1822,-3.2173,-3.2281,-3.1839,-3.1822,-3.1647,-3.1224,-3.119,-3.119,-3.119,-3.119,-3.119,0.0,0.0,0.0,0.0,0.0,0.0,0.0,0.0,0.0,0.0,0.0,0.0,0.0,0.0,0.0,0.0,0.0,0.0,0.0,0.0,0.0,0.0,0.0,0.0,0.0,0.0,0.0,0.0,-2.5937,-2.6312,-2.6302,-2.6969,-2.7436,0.0,0.0,0.0,0.0,0.0,0.0,-3.0191,-3.1568,-3.2412,-3.2651,-3.3531,-3.4083,-3.4312,-3.4778,-3.5039,-3.5099,-3.5911,-3.6334,-3.6404,-3.6249,-3.6197,-3.618,-3.5605,-3.5368,-3.5131,-3.2171,-3.1096,-3.1242,-3.0628,-3.0473,-3.0642,-3.0567,-3.0447,-3.0381,-3.0381,-3.0381,-3.0381,-3.0381,0.0,-3.0545,-3.0642,0.0,0.0,0.0,0.0,-3.1042,-3.0593,-3.0915,-3.1253,-3.0997,-3.1782,-3.256,-3.256,-3.256,-3.2395,0.0,-3.115,-3.1167,-3.2142,0.0,0.0,0.0,0.0,-3.1666,-3.2137,-3.2431,-3.2598,-3.2598,-3.3066,-3.3172,-3.2642,-3.2587,-3.2264,-3.1523,-3.1489,-3.1382,-3.1207,-3.119,-3.119,-3.119,0.0,0.0,0.0,0.0,0.0,0.0,0.0,0.0,0.0,0.0,0.0,0.0,0.0,0.0,0.0,0.0,0.0,0.0,0.0,0.0,0.0,0.0,0.0,0.0,0.0,0.0,0.0,0.0,0.0,-2.7883,-2.8014,0.0,0.0,0.0,0.0,-3.117,-3.1935,-3.2724,-3.3513,-3.4376,-3.522,-3.6028,-3.6304,-3.68,-3.7538,-3.7109,-3.6978,-3.7257,-3.7301,-3.7487,-3.7814,-3.777,-3.7787,-3.7787,-3.7753,-3.7736,-3.7499,-3.4489,-3.3237,-3.3236,-3.2874,-3.2505,-3.2139,-3.1829,-3.1459,-3.115,-3.115,-3.115,-3.115,-3.115,-3.1401,-3.1773,-3.2108,-3.272,0.0,0.0,-3.3329,-3.3783,-3.3335,-3.3245,-3.3237,-3.3237,-3.3305,-3.3339,-3.3339,-3.3339,-3.3119,0.0,-3.1676,-3.13,-3.1752,0.0,-3.1619,-3.2791,-3.2565,-3.2491,-3.3218,-3.3304,-3.3338,-3.3338,-3.3389,-3.3389,-3.3373,-3.3328,-3.3032,-3.2275,-3.2264,-3.1947,-3.1224,-3.119,-3.119,-3.119,-3.119,0.0,0.0,0.0,0.0,0.0,0.0,0.0,0.0,0.0,0.0,0.0,0.0,0.0,0.0,0.0,0.0,0.0,0.0,0.0,0.0,0.0,0.0,0.0,0.0,0.0,0.0,0.0,0.0,-2.9355,-3.0369,0.0,-3.1311,-3.2102,-3.2937,-3.366,-3.4504,-3.5151,-3.5579,-3.6866,-3.7566,-3.7506,-3.775,-3.8023,-3.8304,-3.8115,-3.8061,-3.8165,-3.8666,-3.8928,-3.9054,-3.9251,-3.9309,-3.9276,-3.8802,-3.8616,-3.8481,-3.6941,-3.6028,-3.5531,-3.4882,-3.455,-3.4387,-3.4287,-3.416,-3.4032,-3.4032,-3.4032,-3.3964,-3.3474,-3.3107,-3.2838,-3.2963,-3.3213,-3.3396,-3.3253,-3.3417,-3.3598,-3.3448,-3.3744,-3.4117,-3.4117,-3.4472,-3.4844,-3.4844,-3.4455,-3.4032,-3.3761,-3.3119,-3.2652,-3.2821,-3.2689,-3.2764,-3.3201,-3.311,-3.311,-3.3355,-3.3826,-3.41,-3.41,-3.4526,-3.4628,-3.4141,-3.4088,-3.3787,-3.3068,-3.2991,-3.2913,-3.2628,-3.2628,-3.2628,-3.2628,-3.2138,-3.2121,0.0,0.0,0.0,0.0,0.0,0.0,0.0,0.0,0.0,0.0,0.0,0.0,0.0,0.0,0.0,0.0,0.0,0.0,0.0,0.0,0.0,0.0,0.0,0.0,0.0,0.0,-3.0674,-3.1336,-3.2852,-3.3954,-3.4229,-3.4981,-3.5713,-3.6304,-3.7076,-3.7512,-3.7542,-3.8708,-3.9279,-3.9,-3.899,-3.9109,-3.9351,-3.9204,-3.9083,-3.9083,-3.9598,-3.9838,-3.9856,-4.0016,-4.007,-4.0054,-3.9563,-3.936,-3.9326,-3.8836,-3.8345,-3.7787,-3.6789,-3.64,-3.64,-3.64,-3.64,-3.64,-3.64,-3.64,-3.6315,-3.5808,-3.5318,-3.4928,-3.4928,-3.4928,-3.4928,-3.4928,-3.4928,-3.4928,-3.4928,-3.5284,-3.5639,-3.5639,-3.6028,-3.64,-3.64,-3.5994,-3.5639,-3.5633,-3.4447,-3.3389,-3.3397,-3.3413,-3.3478,-3.3744,-3.3785,-3.3859,-3.4103,-3.4583,-3.4858,-3.4858,-3.5313,-3.538,-3.4919,-3.4868,-3.4556,-3.3802,-3.3769,-3.366,-3.3423,-3.3406,-3.3406,-3.3406,-3.2916,-3.2899,-3.3406,0.0,0.0,0.0,0.0,0.0,0.0,0.0,0.0,0.0,0.0,0.0,0.0,0.0,0.0,0.0,0.0,0.0,0.0,0.0,0.0,0.0,0.0,0.0,-3.054,-3.1715,-3.3018,-3.3825,-3.5385,-3.6707,-3.7507,-3.8303,-3.8848,-3.903,-3.9604,-3.9799,-3.9451,-3.9938,-4.0334,-4.0594,-4.0008,-4.0084,-4.0856,-4.0368,-4.007,-4.007,-4.007,-4.007,-4.007,-4.007,-4.007,-4.007,-4.007,-4.007,-4.007,-4.007,-4.007,-3.9935,-3.8531,-3.7973,-3.7973,-3.7973,-3.7973,-3.7973,-3.7973,-3.7956,-3.7939,-3.7939,-3.7922,-3.7905,-3.7905,-3.7905,-3.7905,-3.7905,-3.7905,-3.7905,-3.7905,-3.7905,-3.7905,-3.7905,-3.7905,-3.7905,-3.7905,-3.7905,-3.7919,-3.7908,-3.5542,-3.3533,-3.3522,-3.3505,-3.3755,-3.4409,-3.454,0.0,-3.5497,-3.5622,-3.5622,-3.5622,-3.5622,-3.5622,-3.5622,-3.5622,-3.5318,-3.4573,-3.4523,-3.4201,-3.3508,-3.3474,-3.3457,-3.344,-3.3457,-3.3457,-3.344,0.0,0.0,0.0,0.0,0.0,0.0,0.0,0.0,0.0,0.0,0.0,0.0,0.0,0.0,0.0,0.0,0.0,0.0,0.0,0.0,0.0,0.0,-3.333,-3.2871,-3.4247,-3.5569,-3.6376,-3.7918,-3.9001,-3.9221,-3.9974,-4.0291,-3.9914,-4.0583,-4.0607,-3.9687,-4.0324,-4.0565,-4.0254,-4.0078,-4.0082,-4.0336,-4.0154,-4.007,-4.007,-4.007,-4.007,-4.007,-4.007,-4.007,-4.007,-4.007,-4.007,-4.007,-4.007,-4.007,-4.0037,-3.9631,-3.9478,-3.9478,-3.9478,-3.9478,-3.9478,-3.9478,-3.914,-3.87,-3.87,-3.8345,-3.7905,-3.7905,-3.7905,-3.7905,-3.7905,-3.7905,-3.7905,-3.7905,-3.7905,-3.7905,-3.7905,-3.7905,-3.7905,-3.7905,-3.7905,-3.7919,-3.7908,-3.7245,-3.6497,-3.5946,-3.5888,-3.5725,-3.5351,-3.5317,0.0,-3.5571,-3.5622,-3.5622,-3.5622,-3.5622,-3.5622,-3.5622,-3.5622,-3.552,-3.5318,-3.5318,-3.5216,-3.5013,-3.5013,-3.4742,-3.4201,-3.4726,-3.4742,0.0,0.0,0.0,0.0,0.0,0.0,0.0,0.0,0.0,0.0,0.0,0.0,0.0,0.0,0.0,0.0,0.0,0.0,0.0,0.0,0.0,0.0,-3.511,-3.5973,-3.6303,-3.6909,-3.7606,-3.8395,-3.9918,-4.091,-4.091,-4.1439,-4.1506,-4.0945,-4.13,-4.106,-3.9941,-4.0491,-4.0655,-4.0121,-4.007,-4.007,-4.007,-4.007,-4.007,-4.007,-4.007,-4.007,-4.007,-4.007,-4.007,-4.007,-4.007,-4.007,-4.007,-4.007,-4.007,0.0,0.0,0.0,0.0,0.0,-4.007,-4.007,-4.007,-3.98,-3.9445,-3.9445,-3.9157,-3.8819,-3.8819,-3.8819,-3.8819,-3.8819,-3.8819,-3.8819,-3.8819,-3.8819,-3.8819,-3.8819,-3.8819,-3.8819,-3.8819,-3.8819,-3.8834,-3.8798,-3.8829,0.0,-3.7835,-3.7461,-3.7087,-3.6619,-3.6555,-3.6464,-3.6152,-3.6079,-3.5966,-3.5656,-3.5622,-3.5622,-3.5622,-3.5622,0.0,0.0,0.0,-3.5622,-3.5622,-3.5622,0.0,0.0,0.0,-3.5402,-3.4962,0.0,0.0,0.0,-3.3694,-3.3406,0.0,0.0,0.0,0.0,0.0,0.0,0.0,0.0,0.0,0.0,0.0,0.0,0.0,0.0,0.0,0.0,-3.7845,-3.9148,-4.0029,-3.9551,-3.9368,-4.0084,-4.1515,-4.2399,-4.2365,-4.2577,-4.244,-4.175,-4.1707,-4.1241,-4.0171,0.0,0.0,0.0,0.0,-4.0121,-4.0206,-4.0206,-4.0257,-4.0324,-4.024,-4.0206,-4.0206,-4.0121,-4.007,-4.007,-4.007,-4.007,-4.007,-4.007,-4.007,-4.007,-4.007,-4.007,-4.007,-4.007,-4.007,-4.007,-4.007,0.0,0.0,-4.007,-4.007,-4.007,-4.007,-4.007,-4.007,-4.007,-4.007,-4.007,-4.007,-4.007,-4.007,-4.007,-4.007,-4.007,-4.007,-4.007,-4.007,-4.007,-4.007,-3.9868,-3.9228,-3.8489,-3.8006,-3.7903,-3.792,-3.7634,-3.7024,-3.6903,-3.6658,-3.596,0.0,0.0,-3.5757,-3.5673,-3.5622,-3.5622,-3.5622,-3.5622,-3.5622,-3.5622,-3.5622,-3.5622,-3.5622,-3.5622,-3.5622,-3.5622,-3.5622,-3.5588,-3.4269,-3.366,0.0,0.0,0.0,0.0,0.0,0.0,0.0,0.0,0.0,0.0,0.0,0.0,0.0,0.0,0.0,-3.7973,-3.9038,-4.0175,-4.1625,-4.1699,-4.1662,-4.1827,-4.2671,-4.3101,-4.2666,-4.2659,-4.2262,-4.1178,-4.1087,-4.0797,-4.0121,-4.0204,-4.0204,-4.0121,-4.007,-4.0375,-4.0984,-4.0984,-4.1288,-4.1863,0.0,0.0,-4.0967,-4.0358,-4.007,-4.007,-4.007,-4.007,-4.007,-4.007,-4.007,-4.007,-4.007,-4.007,-4.007,-4.007,-4.007,-4.007,-4.007,-4.007,-4.007,-4.007,-4.007,-4.007,-4.007,-4.007,0.0,-4.007,-4.007,-4.007,-4.007,-4.007,-4.007,-4.007,-4.007,-4.007,-4.007,-4.007,-4.007,-4.007,-4.007,-4.0037,-3.9935,-3.9294,-3.8588,-3.7987,-3.7886,-3.7864,-3.7725,-3.7689,-3.7652,-3.7483,-3.6924,-3.6552,-3.6552,-3.5977,-3.5622,-3.5622,-3.5622,-3.5622,-3.5622,-3.5622,-3.5622,-3.5622,-3.5622,-3.5622,-3.5622,-3.5622,-3.5622,-3.556,-3.5334,-3.5182,0.0,0.0,0.0,0.0,0.0,0.0,0.0,0.0,0.0,0.0,0.0,-3.5422,0.0,0.0,-3.8634,-4.0249,-4.0836,-4.1515,-4.2727,-4.2665,-4.2595,-4.2858,-4.3012,-4.2976,-4.275,-4.2162,-4.1534,-4.0949,-4.0655,-4.0368,-4.0121,-4.0443,-4.0646,-4.0646,-4.1001,-4.1373,-4.1745,-4.1745,-4.1931,-4.2286,-4.1931,-4.1745,-4.1728,-4.0984,-4.0646,-4.0629,-4.024,-4.007,-4.007,-4.007,-4.007,-4.007,-4.007,-4.007,-4.007,-4.007,-4.007,-4.007,-4.007,-4.007,-4.007,-4.007,-4.007,-4.007,-4.007,-4.007,-4.007,-4.007,-4.007,-4.007,-4.007,-4.007,-4.007,-4.007,-4.007,-4.007,-4.007,-4.007,-4.007,-4.007,-4.007,-4.007,-4.007,-3.98,-3.943,-3.9043,-3.9008,-3.8856,-3.8484,-3.8432,-3.8311,-3.7939,-3.7567,-3.7347,-3.7347,-3.6992,-3.6603,-3.6231,-3.6197,-3.6028,-3.5639,-3.5622,-3.5622,-3.5622,-3.5622,-3.5622,-3.5622,-3.5622,-3.5622,-3.5622,-3.5622,-3.5622,0.0,0.0,0.0,0.0,0.0,0.0,0.0,0.0,-3.4945,-3.645,-3.7404,-3.8193,-3.9019,-3.9827,-4.0781,-4.2084,-4.2433,-4.2711,-4.3283,-4.305,-4.2939,-4.3142,-4.279,-4.248,-4.2342,-4.149,-4.0874,-4.0733,-4.0455,-4.029,-4.029,-4.1001,-4.1407,-4.1407,-4.1982,-4.2354,-4.2506,-4.2506,-4.2591,-4.2726,-4.2574,-4.2506,-4.2489,-4.1745,-4.1407,-4.1373,-4.0612,-4.0206,-4.007,-4.007,-4.007,-4.007,-4.007,-4.007,-4.007,-4.007,-4.007,-4.007,-4.007,-4.007,-4.007,-4.007,-4.007,-4.007,-4.007,-4.007,-4.007,-4.007,-4.007,-4.007,-4.007,-4.007,-4.007,-4.007,-4.007,-4.007,-4.007,-4.007,-4.007,-4.007,-4.007,-4.007,-4.007,-4.007,-4.007,-4.007,-4.007,-3.9868,-3.9276,-3.9208,-3.8988,-3.8396,-3.821,-3.8058,-3.7922,-3.7905,-3.7652,-3.7043,-3.6992,-3.6721,-3.6096,-3.6062,-3.6062,-3.6062,-3.6062,-3.6062,-3.6062,-3.6062,-3.6062,-3.6062,-3.6062,-3.591,-2.8994,-2.9958,-3.1194,-3.21,-3.3138,-3.4135,0.0,0.0,-3.7331,-3.8248,-3.9074,-3.9882,-4.0689,-4.1497,-4.2084,-4.2268,-4.2892,-4.323,-4.2846,-4.3142,-4.3069,-4.2103,-4.1937,-4.1664,-4.1178,-4.0995,-4.0685,-4.0204,-4.0747,-4.1085,-4.1085,-4.1779,-4.2168,-4.2168,-4.2252,-4.2608,-4.3284,-4.3301,-4.3639,-4.4316,-4.3623,-4.3301,-4.3267,-4.2506,-4.2168,-4.2134,-4.1407,-4.0696,-4.007,-4.007,-4.007,-4.007,-4.007,-4.007,-4.007,-4.007,-4.007,-4.007,-4.007,-4.007,-4.007,-4.007,-4.007,-4.007,-4.007,-4.007,-4.007,-4.007,-4.007,-4.007,-4.007,-4.007,-4.007,-4.007,-4.007,-4.007,-4.007,-4.007,-4.007,-4.007,-4.007,-4.007,-4.007,-4.007,-4.007,-4.007,-4.007,-4.0054,-3.9969,-3.9952,-3.9935,-3.9834,-3.9259,-3.8616,-3.7973,-3.7905,-3.7872,-3.7787,-3.7787,-3.7736,-3.7652,-3.7652,-3.7652,-3.7652,-3.7652,-3.7652,-3.7652,-3.7652,-3.7652,-3.7652,-3.7652,-3.6924,-3.0902,-3.1898,-3.3042,0.0,-3.5473,-3.6383,-3.7148,-3.8154,-3.903,-3.9486,-4.0492,-4.1405,-4.1754,-4.2451,-4.3002,0.0,-4.3031,-4.2939,-4.275,-4.2266,-4.1817,-4.134,-4.103,-4.0844,-4.0903,-4.0625,-4.0506,-4.0747,-4.1035,-4.139,-4.1813,-4.254,-4.2946,-4.2946,-4.3386,-4.3775,-4.4096,-4.4096,-4.4265,-4.4587,-4.4248,-4.4096,-4.4062,-4.3301,-4.2472,-4.1644,-4.1339,-4.0781,-4.007,-4.007,-4.007,-4.007,-4.007,-4.007,-4.007,-4.007,-4.007,-4.007,-4.007,-4.007,-4.007,-4.007,-4.007,-4.007,-4.007,-4.007,-4.007,-4.007,-4.007,-4.007,-4.007,-4.007,-4.007,-4.007,-4.007,-4.007,-4.007,-4.007,-4.007,-4.007,-4.007,-4.007,-4.007,-4.007,-4.007,-4.007,-4.007,-4.007,-4.007,-4.007,-4.007,-4.007,-3.98,-3.9512,-3.9191,-3.9174,-3.8988,-3.8565,-3.8531,-3.8345,-3.7922,-3.7905,-3.7905,-3.7905,-3.7905,-3.7905,-3.7905,-3.7905,-3.7905,-3.7905,-3.7905,-3.7567,-3.2859,-3.379,-3.4709,-3.6395,-3.7319,-3.807,-3.9103,-3.9854,-4.0354,-4.051,-4.1631,-4.2601,-4.2445,-4.2902,-4.3286,-4.3286,-4.2808,-4.24,-4.2239,-4.1595,-4.1041,-4.0703,-4.0449,-4.0502,-4.0948,-4.0643,-4.0612,-4.117,-4.1593,-4.2049,-4.2574,-4.3318,-4.3741,-4.3741,-4.4282,-4.4587,-4.4587,-4.4587,-4.4587,-4.4587,-4.4587,-4.4587,-4.4553,-4.3995,-4.2929,-4.1508,-4.1508,-4.0967,-4.007,-4.007,-4.007,-4.007,-4.007,-4.007,-4.007,-4.007,-4.007,-4.007,-4.007,-4.007,-4.007,-4.007,-4.007,-4.007,-4.007,-4.007,-4.007,-4.007,-4.007,-4.007,-4.007,-4.007,-4.007,-4.007,-4.007,-4.007,-4.007,-4.007,-4.007,-4.007,-4.007,-4.007,-4.007,-4.007,-4.007,-4.007,-4.007,-4.007,-4.007,-4.007,-4.007,-4.007,-4.007,-4.007,-4.007,-4.007,-3.9851,-3.9326,-3.9292,-3.9056,-3.8531,-3.8514,-3.8514,-3.8514,-3.8514,-3.8514,-3.8514,-3.8514,-3.8514,-3.8514,-3.8514,-3.8514,-3.4409,-3.5334,-3.5975,-3.7725,-3.8356,-3.8831,-3.9926,-4.0762,-4.1358,-4.1376,-4.2486,-4.3303,-4.279,-4.2693,-4.2732,-4.2732,-4.2203,-4.1639,-4.1111,-4.1481,-4.1375,-4.0254,-4.0577,-4.0948,0.0,-4.117,-4.1187,-4.1204,-4.254,-4.3369,-4.3386,-4.413,-4.4536,-4.4536,-4.457,-4.4587,-4.4587,-4.4587,-4.4587,-4.4587,-4.4587,-4.4587,-4.4587,-4.4553,-4.3707,-4.2252,-4.2252,-4.1424,-4.007,-4.007,-4.007,-4.007,-4.007,-4.007,-4.007,-4.007,-4.007,-4.007,-4.007,-4.007,-4.007,-4.007,-4.007,-4.007,-4.007,-4.007,-4.007,-4.007,-4.007,-4.007,-4.007,-4.007,-4.007,-4.007,-4.007,-4.007,-4.007,-4.007,-4.007,-4.007,-4.007,-4.007,-4.007,-4.007,-4.007,-4.007,-4.007,-4.007,-4.007,-4.007,-4.007,-4.007,-4.007,-4.007,-4.007,-4.007,-4.007,-4.0054,-4.0054,-4.0037,-4.0003,-4.0003,-4.0003,-4.0003,-4.0003,-4.0003,-4.0003,-4.0003,-4.0003,-4.0003,-4.0003,-4.0003,-3.599,-3.6881,-3.7707,-3.94,-3.9869,-4.0059,-4.0533,-4.1191,-4.1552,-4.1155,-4.1766,-4.2324,-4.2121,-4.2121,-4.2121,-4.2121,-4.1578,-4.1133,-4.0967,-4.0767,-4.0514,-4.0171,-4.0237,0.0,0.0,0.0,0.0,-4.2608,-4.3132,-4.3639,-4.4164,-4.4434,-4.4587,-4.4587,-4.4587,-4.4587,-4.4587,-4.4587,-4.4587,-4.4587,-4.4587,-4.4587,-4.4587,-4.4587,-4.3741,-4.2286,-4.2286,-4.1441,-4.007,-4.007,-4.007,-4.007,-4.007,-4.007,-4.007,-4.007,-4.007,-4.007,-4.007,-4.007,-4.007,-4.007,-4.007,-4.007,-4.007,-4.007,-4.007,-4.007,-4.007,-4.007,-4.007,-4.007,-4.007,-4.007,-4.007,-4.007,-4.007,-4.007,-4.007,-4.007,-4.007,-4.007,-4.007,-4.007,-4.007,-4.007,-4.007,-4.007,-4.007,-4.007,-4.007,-4.007,-4.007,-4.007,-4.007,-4.007,-4.007,-4.007,-4.007,-4.007,-4.007,-4.007,-4.007,-4.007,-4.007,-4.007,-4.007,-4.007,-4.007,-4.007,-4.007,-4.007,-3.7366,-3.8121,-3.8799,-4.0095,-4.0436,-4.0513,-4.0845,-4.1223,-4.1358,-4.0995,-4.1402,-4.1707,-4.1534,-4.149,-4.149,-4.149,-4.1013,-4.0607,-4.0607,-4.0336,-4.007,-4.007,-4.0307,0.0,0.0,0.0,0.0,-4.3352,-4.3673,-4.4045,-4.4553,-4.4587,-4.4587,-4.4587,-4.4587,-4.4587,-4.4587,-4.4587,-4.4587,-4.4587,-4.4587,-4.4587,-4.4587,-4.4587,-4.3741,-4.2286,-4.2286,-4.1441,-4.007,-4.007,-4.007,-4.007,-4.007,-4.007,-4.007,-4.007,-4.007,-4.007,-4.007,-4.007,-4.007,-4.007,-4.007,-4.007,-4.007,-4.007,-4.007,-4.007,-4.007,-4.007,-4.007,-4.007,-4.007,-4.007,-4.007,-4.007,-4.007,-4.007,-4.007,-4.007,-4.007,-4.007,-4.007,-4.007,-4.007,-4.007,-4.007,-4.007,-4.007,-4.007,-4.007,-4.007,-4.007,-4.007,-4.007,-4.007,-4.007,-4.007,-4.007,-4.007,-4.007,-4.007,-4.007,-4.007,-4.007,-4.007,-4.007,-4.007,-4.007,-4.007,-4.007,-4.007,-3.8396,-3.9022,-3.9208,-3.9901,-4.007,-4.0254,-4.0733,-4.0856,-4.0856,-4.0822,-4.1261,-4.1481,-4.0897,0.0,-4.0822,-4.0856,-4.0449,-4.007,-4.007,-4.007,-4.007,0.0,0.0,0.0,0.0,0.0,0.0,-4.347,0.0,-4.4587,-4.4587,-4.4587,-4.4587,-4.4587,-4.4587,-4.4587,-4.4587,-4.4587,-4.4587,-4.4587,-4.4587,-4.4587,-4.4587,-4.4587,-4.3758,-4.2337,-4.2303,-4.1474,-4.0121,-4.0104,-4.007,-4.007,-4.007,-4.007,-4.007,-4.007,-4.007,-4.007,-4.007,-4.007,-4.007,-4.007,-4.007,-4.007,-4.007,-4.007,-4.007,-4.007,-4.007,-4.002,-4.002,-4.002,-4.002,-4.002,-4.007,-4.007,-4.007,-4.007,-4.007,-4.007,-4.007,-4.007,-4.007,-4.007,-4.007,-4.007,-4.007,-4.007,-4.007,-4.007,-4.007,-4.007,-4.007,-4.007,-4.007,-4.007,-4.007,-4.007,-4.007,-4.007,-4.007,-4.007,-4.007,-4.007,-4.007,-4.007,-4.007,-4.007,-4.007,-4.007,-4.007,-4.007,-3.8684,-3.9394,-3.9834,-4.002,-4.007,-4.0121,-4.0286,-4.0286,-4.0133,-3.9589,-3.9614,-3.9645,-3.9518,0.0,0.0,-4.0184,-4.0204,0.0,-4.007,-4.007,0.0,0.0,0.0,-4.1491,-4.2219,-4.298,0.0,0.0,-4.4468,-4.4587,-4.4587,-4.4587,-4.4587,-4.4587,-4.4587,-4.4587,-4.4587,-4.4587,-4.4587,-4.4587,-4.4587,-4.4587,-4.4587,-4.4587,-4.4045,-4.3098,-4.254,-4.1762,-4.0882,-4.0307,-4.007,-4.007,-4.007,-4.007,-4.007,-4.007,-4.007,-4.007,-4.007,-4.007,-4.007,-4.007,-4.007,-4.007,-4.007,-4.007,-4.007,-4.007,-3.9662,-3.9209,-3.9209,-3.9209,-3.9209,-3.9209,-3.9662,-4.007,-4.007,-4.007,-4.007,-4.007,-4.007,-4.007,-4.007,-4.007,-4.007,-4.007,-4.007,-4.007,-4.007,-4.007,-4.007,-4.007,-4.007,-4.007,-4.007,-4.007,-4.007,-4.007,-4.007,-4.007,-4.007,-4.007,-4.007,-4.007,-4.007,-4.007,-4.007,-4.007,-4.007,-4.007,-4.007,-4.007,-3.9276,-3.9766,-4.007,-4.007,-4.007,-4.007,-4.007,-3.9834,-3.9478,-3.9089,-3.8734,0.0,-3.8514,0.0,0.0,0.0,0.0,0.0,-4.007,-4.007,-4.0206,0.0,-4.1221,0.0,-4.2709,-4.3487,-4.4113,0.0,-4.4587,-4.4587,-4.4587,-4.4587,-4.4587,-4.4587,-4.4587,-4.4587,-4.4587,-4.4587,-4.4587,-4.4587,-4.4587,-4.4587,-4.4587,-4.4587,-4.4147,-4.3369,0.0,-4.188,-4.1136,-4.0392,-4.007,-4.007,-4.007,-4.007,-4.007,-4.007,-3.9901,-3.9558,-3.9558,-3.9385,-3.9226,-3.9901,-3.985,-3.9558,-3.9558,-3.9332,-3.9102,-3.9102,-3.8761,-3.8414,-3.8414,-3.8414,-3.8525,-3.8799,-3.9237,-3.9649,-4.002,-4.007,-4.007,-4.007,-4.007,-4.007,-4.007,-4.007,-4.007,-4.007,-4.007,-4.007,-4.007,-4.007,-4.007,-4.007,-4.007,-4.007,-4.007,-4.007,-4.007,-4.007,-4.007,-4.007,-4.007,-4.007,-4.007,-4.007,-4.007,-4.007,-4.007,-4.007,-3.9901,-3.9594,-3.9952,-3.9901,-3.9884,-4.007,-4.007,-4.007,-4.007,-4.0054,-3.9952,-3.9445,-3.8937,-3.8734,0.0,-3.7753,-3.7753,-3.8278,-3.8768,-3.8954,0.0,-3.9969,-4.007,-4.007,-4.0324,-4.0984,-4.1779,-4.254,-4.32,-4.4062,-4.4587,-4.4587,-4.4587,-4.4587,-4.4587,-4.4587,-4.4587,-4.4587,-4.4587,-4.4587,-4.4587,-4.4587,-4.4587,-4.4587,-4.4587,-4.4514,-4.444,-4.457,-4.4091,-4.3204,-4.2554,0.0,-4.1136,-4.0392,-4.007,-4.007,-3.9952,-3.9952,-3.9952,-3.985,-3.9332,-3.8745,-3.8745,-3.8358,-3.8035,-3.9332,-3.9315,-3.8745,-3.8745,-3.8318,-3.7822,-3.7822,-3.769,-3.7632,-3.7632,-3.7632,-3.779,-3.8453,-3.8669,-3.8991,-3.9767,-4.002,-4.007,-4.007,-4.0003,-3.9952,-3.9934,-3.985,-3.9783,-3.9782,-3.9782,-3.985,-3.9901,-4.002,-4.007,-4.007,-4.007,-4.007,-4.007,-4.007,-4.007,-4.007,-4.007,-4.007,-4.007,-4.002,-3.9952,-3.9952,-3.9833,-3.9782,-3.9782,-3.9782,-3.9437,-3.8745,-3.9437,-3.9437,-3.9884,-4.007,-4.007,-4.007,-4.007,-3.9918,-3.9326,-3.9089,0.0,0.0,-3.706,-3.6975,-3.6975,-3.7077,0.0,-3.8785,0.0,0.0,0.0,0.0,-4.0121,0.0,0.0,0.0,0.0,0.0,0.0,0.0,0.0,-4.4587,-4.4587,-4.4587,-4.4587,-4.4587,-4.4587,-4.4587,-4.4587,-4.4587,-4.4587,-4.4587,-4.4587,-4.4196,-4.3562,-4.4253,-4.3776,-4.2402,-4.232,0.0,-4.1136,-4.0392,-4.007,-4.002,-3.9368,-3.9086,-3.9032,-3.843,-3.8092,-3.7978,-3.7978,-3.7921,-3.7863,-3.8092,-3.8092,-3.7978,-3.7978,-3.7921,-3.7822,-3.7822,-3.7338,-3.6783,-3.6783,-3.6783,-3.6843,-3.6948,-3.7478,-3.8186,-3.894,-3.9632,-4.007,-4.007,-3.9564,-3.9089,-3.9086,-3.859,-3.8215,-3.823,-3.8206,-3.843,-3.9032,-3.9662,-4.007,-4.007,-4.007,-4.007,-4.007,-4.007,-4.007,-4.007,-4.007,-4.007,-4.007,-3.9489,-3.9086,-3.9086,-3.8486,-3.8206,-3.8206,-3.8206,-3.8149,-3.7978,-3.8149,-3.8092,-3.9884,-4.007,-4.007,-4.007,-3.9783,-3.9411,-3.9073,0.0,0.0,0.0,-3.6451,-3.618,-3.618,0.0,0.0,0.0,0.0,0.0,0.0,0.0,0.0,0.0,0.0,0.0,0.0,0.0,0.0,0.0,0.0,-4.4587,-4.4587,-4.4587,-4.4587,-4.4587,-4.4587,-4.4587,-4.4587,-4.4587,-4.4587,-4.457,-4.4138,-4.368,-4.329,-4.2894,-4.2277,-4.1525,-4.0828,0.0,-4.0558,-3.9363,-3.9102,-3.9385,-3.8652,-3.8302,-3.8302,-3.7921,-3.7515,-3.716,-3.716,-3.6935,-3.66,-3.66,-3.6874,-3.716,-3.716,-3.6935,-3.66,-3.66,-3.6305,-3.6054,-3.6054,-3.6054,-3.6117,-3.6492,-3.7225,-3.7918,-3.8236,-3.8635,-3.8875,-3.8875,-3.8606,-3.8338,-3.8344,-3.8054,-3.7764,-3.7822,-3.7822,-3.7921,-3.8246,-3.8652,-3.9226,-4.002,-4.007,-4.007,-4.007,-3.9731,-3.9489,-3.9489,-3.9102,-3.8887,-3.8887,-3.8541,-3.8302,-3.8302,-3.7978,-3.7822,-3.7822,-3.7822,-3.7573,-3.7219,-3.7573,-3.7573,-3.9698,-3.9834,-3.9834,-3.9834,-3.9292,-3.8717,-3.8548,-3.7618,0.0,0.0,-3.6045,-3.5622,-3.5622,0.0,-3.6586,0.0,0.0,0.0,0.0,0.0,0.0,0.0,0.0,0.0,0.0,0.0,0.0,0.0,0.0,0.0,-4.4587,-4.4587,-4.4587,-4.4587,-4.4587,-4.4587,-4.4587,-4.4587,-4.4514,-4.4327,-4.3621,-4.3026,-4.2463,-4.1464,-4.0719,-4.0243,-3.9326,0.0,0.0,-3.8334,-3.8133,-3.858,-3.7847,-3.7515,-3.7515,-3.7354,-3.6935,-3.6384,-3.6384,-3.6006,-3.5504,-3.5504,-3.5894,-3.6384,-3.6384,-3.5943,-3.5504,-3.5504,-3.5504,-3.5504,-3.5504,-3.5504,-3.5668,-3.6228,-3.6955,-3.7563,-3.7546,-3.7666,-3.7807,-3.781,-3.7637,-3.7528,-3.754,-3.7404,-3.7308,-3.7342,-3.7294,-3.7354,-3.7515,-3.7515,-3.8076,-3.9454,-3.9731,-3.9833,-3.9833,-3.9262,-3.8854,-3.869,-3.8133,-3.7822,-3.7822,-3.7632,-3.7515,-3.7515,-3.7413,-3.7294,-3.7294,-3.7294,-3.6995,-3.6384,-3.6995,-3.6995,-3.9073,-3.9089,-3.9089,-3.9089,-3.8548,-3.7838,-3.7144,0.0,0.0,-3.5876,-3.5673,-3.5622,-3.5622,-3.5673,-3.596,-3.6671,-3.7466,-3.8227,0.0,0.0,0.0,0.0,0.0,0.0,0.0,0.0,0.0,0.0,0.0,0.0,-4.4587,-4.4587,-4.4587,-4.4587,-4.4587,-4.4587,-4.4587,-4.4587,-4.4196,-4.3443,-4.3366,-4.218,-4.0075,-4.0722,-3.9865,-3.7934,-3.8594,0.0,0.0,-3.7838,-3.7806,-3.7806,-3.7024,-3.6722,-3.6615,-3.5958,-3.5683,-3.5619,-3.5619,-3.5554,-3.5504,-3.5504,-3.5569,-3.5619,-3.5619,-3.5554,-3.5504,-3.5504,-3.5504,-3.5504,-3.5504,-3.5504,-3.5504,-3.5554,-3.6196,-3.6708,-3.6715,-3.7275,-3.7775,-3.7826,-3.7198,-3.6697,-3.6717,-3.6159,-3.5714,-3.5683,-3.5748,-3.5958,-3.6615,-3.6722,-3.7024,-3.7921,-3.858,-3.9016,-3.9016,-3.8962,-3.8635,-3.7921,-3.7806,-3.7822,-3.7822,-3.71,-3.6722,-3.6722,-3.607,-3.5748,-3.5748,-3.5748,-3.5683,-3.5619,-3.5683,-3.5683,-3.8091,-3.8345,-3.8345,-3.8345,-3.7787,-3.7144,-3.6857,0.0,-3.5994,-3.569,-3.5622,-3.5622,-3.5622,-3.5622,-3.5723,-3.6028,-3.711,-3.8007,0.0,0.0,0.0,0.0,0.0,0.0,0.0,0.0,0.0,0.0,0.0,0.0,-4.3873,-4.3814,-4.4064,-4.457,-4.4064,-4.3814,-4.3814,-4.3814,-4.3211,-4.1889,-4.1357,-4.0418,-3.9048,-3.8546,-3.7824,-3.6914,-3.6873,0.0,0.0,-3.66,-3.6707,-3.6964,-3.6243,-3.5943,-3.5894,-3.5619,-3.5504,-3.5504,-3.5504,-3.5504,-3.5504,-3.5504,-3.5504,-3.5504,-3.5504,-3.5504,-3.5504,-3.5504,-3.5504,-3.5504,-3.5504,-3.5504,-3.5504,-3.5504,-3.5718,-3.5955,-3.5909,-3.6222,-3.6444,-3.6425,-3.6155,-3.5954,-3.5954,-3.5689,-3.5504,-3.5504,-3.5504,-3.5619,-3.5894,-3.5943,-3.6228,-3.698,-3.779,-3.8246,-3.8246,-3.7774,-3.7365,-3.7084,-3.6646,-3.643,-3.643,-3.6133,-3.5943,-3.5943,-3.5668,-3.5504,-3.5504,-3.5504,-3.5504,-3.5504,-3.5504,-3.5504,-3.6603,-3.706,-3.7178,-3.6958,-3.6502,-3.6045,0.0,0.0,-3.5284,-3.5284,-3.547,-3.5622,-3.5622,-3.5622,-3.5622,-3.5622,-3.6721,-3.7652,-3.7872,0.0,0.0,0.0,0.0,0.0,0.0,0.0,0.0,0.0,0.0,0.0,0.0,-4.2785,-4.2909,-4.3798,-4.3229,-4.2811,-4.2598,-4.2598,-4.1857,-4.0325,-3.9685,-3.8967,-3.7977,-3.699,-3.6372,-3.6178,-3.5714,0.0,0.0,-3.5733,-3.5782,-3.6212,-3.5733,-3.5504,-3.5504,-3.5504,-3.5504,-3.5504,-3.5504,-3.5504,-3.5504,-3.5504,-3.5504,-3.5504,-3.5504,-3.5504,-3.5504,-3.5504,-3.5504,-3.5504,-3.5504,-3.5504,-3.5504,-3.5504,-3.5504,-3.5504,-3.5504,-3.5504,-3.5504,-3.5504,-3.5504,-3.5504,-3.5504,-3.5504,-3.5504,-3.5504,-3.5504,-3.5504,-3.5504,-3.5504,-3.5733,-3.6228,-3.6768,-3.7235,-3.7456,-3.6919,-3.6492,-3.6275,-3.5782,-3.5504,-3.5504,-3.5504,-3.5504,-3.5504,-3.5504,-3.5504,-3.5504,-3.5504,-3.5504,-3.5504,-3.5504,-3.5504,-3.4523,-3.5081,-3.547,-3.4726,-3.4523,-3.432,0.0,-3.3981,-3.4506,-3.4506,-3.5098,-3.5622,-3.5622,-3.5622,-3.5622,-3.5622,-3.6282,-3.706,-3.7804,0.0,0.0,0.0,0.0,0.0,0.0,0.0,0.0,0.0,0.0,0.0,0.0,-4.1658,-4.1147,-4.1997,-4.1997,-4.1661,-4.102,-4.102,-4.023,-3.8725,-3.8725,-3.7962,-3.6492,-3.6492,-3.6133,0.0,0.0,0.0,0.0,-3.5504,-3.5504,-3.5504,-3.5504,-3.5504,-3.5504,-3.5504,-3.5504,-3.5504,-3.5504,-3.5504,-3.5504,-3.5504,-3.5504,-3.5504,-3.5504,-3.5504,-3.5504,-3.5504,-3.5504,-3.5504,-3.5504,-3.5504,-3.5504,-3.5504,-3.5504,-3.5504,-3.5504,-3.5504,-3.5504,-3.5504,-3.5504,-3.5504,-3.5504,-3.5504,-3.5504,-3.5504,-3.5504,-3.5504,-3.5504,-3.5504,-3.5504,-3.5504,-3.5504,-3.5846,-3.6554,-3.66,-3.6275,-3.5554,-3.5504,-3.5504,-3.5504,-3.5504,-3.5504,-3.5504,-3.5504,-3.5504,-3.5504,-3.5504,-3.5504,-3.5504,-3.5504,-3.5504,-3.3474,-3.3931,-3.4049,-3.3812,-3.3744,-3.3694,-3.3457,-3.3964,-3.4489,-3.4489,-3.5098,-3.5622,-3.5622,-3.5622,-3.5622,-3.5622,-3.6282,-3.7043,0.0,0.0,0.0,0.0,0.0,0.0,0.0,0.0,0.0,0.0,0.0,0.0,0.0,-4.0575,-4.0661,-4.1981,-4.1004,-4.0347,-4.0112,-3.9658,-3.8645,-3.7213,-3.7213,-3.6682,-3.5818,-3.5818,-3.5699,0.0,0.0,0.0,0.0,-3.5504,-3.5504,-3.5504,-3.5504,-3.5504,-3.5504,-3.5504,-3.5504,-3.5504,-3.5504,-3.5504,-3.5504,-3.5504,-3.5504,-3.5504,-3.5504,-3.5504,-3.5504,-3.5504,-3.5504,-3.5504,-3.5504,-3.5504,-3.5504,-3.5504,-3.5504,-3.5504,-3.5504,-3.5504,-3.5504,-3.5504,-3.5504,-3.5504,-3.5504,-3.5504,-3.5504,-3.5504,-3.5504,-3.5504,-3.5504,-3.5504,-3.5504,-3.5504,-3.5504,-3.5619,-3.5831,-3.5831,-3.5733,-3.5504,-3.5504,-3.5504,-3.5504,-3.5504,-3.5504,-3.5504,-3.5504,-3.5504,-3.5504,-3.5504,-3.5504,-3.5504,-3.5504,-3.5504,-3.1833,-3.256,-3.2916,-3.2645,-3.278,0.0,0.0,-3.3136,-3.3744,-3.4032,-3.4675,-3.5284,-3.5571,-3.5622,-3.5622,-3.5622,-3.6028,-3.6705,0.0,0.0,0.0,0.0,0.0,0.0,0.0,0.0,0.0,0.0,0.0,0.0,0.0,-3.94,-3.9298,-4.0232,-3.9313,-3.8723,-3.8494,-3.808,-3.7299,-3.6118,-3.6118,-3.5893,-3.5504,-3.5504,-3.5504,0.0,0.0,0.0,0.0,-3.5504,-3.5504,-3.5504,-3.5504,-3.5504,-3.5504,-3.5504,-3.5504,-3.5504,-3.5504,-3.5504,-3.5504,-3.5504,-3.5504,-3.5504,-3.5504,-3.5504,-3.5504,-3.5504,-3.5504,-3.5504,-3.5504,-3.5504,-3.5504,-3.5504,-3.5504,-3.5504,-3.5504,-3.5504,-3.5504,-3.5504,-3.5504,-3.5504,-3.5504,-3.5504,-3.5504,-3.5504,-3.5504,-3.5504,-3.5504,-3.5504,-3.5504,-3.5504,-3.5504,-3.5504,-3.5504,-3.5504,-3.5504,-3.5504,-3.5504,-3.5504,-3.5504,-3.5504,-3.5504,-3.5504,-3.5504,-3.5504,-3.5504,-3.5504,-3.5504,-3.5504,-3.5504,-3.5504,0.0,-3.1089,-3.2036,0.0,0.0,0.0,-3.136,-3.1749,0.0,-3.3254,-3.3981,-3.4726,-3.547,-3.5622,-3.5622,-3.5622,-3.5673,0.0,0.0,0.0,0.0,0.0,0.0,0.0,0.0,0.0,0.0,0.0,0.0,0.0,0.0,-3.8137,-3.7345,-3.7345,-3.73,-3.703,-3.6492,-3.6432,-3.6118,-3.5504,-3.5504,-3.5504,-3.5504,-3.5504,-3.5504,0.0,0.0,0.0,0.0,-3.5504,-3.5504,-3.5504,-3.5504,-3.5504,-3.5504,-3.5504,-3.5504,-3.5504,-3.5504,-3.5504,-3.5504,-3.5504,-3.5504,-3.5504,-3.5504,-3.5504,-3.5504,-3.5504,-3.5504,-3.5504,-3.5504,-3.5504,-3.5504,-3.5504,-3.5504,-3.5504,-3.5504,-3.5504,-3.5504,-3.5504,-3.5504,-3.5504,-3.5504,-3.5504,-3.5504,-3.5504,-3.5504,-3.5504,-3.5504,-3.5504,-3.5504,-3.5504,-3.5504,-3.5504,-3.5504,-3.5504,-3.5504,-3.5504,-3.5504,-3.5504,-3.5504,-3.5504,-3.5504,-3.5504,-3.5504,-3.5504,-3.5504,-3.5504,-3.5504,-3.5504,-3.5504,-3.5504,-2.9025,0.0,-3.141,-3.1241,-3.1326,-3.141,0.0,-3.1749,-3.2493,-3.3254,-3.3981,-3.4726,-3.547,-3.5622,-3.5622,-3.5622,-3.6129,0.0,0.0,0.0,0.0,0.0,0.0,0.0,0.0,0.0,0.0,0.0,0.0,0.0,0.0,-3.7166,-3.6701,-3.6701,-3.6207,-3.6118,-3.6492,-3.5983,-3.5654,-3.5504,-3.5504,-3.5504,-3.5504,-3.5504,-3.5504,0.0,0.0,0.0,-3.5504,-3.5504,-3.5504,-3.5504,-3.5504,-3.5504,-3.5504,-3.5504,-3.5504,-3.5504,-3.5504,-3.5504,-3.5504,-3.5504,-3.5504,-3.5504,-3.5504,-3.5504,-3.5504,-3.5504,-3.5504,-3.5504,-3.5504,-3.5504,-3.5504,-3.5504,-3.5504,-3.5504,-3.5504,-3.5504,-3.5504,-3.5504,-3.5504,-3.5504,-3.5504,-3.5504,-3.5504,-3.5504,-3.5504,-3.5504,-3.5504,-3.5504,-3.5504,-3.5504,-3.5504,-3.5504,-3.5504,-3.5504,-3.5504,-3.5504,-3.5504,-3.5504,-3.5504,-3.5504,-3.5504,-3.5504,-3.5504,-3.5504,-3.5504,-3.5504,-3.5504,-3.5504,-3.5504,-3.5504,-2.8772,-2.982,-3.0784,-3.1106,-3.119,-3.119,-3.119,-3.1495,-3.2087,-3.3186,0.0,0.0,0.0,0.0,0.0,0.0,0.0,0.0,0.0,0.0,0.0,0.0,0.0,0.0,0.0,0.0,0.0,0.0,0.0,0.0,0.0,-3.6387,-3.6028,-3.6028,-3.5684,-3.5669,-3.6028,-3.5684,-3.5504,-3.5504,-3.5504,-3.5504,-3.5504,-3.5504,-3.5504,0.0,0.0,0.0,-3.5504,-3.5504,-3.5504,-3.5504,-3.5504,-3.5504,-3.5504,-3.5504,-3.5504,-3.5504,-3.5504,-3.5504,-3.5504,-3.5504,-3.5504,-3.5504,-3.5504,-3.5504,-3.5504,-3.5504,-3.5504,-3.5504,-3.5504,-3.5504,-3.5504,-3.5504,-3.5504,-3.5504,-3.5504,-3.5504,-3.5504,-3.5504,-3.5504,-3.5504,-3.5504,-3.5504,-3.5504,-3.5504,-3.5504,-3.5504,-3.5504,-3.5504,-3.5504,-3.5504,-3.5504,-3.5504,-3.5504,-3.5504,-3.5504,-3.5504,-3.5504,-3.5504,-3.5504,-3.5504,-3.5504,-3.5504,-3.5504,-3.5504,-3.5504,-3.5504,-3.5504,-3.5504,-3.5504,-3.5504,-2.8738,-2.9448,-3.0142,-3.0987,-3.119,-3.119,-3.119,0.0,0.0,0.0,0.0,0.0,0.0,0.0,0.0,0.0,0.0,0.0,0.0,0.0,0.0,0.0,0.0,0.0,0.0,0.0,0.0,0.0,0.0,0.0,0.0,-3.5804,-3.5504,-3.5504,-3.5504,-3.5504,-3.5504,-3.5504,-3.5504,-3.5504,-3.5504,-3.5504,-3.5504,-3.5504,-3.5504,-3.5504,0.0,0.0,-3.5504,-3.5504,-3.5504,-3.5504,-3.5504,-3.5504,-3.5504,-3.5504,-3.5504,-3.5504,-3.5504,-3.5504,-3.5504,-3.5504,-3.5504,-3.5504,-3.5504,-3.5504,-3.5504,-3.5504,-3.5504,-3.5504,-3.5504,-3.5504,-3.5504,-3.5504,-3.5504,-3.5504,-3.5504,-3.5504,-3.5504,-3.5504,-3.5504,-3.5504,-3.5504,-3.5504,-3.5504,-3.5504,-3.5504,-3.5504,-3.5504,-3.5504,-3.5504,-3.5504,-3.5504,-3.5504,-3.5504,-3.5504,-3.5504,-3.5504,-3.5504,-3.5504,-3.5504,-3.5504,-3.5504,-3.5504,-3.5504,-3.5504,-3.5504,-3.5504,-3.5504,-3.5504,-3.5504,-3.5504,-2.8586,-2.9059,-2.9482,-3.0852,-3.119,-3.119,-3.119,-3.119,0.0,0.0,0.0,0.0,0.0,0.0,0.0,0.0,0.0,0.0,0.0,0.0,0.0,0.0,0.0,0.0,0.0,0.0,0.0,0.0,0.0,0.0,0.0,-3.5564,-3.5504,-3.5504,-3.5504,-3.5504,-3.5504,-3.5504,-3.5504,-3.5504,-3.5504,-3.5504,-3.5504,-3.5504,-3.5504,-3.5504,0.0,-3.5504,-3.5504,-3.5504,-3.5504,-3.5504,-3.5504,-3.5504,-3.5504,-3.5504,-3.5504,-3.5504,-3.5504,-3.5504,-3.5504,-3.5504,-3.5504,-3.5504,-3.5504,-3.5504,-3.5504,-3.5504,-3.5504,-3.5504,-3.5504,-3.5504,-3.5504,-3.5504,-3.5504,-3.5504,-3.5504,-3.5504,-3.5504,-3.5504,-3.5504,-3.5504,-3.5504,-3.5504,-3.5504,-3.5504,-3.5504,-3.5504,-3.5504,-3.5504,-3.5504,-3.5504,-3.5504,-3.5504,-3.5504,-3.5504,-3.5504,-3.5504,-3.5504,-3.5504,-3.5504,-3.5504,-3.5504,-3.5504,-3.5504,-3.5504,-3.5504,-3.5504,-3.5504,-3.5504,-3.5504,-3.5504,-2.8569,-2.9011,-2.933,-3.0818,-3.119,-3.119,-3.119,-3.119,0.0,0.0,0.0,0.0,0.0,0.0,0.0,0.0,0.0,0.0,0.0,0.0,0.0,0.0,0.0,0.0,0.0,0.0,0.0,0.0,0.0,0.0,0.0,-3.5504,-3.5504,-3.5504,-3.5504,-3.5504,-3.5504,-3.5504,-3.5504,-3.5504,-3.5504,-3.5504,-3.5504,-3.5504,-3.5504,-3.5504,0.0,-3.5504,-3.5504,-3.5504,-3.5504,-3.5504,-3.5504,-3.5504,-3.5504,-3.5504,-3.5504,-3.5504,-3.5504,-3.5504,-3.5504,-3.5504,-3.5504,-3.5504,-3.5504,-3.5504,-3.5504,-3.5504,-3.5504,-3.5504,-3.5504,-3.5504,-3.5504,-3.5504,-3.5504,-3.5504,-3.5504,-3.5504,-3.5504,-3.5504,-3.5504,-3.5504,-3.5504,-3.5504,-3.5504,-3.5504,-3.5504,-3.5504,-3.5504,-3.5504,-3.5504,-3.5504,-3.5504,-3.5504,-3.5504,-3.5504,-3.5504,-3.5504,-3.5504,-3.5504,-3.5504,-3.5504,-3.5504,-3.5504,-3.5504,-3.5504,-3.5504,-3.5504,-3.5504,-3.5504,-3.5504,-3.5504,-2.8569,-2.9011,-2.933,-3.0818,-3.119,-3.119,-3.119,-3.119,-3.1393,0.0,0.0,0.0,0.0,0.0,0.0,0.0,0.0,0.0,0.0,0.0,0.0,0.0,0.0,0.0,0.0,0.0,0.0,0.0,0.0,0.0,-3.5504,-3.5504,-3.5504,-3.5504,-3.5504,-3.5504,-3.5504,-3.5504,-3.5504,-3.5504,-3.5504,-3.5504,-3.5504,-3.5504,-3.5504,-3.5504,-3.5504,-3.5504,-3.5504,-3.5504,-3.5504,-3.5504,-3.5504,-3.5504,-3.5504,-3.5504,-3.5504,-3.5504,-3.5504,-3.5504,-3.5504,-3.5504,-3.5504,-3.5504,-3.5504,-3.5504,-3.5504,-3.5504,-3.5504,-3.5504,-3.5504,-3.5504,-3.5504,-3.5504,-3.5504,-3.5504,-3.5504,-3.5504,-3.5504,-3.5504,-3.5504,-3.5504,-3.5504,-3.5504,-3.5504,-3.5504,-3.5504,-3.5504,-3.5504,-3.5504,-3.5504,-3.5504,-3.5504,-3.5504,-3.5504,-3.5504,-3.5504,-3.5504,-3.5504,-3.5504,-3.5504,-3.5504,-3.5504,-3.5504,-3.5504,-3.5504,-3.5504,-3.5504,-3.5504,-3.5504,-3.5504,-3.5504,-2.8569,-2.9011,-2.933,-3.0818,-3.119,-3.119,-3.119,-3.119,-3.1393,-3.2138,0.0,0.0,0.0,0.0,0.0,0.0,0.0,0.0,0.0,0.0,0.0,0.0,0.0,0.0,0.0,0.0,0.0,0.0,0.0,0.0,-3.5504,-3.5504,-3.5504,-3.5504,-3.5504,-3.5504,-3.5504,-3.5504,-3.5504,-3.5504,-3.5504,-3.5504,-3.5504,-3.5504,-3.5504,-3.5504,-3.5504,-3.5504,-3.5504,-3.5504,-3.5504,-3.5504,-3.5504,-3.5504,-3.5504,-3.5504,-3.5504,-3.5504,-3.5504,-3.5504,-3.5504,-3.5504,-3.5504,-3.5504,-3.5504,-3.5504,-3.5504,-3.5504,-3.5504,-3.5504,-3.5504,-3.5504,-3.5504,-3.5504,-3.5504,-3.5504,-3.5504,-3.5504,-3.5504,-3.5504,-3.5504,-3.5504,-3.5504,-3.5504,-3.5504,-3.5504,-3.5504,-3.5504,-3.5504,-3.5504,-3.5504,-3.5504,-3.5504,-3.5504,-3.5504,-3.5504,-3.5504,-3.5504,-3.5504,-3.5504,-3.5504,-3.5504,-3.5504,-3.5504,-3.5504,-3.5504,-3.5504,-3.5504,-3.5504,-3.5504,-3.5504,-3.5504,-2.8569,-2.9011,-2.933,-3.0818,-3.119,-3.119,-3.119,-3.1546,-3.1952,-3.2222,-3.2907,0.0,0.0,0.0,0.0,0.0,0.0,0.0,0.0,0.0,0.0,0.0,0.0,0.0,0.0,0.0,0.0,0.0,0.0,0.0,0.0,-3.5504,-3.5504,-3.5504,-3.5504,-3.5504,-3.5504,-3.5504,-3.5504,-3.5504,-3.5504,-3.5504,-3.5504,-3.5504,-3.5504,-3.5504,-3.5504,-3.5504,-3.5504,-3.5504,-3.5504,-3.5504,-3.5504,-3.5504,-3.5504,-3.5504,-3.5504,-3.5504,-3.5504,-3.5504,-3.5504,-3.5504,-3.5504,-3.5504,-3.5504,-3.5504,-3.5504,-3.5504,-3.5504,-3.5504,-3.5504,-3.5504,-3.5504,-3.5504,-3.5504,-3.5504,-3.5504,-3.5504,-3.5504,-3.5504,-3.5504,-3.5504,-3.5504,-3.5504,-3.5504,-3.5504,-3.5504,-3.5504,-3.5504,-3.5504,-3.5504,-3.5504,-3.5504,-3.5504,-3.5504,-3.5504,-3.5504,-3.5504,-3.5504,-3.5504,-3.5504,-3.5504,-3.5504,-3.5504,-3.5504,-3.5504,-3.5504,-3.5504,-3.5504,-3.5504,-3.5504,-3.5504,-2.8569,-2.9011,-2.933,-3.0818,-3.1055,-3.0986,-3.1163,-3.1616,-3.2043,-3.2324,-3.2965,-3.342,0.0,0.0,0.0,0.0,0.0,0.0,0.0,0.0,0.0,0.0,0.0,0.0,0.0,0.0,0.0,0.0,0.0,0.0,0.0,-3.5504,-3.5504,-3.5504,-3.5504,-3.5504,-3.5504,-3.5504,-3.5504,-3.5504,-3.5504,-3.5504,-3.5504,-3.5504,-3.5504,-3.5504,-3.5504,-3.5504,-3.5504,-3.5504,-3.5504,-3.5504,-3.5504,-3.5504,-3.5504,-3.5504,-3.5504,-3.5504,-3.5504,-3.5504,-3.5504,-3.5504,-3.5504,-3.5504,-3.5504,-3.5504,-3.5504,-3.5504,-3.5504,-3.5504,-3.5504,-3.5504,-3.5504,-3.5504,-3.5504,-3.5504,-3.5504,-3.5504,-3.5504,-3.5504,-3.5504,-3.5504,-3.5504,-3.5504,-3.5504,-3.5504,-3.5504,-3.5504,-3.5504,-3.5504,-3.5504,-3.5504,-3.5504,-3.5504,-3.5504,-3.5504,-3.5504,-3.5504,-3.5504,-3.5504,-3.5504,-3.5504,-3.5504,-3.5504,-3.5504,-3.5504,-3.5504,-3.5504,-3.5504,-3.5504,-3.5504,-3.5504,-2.8569,-2.9011,-2.933,-3.0818,0.0,0.0,-3.1128,-3.1292,-3.1524,-3.2335,-3.3067,-3.3582,-3.3582,0.0,0.0,0.0,0.0,0.0,0.0,0.0,0.0,0.0,0.0,0.0,0.0,0.0,0.0,0.0,0.0,0.0,0.0,-3.5504,-3.5504,-3.5504,-3.5504,-3.5504,-3.5504,-3.5504,-3.5504,-3.5504,-3.5504,-3.5504,-3.5504,-3.5504,-3.5504,-3.5504,-3.5504,-3.5504,-3.5504,-3.5504,-3.5504,-3.5504,-3.5504,-3.5504,-3.5504,-3.5504,-3.5504,-3.5504,-3.5504,-3.5504,-3.5504,-3.5504,-3.5504,-3.5504,-3.5504,-3.5504,-3.5504,-3.5504,-3.5504,-3.5504,-3.5504,-3.5504,-3.5504,-3.5504,-3.5504,-3.5504,-3.5504,-3.5504,-3.5504,-3.5504,-3.5504,-3.5504,-3.5504,-3.5504,-3.5504,-3.5504,-3.5504,-3.5504,-3.5504,-3.5504,-3.5504,-3.5504,-3.5504,-3.5504,-3.5504,-3.5504,-3.5504,-3.5504,-3.5504,-3.5504,-3.5504,-3.5504,-3.5504,-3.5504,-3.5504,-3.5504,-3.5504,-3.5504,-3.5504,-3.5504,-3.5504,-3.5504,-2.8569,-2.9011,0.0,-3.0818,0.0,0.0,0.0,-3.1418,0.0,0.0,-3.2754,-3.2734,0.0,0.0,0.0,0.0,0.0,0.0,0.0,0.0,0.0,0.0,0.0,0.0,0.0,0.0,0.0,0.0,0.0,0.0,0.0,-3.5504,-3.5504,-3.5504,-3.5504,-3.5504,-3.5504,-3.5504,-3.5504,-3.5504,-3.5504,-3.5504,-3.5504,-3.5504,-3.5504,-3.5504,-3.5504,-3.5504,-3.5504,-3.5504,-3.5504,-3.5504,-3.5504,-3.5504,-3.5504,-3.5504,-3.5504,-3.5504,-3.5504,-3.5504,-3.5504,-3.5504,-3.5504,-3.5504,-3.5504,-3.5504,-3.5504,-3.5504,-3.5504,-3.5504,-3.5504,-3.5504,-3.5504,-3.5504,-3.5504,-3.5504,-3.5504,-3.5504,-3.5504,-3.5504,-3.5504,-3.5504,-3.5504,-3.5504,-3.5504,-3.5504,-3.5504,-3.5504,-3.5504,-3.5504,-3.5504,-3.5504,-3.5504,-3.5504,-3.5504,-3.5504,-3.5504,-3.5504,-3.5504,-3.5504,-3.5504,-3.5504,-3.5504,-3.5504,-3.5504,-3.5504,-3.5504,-3.5504,-3.5504,-3.5504,-3.5504,-3.5504,-2.818,-2.8755,0.0,-3.018,-3.0162,-3.0089,-3.0566,0.0,0.0,0.0,0.0,0.0,0.0,0.0,0.0,0.0,0.0,0.0,0.0,0.0,0.0,0.0,0.0,0.0,0.0,0.0,0.0,0.0,0.0,0.0,0.0,-3.5504,-3.5504,-3.5504,-3.5504,-3.5504,-3.5504,-3.5504,-3.5504,-3.5504,-3.5504,-3.5504,-3.5504,-3.5504,-3.5504,-3.5504,-3.5504,-3.5504,-3.5504,-3.5504,-3.5504,-3.5504,-3.5504,-3.5504,-3.5504,-3.5504,-3.5504,-3.5504,-3.5504,-3.5504,-3.5504,-3.5504,-3.5504,-3.5504,-3.5504,-3.5504,-3.5504,-3.5504,-3.5504,-3.5504,-3.5504,-3.5504,-3.5504,-3.5504,-3.5504,-3.5504,-3.5504,-3.5504,-3.5504,-3.5504,-3.5504,-3.5504,-3.5504,-3.5504,-3.5504,-3.5504,-3.5504,-3.5504,-3.5504,-3.5504,-3.5504,-3.5504,-3.5504,-3.5504,-3.5504,-3.5504,-3.5504,-3.5504,-3.5504,-3.5504,-3.5504,-3.5504,-3.5504,-3.5504,-3.5504,-3.5504,-3.5504,-3.5504,-3.5504,-3.5504,-3.5504,-3.5504,-2.7535,0.0,0.0,-2.9105,-2.9275,0.0,0.0,0.0,0.0,0.0,0.0,0.0,0.0,0.0,0.0,0.0,0.0,0.0,0.0,0.0,0.0,0.0,0.0,0.0,0.0,0.0,0.0,0.0,0.0,0.0,0.0,-3.5504,-3.5504,-3.5504,-3.5504,-3.5504,-3.5504,-3.5504,-3.5504,-3.5504,-3.5504,-3.5504,-3.5504,-3.5504,-3.5504,-3.5504,-3.5504,-3.5504,-3.5504,-3.5504,-3.5504,-3.5504,-3.5504,-3.5504,-3.5504,-3.5504,-3.5504,-3.5504,-3.5504,-3.5504,-3.5504,-3.5504,-3.5504,-3.5504,-3.5504,-3.5504,-3.5504,-3.5504,-3.5424,-3.5359,-3.5359,-3.5359,-3.5359,-3.5359,-3.5424,-3.5504,-3.5504,-3.5504,-3.5504,-3.5504,-3.5504,-3.5504,-3.5504,-3.5504,-3.5504,-3.5504,-3.5504,-3.5504,-3.5504,-3.5504,-3.5504,-3.5504,-3.5504,-3.5504,-3.5504,-3.5504,-3.5504,-3.5504,-3.5504,-3.5504,-3.5504,-3.5504,-3.5504,-3.5504,-3.5504,-3.5504,-3.5504,-3.5504,-3.5504,-3.5504,-3.5504,-3.5504,-2.7125,-2.8112,0.0,0.0,-2.9023,0.0,0.0,0.0,0.0,0.0,0.0,0.0,0.0,0.0,0.0,0.0,0.0,0.0,0.0,0.0,0.0,0.0,0.0,0.0,0.0,0.0,0.0,0.0,0.0,0.0,-3.5504,-3.5504,-3.5504,-3.5504,-3.5504,-3.5504,-3.5504,-3.5504,-3.5504,0.0,-3.5504,-3.5504,-3.5504,-3.5504,-3.5504,-3.5504,-3.5504,-3.5504,-3.5504,-3.5504,-3.5504,-3.5504,-3.5504,-3.5504,-3.5504,-3.5504,-3.5504,-3.5504,-3.5504,-3.5504,-3.5504,-3.5504,-3.5504,-3.5504,-3.5504,-3.5504,-3.5504,-3.5504,-3.492,-3.4312,-3.4312,-3.4312,-3.4312,-3.4312,-3.492,-3.5504,-3.5504,-3.5504,-3.5504,-3.5504,-3.5504,-3.5504,-3.5504,-3.5504,-3.5504,-3.5504,-3.5504,-3.5504,-3.5504,-3.5504,-3.5504,-3.5504,-3.5504,-3.5504,-3.5504,-3.5504,-3.5504,-3.5504,-3.5504,-3.5504,-3.5504,-3.5504,-3.5504,-3.5504,-3.5504,-3.5504,-3.5504,-3.5504,-3.5504,-3.5504,-3.5504,-3.5504,-2.6548,0.0,0.0,-2.8399,0.0,0.0,0.0,0.0,0.0,0.0,0.0,0.0,0.0,0.0,0.0,0.0,0.0,0.0,0.0,0.0,0.0,0.0,0.0,0.0,0.0,0.0,0.0,0.0,0.0,-3.5504,-3.5504,-3.5504,-3.5504,-3.5504,-3.5504,-3.5504,-3.5504,-3.5504,-3.5504,-3.5504,-3.5504,-3.5504,-3.5504,-3.5504,-3.5504,-3.5504,-3.5504,-3.5504,-3.5504,-3.5504,-3.5504,-3.5504,-3.5504,-3.5504,-3.5504,-3.5504,-3.5213,-3.4839,-3.5359,-3.5198,-3.4839,-3.5359,-3.5504,-3.5424,-3.492,-3.4758,-3.4691,-3.4259,-3.3754,-3.331,-3.331,-3.331,-3.331,-3.331,-3.4409,-3.5504,-3.5504,-3.5504,-3.5504,-3.5504,-3.5504,-3.5504,-3.5504,-3.5504,-3.5504,-3.5504,-3.5504,-3.5504,-3.5504,-3.5504,-3.5504,-3.5504,-3.5504,-3.5504,-3.5504,-3.5504,-3.5504,-3.5504,-3.5504,-3.5504,-3.5504,-3.5504,-3.5504,-3.5504,-3.5504,-3.5504,-3.5504,-3.5504,-3.5504,-3.5504,-3.5504,-3.5504,-2.5888,0.0,-2.7261,-2.8264,-2.8484,0.0,0.0,0.0,0.0,0.0,0.0,0.0,0.0,0.0,0.0,0.0,0.0,0.0,0.0,0.0,0.0,0.0,0.0,0.0,0.0,0.0,0.0,0.0,0.0,-3.516,-3.516,-3.516,-3.522,-3.5325,-3.5325,-3.5305,-3.5213,-3.5213,-3.5133,-3.5001,-3.5001,-3.5001,-3.5001,-3.5001,-3.5213,-3.5504,-3.5504,-3.5504,-3.5504,-3.5504,-3.5504,-3.5504,-3.5504,-3.5504,-3.5504,-3.5504,-3.4839,-3.4095,-3.4986,-3.4624,-3.3891,-3.4706,-3.5001,-3.4839,-3.4027,-3.3739,-3.3602,-3.282,-3.2464,-3.2393,-3.2393,-3.2393,-3.2393,-3.2393,-3.3685,-3.5067,-3.5213,-3.5213,-3.5279,-3.5439,-3.5504,-3.5504,-3.5504,-3.5504,-3.5504,-3.5504,-3.5504,-3.5504,-3.5504,-3.5504,-3.5504,-3.5504,-3.5504,-3.5504,-3.5504,-3.5504,-3.5504,-3.5504,-3.5504,-3.5504,-3.5504,-3.5504,-3.5504,-3.5504,-3.5504,-3.5504,-3.5504,-3.5504,-3.5504,-3.5504,-3.5504,-3.5504,0.0,0.0,-2.6274,0.0,0.0,0.0,0.0,0.0,0.0,0.0,0.0,0.0,0.0,0.0,0.0,0.0,0.0,0.0,0.0,0.0,0.0,0.0,0.0,0.0,0.0,0.0,0.0,0.0,-3.3709,-3.3769,-3.3769,-3.3769,-3.4023,-3.4607,-3.4607,-3.446,-3.4163,-3.4177,-3.3808,-3.2961,-3.2961,-3.2961,-3.2961,-3.2961,-3.3905,-3.5504,-3.5504,-3.5504,-3.5504,-3.5504,-3.5504,-3.5504,-3.5504,-3.5504,-3.5504,-3.5504,-3.4839,-3.4027,-3.4177,-3.3602,-3.282,-3.2961,-3.2961,-3.2961,-3.282,-3.282,-3.2749,-3.2664,-3.2033,-3.1389,-3.1389,-3.1389,-3.1389,-3.1389,-3.2177,-3.3241,-3.4027,-3.4177,-3.4461,-3.5359,-3.5504,-3.5504,-3.5504,-3.5504,-3.5504,-3.5504,-3.5504,-3.5504,-3.5504,-3.5504,-3.5504,-3.5504,-3.5504,-3.5504,-3.5504,-3.5504,-3.5504,-3.5504,-3.5504,-3.5504,-3.5504,-3.5504,-3.5504,-3.5504,-3.5504,-3.5504,-3.5504,-3.5504,-3.5504,-3.5504,-3.5504,-3.5504,-2.5461,-2.5485,-2.5976,0.0,0.0,0.0,0.0,0.0,0.0,0.0,0.0,0.0,0.0,0.0,0.0,0.0,0.0,0.0,0.0,0.0,0.0,0.0,0.0,0.0,0.0,0.0,0.0,0.0,-3.329,-3.3499,-3.3499,-3.3499,-3.3634,-3.3918,-3.3918,-3.3646,-3.2976,-3.2976,-3.2549,-3.1736,-3.2,-3.2166,-3.218,-3.2441,-3.3031,-3.3905,-3.4409,-3.4691,-3.4691,-3.5279,-3.5504,-3.5504,-3.5504,-3.5504,-3.5504,-3.5504,-3.4558,-3.331,-3.3808,-3.3031,-3.1888,-3.2464,-3.2593,-3.2536,-3.196,-3.1815,-3.1683,-3.1206,-3.0696,-3.0419,-3.0419,-3.0419,-3.0419,-3.0419,-3.0709,-3.1328,-3.2225,-3.2835,-3.3522,-3.4493,-3.4623,-3.4857,-3.5379,-3.5504,-3.5504,-3.5504,-3.5504,-3.5504,-3.5504,-3.5504,-3.5504,-3.5504,-3.5504,-3.5504,-3.5504,-3.5504,-3.5504,-3.5504,-3.5504,-3.5504,-3.5504,-3.5504,-3.5504,-3.5504,-3.5504,-3.5504,-3.5504,-3.5504,-3.5504,-3.5504,-3.5504,-3.5504,0.0,0.0,-2.5884,0.0,0.0,0.0,0.0,0.0,0.0,0.0,0.0,0.0,0.0,0.0,0.0,0.0,0.0,0.0,0.0,0.0,0.0,0.0,0.0,0.0,0.0,0.0,0.0,0.0,-3.2526,-3.2794,-3.2991,-3.2596,-3.2608,-3.3245,-3.2847,-3.2378,-3.1868,-3.1411,-3.0865,-3.0269,-3.0647,-3.085,-3.0864,-3.1294,-3.1492,-3.1703,-3.3087,-3.3628,-3.3693,-3.4426,-3.4765,-3.4747,-3.4747,-3.4901,-3.5085,-3.5085,-3.4066,-3.2709,-3.3364,-3.2393,-3.0983,-3.1683,-3.1901,-3.1756,-3.1044,-3.0833,-3.0696,-2.9998,-2.9792,-2.9792,-2.9792,-2.9792,-2.9792,-2.9792,-2.9792,-3.0037,-3.1022,-3.1926,-3.278,-3.3478,-3.3659,-3.3886,-3.4641,-3.4979,-3.5145,-3.5111,-3.5323,-3.5504,-3.5504,-3.5504,-3.5504,-3.5504,-3.5504,-3.5504,-3.5504,-3.5504,-3.5504,-3.5504,-3.5504,-3.5504,-3.5504,-3.5504,-3.5504,-3.5504,-3.5504,-3.5504,-3.5504,-3.5504,-3.5504,-3.5504,-3.5504,-3.5504,0.0,-2.5136,0.0,0.0,0.0,0.0,0.0,0.0,0.0,0.0,0.0,0.0,0.0,0.0,0.0,0.0,0.0,0.0,0.0,0.0,0.0,0.0,0.0,0.0,0.0,0.0,0.0,0.0,-3.085,-3.0805,-3.1571,-3.0111,-3.0259,-3.2482,-3.0997,-3.0415,-3.0865,-2.9183,-2.8315,-2.8243,-2.8268,-2.828,-2.8293,-2.8324,-2.8624,-2.9223,-3.1604,-3.2653,-3.2666,-3.2736,-3.2723,-3.2775,-3.2775,-3.3274,-3.4103,-3.4103,-3.3456,-3.2629,-3.2654,-3.1402,-2.9856,-2.9934,-2.9934,-2.9934,-2.9869,-2.9856,-2.9856,-2.9792,-2.9792,-2.9792,-2.9792,-2.9792,-2.9792,-2.9792,-2.9792,-3.0037,-3.1022,-3.1931,-3.2616,-3.2667,-3.2667,-3.2723,-3.2702,-3.3494,-3.4113,-3.4103,-3.4875,-3.5504,-3.5504,-3.5504,-3.5504,-3.5504,-3.5504,-3.5504,-3.5504,-3.5504,-3.5504,-3.5504,-3.5504,-3.5504,-3.5504,-3.5504,-3.5504,-3.5504,-3.5504,-3.5504,-3.5504,-3.5504,-3.5504,-3.5504,-3.5504,-3.5504,0.0,0.0,0.0,0.0,0.0,0.0,0.0,0.0,0.0,0.0,0.0,0.0,0.0,0.0,0.0,0.0,0.0,0.0,0.0,0.0,0.0,0.0,0.0,0.0,0.0,0.0,0.0,0.0,0.0,-2.9827,-3.0703,-2.9628,-2.9415,-3.0216,-2.9638,-2.9173,-2.8799,-2.7631,-2.7055,-2.7055,-2.7406,-2.7582,-2.7595,-2.7961,-2.82,-2.8437,-2.9356,-3.0464,-3.1776,-3.2331,-3.2585,-3.2583,-3.2571,-3.283,-3.3123,-3.3114,-3.2515,-3.1693,-3.1681,-3.0882,-2.9792,-2.9792,-2.9792,-2.9792,-2.9792,-2.9792,-2.9792,-2.9792,-2.9792,-2.9792,-2.9792,-2.9792,-2.9792,-2.9792,-2.9792,-2.9921,-3.0228,-3.0572,-3.0957,-3.1602,-3.1729,-3.189,-3.2471,-3.3417,-3.4013,-3.4037,-3.489,-3.5504,-3.5504,-3.5504,-3.5504,-3.5504,-3.5504,-3.5504,-3.5504,-3.5504,-3.5504,-3.5504,-3.5504,-3.5504,-3.5504,-3.5504,-3.5504,-3.5504,-3.5504,-3.5504,-3.5504,-3.5504,-3.5504,-3.5504,-3.5504,-3.5504,-2.4236,0.0,0.0,0.0,0.0,0.0,0.0,0.0,0.0,0.0,0.0,0.0,0.0,0.0,0.0,0.0,0.0,0.0,0.0,0.0,0.0,0.0,0.0,0.0,0.0,0.0,0.0,0.0,0.0,0.0,-2.9827,-2.9066,-2.8427,-2.8182,-2.8427,-2.8182,-2.7284,-2.6782,-2.6533,-2.6533,-2.6829,-2.7005,-2.7017,-2.7394,-2.7682,-2.7823,-2.7823,-2.8749,-3.0176,-3.082,-3.1202,-3.1396,-3.1368,-3.1672,-3.2136,-3.2151,-3.1723,-3.1226,-3.1175,-3.0616,-2.9792,-2.9792,-2.9792,-2.9792,-2.9792,-2.9792,-2.9792,-2.9792,-2.9792,-2.9792,-2.9792,-2.9792,-2.9792,-2.9792,-2.9792,-2.9792,-2.9792,-2.9792,-2.9945,-3.0598,-3.0727,-3.0971,-3.1552,-3.2686,-3.3506,-3.3536,-3.4631,-3.5504,-3.5504,-3.5504,-3.5504,-3.5504,-3.5504,-3.5504,-3.5504,-3.5504,-3.5504,-3.5504,-3.5504,-3.5504,-3.5504,-3.5504,-3.5504,-3.5504,-3.5504,-3.5504,-3.5504,-3.5504,-3.5504,-3.5504,-3.5504,-3.5504,0.0,0.0,0.0,0.0,0.0,0.0,0.0,0.0,0.0,0.0,0.0,0.0,0.0,0.0,0.0,0.0,0.0,0.0,0.0,0.0,0.0,0.0,0.0,0.0,0.0,0.0,0.0,0.0,-2.9414,-2.8911,-2.8939,-2.8117,-2.7284,-2.6521,-2.7297,-2.7284,-2.6533,-2.6533,-2.6533,-2.6533,-2.6533,-2.6533,-2.6533,-2.6533,-2.6784,-2.7276,-2.7276,-2.756,-2.8033,-2.8123,-2.8399,-2.8904,-2.8864,-2.9792,-3.1126,-3.1126,-3.1139,-3.1164,-3.1189,-3.0555,-2.9792,-2.9792,-2.9792,-2.9792,-2.9792,-2.9792,-2.9792,-2.9792,-2.9792,-2.9792,-2.9792,-2.9792,-2.9792,-2.9792,-2.9792,-2.9792,-2.9792,-2.9792,-2.9792,-2.9792,-2.9792,-2.9792,-2.9792,-3.1309,-3.2542,-3.2552,-3.4192,-3.5439,-3.5439,-3.5504,-3.5504,-3.5504,-3.5504,-3.5504,-3.5504,-3.5504,-3.5504,-3.5504,-3.5504,-3.5504,-3.5504,-3.5504,-3.5504,-3.5504,-3.5504,-3.5504,-3.5504,-3.5504,-3.5504,-3.5504,-3.5504,-3.5504,-2.3595,0.0,0.0,0.0,0.0,0.0,0.0,0.0,0.0,0.0,0.0,0.0,0.0,0.0,0.0,0.0,0.0,0.0,0.0,0.0,0.0,0.0,0.0,0.0,0.0,0.0,0.0,0.0,-2.7333,-2.7027,-2.8038,-2.7297,-2.6714,-2.6533,-2.6714,-2.6714,-2.6533,-2.6533,-2.6533,-2.6533,-2.6533,-2.6533,-2.6533,-2.6533,-2.6559,-2.669,-2.669,-2.6791,-2.7005,-2.7746,-2.8209,-2.829,-2.8285,-2.8852,-2.9537,-2.9537,-2.9792,-3.0227,-3.019,-3.005,-2.9792,-2.9792,-2.9792,-2.9792,-2.9792,-2.9792,-2.9792,-2.9792,-2.9792,-2.9792,-2.9792,-2.9792,-2.9792,-2.9792,-2.9792,-2.9792,-2.9792,-2.9792,-2.9792,-2.9792,-2.9792,-2.9792,-2.9792,-3.0768,-3.1589,-3.1596,-3.3171,-3.4394,-3.4394,-3.5052,-3.5504,-3.5504,-3.5504,-3.5504,-3.5504,-3.5504,-3.5504,-3.5504,-3.5504,-3.5504,-3.5504,-3.5504,-3.5504,-3.5504,-3.5504,-3.5504,-3.5504,-3.5504,-3.5504,-3.5504,-3.5504,-3.5504,0.0,0.0,0.0,0.0,0.0,0.0,-2.6378,-2.6886,0.0,0.0,0.0,0.0,0.0,0.0,0.0,0.0,0.0,0.0,0.0,0.0,0.0,0.0,0.0,0.0,0.0,-2.6362,-2.6134,-2.7141,-2.6306,-2.6259,-2.7275,-2.6845,-2.6533,-2.6533,-2.6533,-2.6533,-2.6533,-2.6533,-2.6533,-2.6533,-2.6533,-2.6533,-2.6533,-2.6533,-2.6533,-2.6533,-2.6533,-2.6533,-2.6546,-2.7156,-2.7528,-2.7765,-2.7761,-2.8113,-2.861,-2.8808,-2.913,-2.9499,-2.9677,-2.9792,-2.9792,-2.9792,-2.9792,-2.9792,-2.9792,-2.9792,-2.9792,-2.9792,-2.9792,-2.9792,-2.9792,-2.9792,-2.9792,-2.9792,-2.9792,-2.9792,-2.9792,-2.9792,-2.9792,-2.9792,-2.9792,-2.9792,-2.9792,-3.0558,-3.118,-3.118,-3.2464,-3.3449,-3.3449,-3.3905,-3.4274,-3.4274,-3.4274,-3.4476,-3.4839,-3.4839,-3.5052,-3.5504,-3.5504,-3.5504,-3.5504,-3.5504,-3.5504,-3.5504,-3.5504,-3.5504,-3.5504,-3.5504,-3.5504,-3.5504,-3.5504,-3.5504,0.0,0.0,0.0,0.0,0.0,0.0,-2.6198,-2.6479,-2.6668,0.0,0.0,0.0,0.0,0.0,0.0,0.0,0.0,0.0,0.0,0.0,0.0,0.0,0.0,0.0,-2.7069,-2.5796,-2.5174,-2.5937,-2.5981,-2.6169,-2.6632,-2.6509,-2.6433,-2.6433,-2.6496,-2.6533,-2.6533,-2.6533,-2.6533,-2.6533,-2.6533,-2.6533,-2.6533,-2.6533,-2.6533,-2.6533,-2.6533,-2.6533,-2.6533,-2.6533,-2.6784,-2.7237,-2.7237,-2.7516,-2.8097,-2.855,-2.8731,-2.8867,-2.9487,-2.9677,-2.9677,-2.9779,-2.9792,-2.9792,-2.9792,-2.9792,-2.9792,-2.9792,-2.9792,-2.9792,-2.9792,-2.9792,-2.9792,-2.9792,-2.9792,-2.9792,-2.9792,-2.9792,-2.9792,-2.9792,-2.9792,-2.9792,-2.9792,-3.0482,-3.1044,-3.1044,-3.1815,-3.2464,-3.2464,-3.2522,-3.2593,-3.2593,-3.2593,-3.2961,-3.3945,-3.4027,-3.4394,-3.5439,-3.5504,-3.5504,-3.5504,-3.5504,-3.5504,-3.5504,-3.5504,-3.5504,-3.5504,-3.5504,-3.5504,-3.5504,-3.5504,-3.5504,0.0,0.0,0.0,0.0,0.0,0.0,-2.5615,-2.5732,-2.5908,0.0,0.0,0.0,0.0,0.0,0.0,0.0,0.0,0.0,0.0,0.0,0.0,0.0,0.0,0.0,-2.4899,-2.404,-2.3987,-2.5208,-2.5163,-2.5103,-2.5217,-2.5605,-2.5774,-2.5774,-2.6214,-2.6533,-2.6533,-2.6533,-2.6533,-2.6533,-2.6533,-2.6533,-2.6533,-2.6533,-2.6533,-2.6533,-2.6533,-2.6533,-2.6533,-2.6533,-2.6559,-2.6665,-2.6665,-2.7011,-2.7447,-2.7545,-2.7902,-2.8313,-2.8857,-2.9118,-2.9142,-2.9651,-2.9792,-2.9792,-2.9792,-2.9792,-2.9792,-2.9792,-2.9792,-2.9792,-2.9792,-2.9792,-2.9792,-2.9792,-2.9792,-2.9792,-2.9792,-2.9792,-2.9792,-2.9792,-2.9792,-2.9792,-2.9792,-2.9934,-3.0075,-3.0075,-3.0833,-3.1462,-3.1462,-3.2105,-3.2593,-3.2593,-3.2593,-3.2961,-3.3945,-3.4027,-3.4394,-3.5439,-3.5504,-3.5504,-3.5504,-3.5504,-3.5504,-3.5504,-3.5504,-3.5504,-3.5504,-3.5504,-3.5504,-3.5504,-3.5504,-3.5504,0.0,0.0,0.0,-2.3143,0.0,0.0,0.0,-2.484,-2.4921,0.0,0.0,0.0,0.0,0.0,0.0,0.0,0.0,0.0,0.0,0.0,0.0,0.0,0.0,0.0,-2.4292,-2.3603,-2.3371,-2.4047,-2.4267,-2.4406,-2.4406,-2.4921,-2.5209,-2.5209,-2.5737,-2.6025,-2.6025,-2.6382,-2.6533,-2.6533,-2.6533,-2.6533,-2.6533,-2.6533,-2.6533,-2.6533,-2.6533,-2.6533,-2.6533,-2.6533,-2.6533,-2.6533,-2.6533,-2.6665,-2.6917,-2.7169,-2.75,-2.7746,-2.8303,-2.87,-2.8978,-2.9257,-2.9537,-2.9792,-2.9792,-2.9792,-2.9792,-2.9792,-2.9792,-2.9792,-2.9792,-2.9792,-2.9792,-2.9792,-2.9792,-2.9792,-2.9792,-2.9792,-2.9792,-2.9792,-2.9792,-2.9792,-2.9792,-2.9792,-2.9792,-2.9792,-3.0216,-3.0482,-3.0482,-3.0921,-3.1206,-3.1206,-3.1609,-3.2321,-3.3241,-3.3739,-3.4394,-3.5439,-3.5504,-3.5504,-3.5504,-3.5504,-3.5504,-3.5504,-3.5504,-3.5504,-3.5504,-3.5504,-3.5504,-3.5504,-3.5504,-3.5504,0.0,0.0,0.0,0.0,0.0,-2.2325,0.0,0.0,0.0,-2.572,0.0,0.0,0.0,0.0,0.0,0.0,0.0,0.0,0.0,0.0,0.0,0.0,0.0,0.0,0.0,-2.3484,-2.3078,-2.3078,-2.3565,-2.3841,-2.3841,-2.4356,-2.4669,-2.4669,-2.5172,-2.5448,-2.5448,-2.6013,-2.6302,-2.6302,-2.6471,-2.6533,-2.6533,-2.6533,-2.6533,-2.6533,-2.6533,-2.6533,-2.6533,-2.6533,-2.6533,-2.6533,-2.6533,-2.6533,-2.6546,-2.7011,-2.7143,-2.725,-2.7756,-2.8231,-2.8597,-2.8855,-2.9282,-2.9792,-2.9792,-2.9792,-2.9792,-2.9792,-2.9792,-2.9792,-2.9792,-2.9792,-2.9792,-2.9792,-2.9792,-2.9792,-2.9792,-2.9792,-2.9792,-2.9792,-2.9792,-2.9792,-2.9792,-2.9792,-2.9792,-2.9792,-2.9792,-2.9792,-2.9792,-2.9792,-2.9792,-2.9792,-3.0482,-3.1402,-3.2536,-3.331,-3.4259,-3.5439,-3.5504,-3.5504,-3.5504,-3.5504,-3.5504,-3.5504,-3.5504,-3.5504,-3.5504,-3.5504,-3.5504,-3.5504,-3.5504,-3.5504,0.0,0.0,0.0,0.0,-2.2173,0.0,0.0,0.0,-2.3586,-2.4376,0.0,0.0,0.0,0.0,0.0,0.0,0.0,0.0,0.0,0.0,0.0,0.0,0.0,0.0,0.0,-2.3125,-2.3078,-2.3078,-2.3128,-2.3226,-2.3226,-2.3778,-2.4092,-2.4092,-2.4619,-2.4908,-2.4908,-2.5435,-2.5686,-2.5699,-2.6214,-2.6533,-2.6533,-2.6533,-2.6533,-2.6533,-2.6533,-2.6533,-2.6533,-2.6533,-2.6533,-2.6533,-2.6533,-2.6533,-2.6533,-2.6559,-2.6571,-2.6665,-2.7169,-2.7429,-2.764,-2.8611,-2.9282,-2.9792,-2.9792,-2.9792,-2.9792,-2.9792,-2.9792,-2.9792,-2.9792,-2.9792,-2.9792,-2.9792,-2.9792,-2.9792,-2.9792,-2.9792,-2.9792,-2.9792,-2.9792,-2.9792,-2.9792,-2.9792,-2.9792,-2.9792,-2.9792,-2.9792,-2.9792,-2.9792,-2.9792,-2.9792,-2.9856,-3.0709,-3.2464,-3.2678,-3.3547,-3.5359,-3.5504,-3.5504,-3.5504,-3.5504,-3.5504,-3.5504,-3.5504,-3.5504,-3.5504,-3.5504,-3.5504,-3.5504,-3.5504,-3.5504,0.0,0.0,0.0,0.0,0.0,0.0,-2.3272,0.0,-2.3013,0.0,0.0,0.0,0.0,0.0,0.0,0.0,-2.2927,0.0,0.0,0.0,0.0,0.0,0.0,0.0,0.0,0.0,0.0,0.0,-2.3078,-2.3078,-2.3078,-2.3364,-2.3502,-2.3502,-2.4054,-2.4343,-2.4343,-2.4883,-2.5146,-2.5159,-2.5685,-2.5977,-2.5977,-2.6321,-2.6533,-2.6533,-2.6533,-2.6533,-2.6533,-2.6533,-2.6533,-2.6533,-2.6533,-2.6533,-2.6533,-2.6533,-2.6533,-2.6546,-2.6772,-2.7036,-2.75,-2.8549,-2.9105,-2.9372,-2.9664,-2.9792,-2.9792,-2.9792,-2.9792,-2.9792,-2.9792,-2.9792,-2.9792,-2.9792,-2.9792,-2.9792,-2.9792,-2.9792,-2.9792,-2.9792,-2.9792,-2.9792,-2.9792,-2.9792,-2.9792,-2.9792,-2.9792,-2.9792,-2.9792,-2.9792,-2.9792,-2.9792,-3.0279,-3.0908,-3.1742,-3.2321,-3.3171,-3.4543,-3.5213,-3.5504,-3.5504,-3.492,-3.4905,-3.5504,-3.4409,-3.4341,-3.5504,-3.4905,-3.492,-3.5504,-3.5504,-3.5504,-2.2724,0.0,0.0,0.0,0.0,0.0,0.0,0.0,0.0,0.0,0.0,0.0,0.0,0.0,0.0,-2.2877,0.0,-2.3027,0.0,0.0,0.0,0.0,0.0,0.0,0.0,0.0,0.0,0.0,0.0,-2.3078,-2.3078,-2.3078,-2.3078,-2.3078,-2.354,-2.3766,-2.3766,-2.4318,-2.4594,-2.4607,-2.5108,-2.5364,-2.5399,-2.5977,-2.6214,-2.6296,-2.6427,-2.6533,-2.6533,-2.6533,-2.6533,-2.6533,-2.6533,-2.6533,-2.6533,-2.6533,-2.6533,-2.6533,-2.6533,-2.6878,-2.7423,-2.8211,-2.8647,-2.8991,-2.9409,-2.9664,-2.9792,-2.9792,-2.9792,-2.9792,-2.9792,-2.9792,-2.9792,-2.9792,-2.9792,-2.9792,-2.9792,-2.9792,-2.9792,-2.9792,-2.9792,-2.9792,-2.9792,-2.9792,-2.9792,-2.9792,-2.9792,-2.9792,-2.9792,-2.9792,-2.9792,-2.9792,-3.0419,-3.0895,-3.118,-3.1815,-3.2593,-3.3533,-3.4327,-3.4839,-3.5067,-3.4394,-3.4461,-3.5504,-3.4124,-3.4124,-3.5504,-3.4758,-3.4773,-3.5504,-3.5504,-3.5504,0.0,0.0,0.0,-2.1536,0.0,0.0,0.0,0.0,-2.3113,0.0,0.0,0.0,0.0,0.0,-2.2902,-2.2422,-2.2786,0.0,0.0,0.0,0.0,0.0,0.0,0.0,0.0,0.0,0.0,0.0,-2.3078,-2.3078,-2.3078,-2.3078,-2.3078,-2.3078,-2.309,-2.3103,-2.3103,-2.374,-2.4029,-2.4029,-2.4594,-2.4855,-2.4836,-2.5387,-2.5623,-2.5635,-2.6214,-2.6533,-2.6533,-2.6533,-2.6533,-2.6533,-2.6533,-2.6533,-2.6533,-2.6533,-2.6533,-2.6533,-2.6533,-2.6878,-2.7288,-2.7339,-2.8021,-2.8889,-2.8889,-2.9372,-2.9792,-2.9792,-2.9792,-2.9792,-2.9792,-2.9792,-2.9792,-2.9792,-2.9792,-2.9792,-2.9792,-2.9792,-2.9792,-2.9792,-2.9792,-2.9792,-2.9792,-2.9792,-2.9792,-2.9792,-2.9792,-2.9792,-2.9792,-2.9792,-2.9792,-2.9792,-2.9869,-3.0216,-3.1106,-3.1254,-3.1669,-3.2593,-3.2678,-3.3101,-3.4027,-3.4027,-3.4461,-3.5504,-3.5439,-3.5439,-3.5504,-3.5439,-3.5439,-3.5504,-3.5504,-3.5504,0.0,0.0,-2.2573,-2.2573,0.0,0.0,0.0,0.0,0.0,0.0,0.0,0.0,0.0,-2.3078,-2.3015,-2.2887,-2.2952,-2.3015,0.0,0.0,0.0,0.0,0.0,0.0,0.0,0.0,0.0,0.0,-2.3078,-2.3078,-2.3078,-2.3078,-2.3078,-2.3078,-2.3078,-2.3078,-2.3078,-2.3326,-2.3427,-2.3427,-2.3963,-2.4254,-2.428,-2.4823,-2.5264,-2.5623,-2.5834,-2.6096,-2.6533,-2.6533,-2.6533,-2.6533,-2.6533,-2.6533,-2.6533,-2.6533,-2.6533,-2.6533,-2.6533,-2.6653,-2.681,-2.7156,-2.7545,-2.7968,-2.8684,-2.9015,-2.9269,-2.9664,-2.9792,-2.9792,-2.9792,-2.9792,-2.9792,-2.9792,-2.9792,-2.9792,-2.9792,-2.9792,-2.9792,-2.9792,-2.9792,-2.9792,-2.9792,-2.9792,-2.9792,-2.9792,-2.9792,-2.9792,-2.9792,-2.9792,-2.9792,-2.9792,-2.9792,-2.9934,-3.0279,-3.0833,-3.1315,-3.1669,-3.2249,-3.2749,-3.3031,-3.3101,-3.3241,-3.3547,-3.2975,-3.3255,-3.4543,-3.3891,-3.4259,-3.5504,-3.5504,-3.5504,-2.2763,-2.2689,0.0,-2.3005,-2.2884,0.0,-2.3005,0.0,0.0,0.0,0.0,0.0,0.0,0.0,-2.3017,-2.2702,-2.2884,-2.3078,0.0,-2.3078,0.0,0.0,0.0,0.0,0.0,0.0,0.0,-2.3078,-2.3078,-2.3078,-2.3078,0.0,-2.3078,-2.3078,-2.3078,-2.3078,-2.3078,-2.3078,-2.3078,-2.3078,-2.3482,-2.3679,-2.3692,-2.4283,-2.4694,-2.5053,-2.5232,-2.5635,-2.6151,-2.6151,-2.6345,-2.6533,-2.6533,-2.6533,-2.6533,-2.6533,-2.6533,-2.6533,-2.6533,-2.6533,-2.6559,-2.6904,-2.7143,-2.7423,-2.8134,-2.8486,-2.875,-2.9282,-2.9512,-2.9524,-2.9767,-2.9792,-2.9792,-2.9792,-2.9792,-2.9792,-2.9792,-2.9792,-2.9792,-2.9792,-2.9792,-2.9792,-2.9792,-2.9792,-2.9792,-2.9792,-2.9792,-2.9792,-2.9792,-2.9792,-2.9792,-2.9792,-2.9792,-2.9792,-2.9792,-3.0343,-3.0696,-3.0696,-3.1267,-3.1756,-3.2105,-3.2105,-3.2249,-3.2593,-3.2033,-3.2321,-3.3518,-3.289,-3.3255,-3.4491,-3.4491,-3.4491]}]]